[[{"header":{"parameterUnit":"m.s-1","parameterCategory":1,"la1":30.6,"la2":29.2853,"lo1":-89.7004,"lo2":-87.6739,"dy":0.0162,"dx":0.0183,"nx":112,"ny":82,"refTime":"2023-06-23T12:00:00:Z","depth":0,"parameterNumber":2,"parameterNumberName":"U-component_of_WINDS"},"data":[0.0,0.0,0.0,0.0,0.0,0.0,0.0,0.0,0.0,0.0,0.0,0.0,0.0,0.0,0.0,0.0,0.0,0.0,0.0,0.0,0.0,0.0,0.0,0.0,0.0,0.0,0.0,0.0,0.0,0.0,0.0,0.0,0.0,0.0,0.0,0.0,0.0,0.0,0.0,0.0,0.0,0.0,0.0,0.0,0.0,0.0,0.0,0.0,0.0,0.0,0.0,0.0,0.0,0.0,0.0,0.0,0.0,0.0,0.0,0.0,0.0,0.0,0.0,0.0,0.0,0.0,0.0,0.0,0.0,0.0,0.0,0.0,0.0,0.0,0.0,0.0,0.0,0.0,0.0,0.0,0.0,0.0,0.0,0.0,0.0,0.0,0.0,0.0,0.0,0.0,-4.5466,-4.8291,-5.4651,-5.959,-6.1839,-6.1264,-5.8822,-5.4205,0.0,0.0,0.0,0.0,0.0,0.0,0.0,0.0,0.0,0.0,0.0,0.0,0.0,0.0,0.0,0.0,0.0,0.0,0.0,0.0,0.0,0.0,0.0,0.0,0.0,0.0,0.0,0.0,0.0,0.0,0.0,0.0,0.0,0.0,0.0,0.0,0.0,0.0,0.0,0.0,0.0,0.0,0.0,0.0,0.0,0.0,0.0,0.0,0.0,0.0,0.0,0.0,0.0,0.0,0.0,0.0,0.0,0.0,0.0,0.0,0.0,0.0,0.0,0.0,0.0,0.0,0.0,0.0,0.0,0.0,0.0,0.0,0.0,0.0,0.0,0.0,0.0,0.0,0.0,0.0,0.0,0.0,0.0,0.0,0.0,0.0,0.0,0.0,0.0,0.0,0.0,0.0,0.0,0.0,0.0,0.0,0.0,0.0,0.0,0.0,0.0,0.0,0.0,0.0,-4.5652,-5.1065,-5.4938,-5.8034,-6.0266,-5.9034,-5.6477,-5.2521,0.0,0.0,0.0,0.0,0.0,0.0,0.0,0.0,0.0,0.0,0.0,0.0,0.0,0.0,0.0,0.0,0.0,0.0,0.0,0.0,0.0,0.0,0.0,0.0,0.0,0.0,0.0,0.0,0.0,0.0,0.0,0.0,0.0,0.0,0.0,0.0,0.0,0.0,0.0,0.0,0.0,0.0,0.0,0.0,0.0,0.0,0.0,0.0,0.0,0.0,0.0,0.0,0.0,0.0,0.0,0.0,0.0,0.0,0.0,0.0,0.0,0.0,0.0,0.0,0.0,0.0,0.0,0.0,0.0,0.0,0.0,0.0,0.0,0.0,0.0,0.0,0.0,0.0,0.0,0.0,0.0,0.0,0.0,0.0,0.0,0.0,0.0,0.0,0.0,0.0,0.0,0.0,0.0,0.0,0.0,0.0,0.0,0.0,0.0,0.0,0.0,0.0,0.0,-4.4248,-4.6616,-5.1758,-5.4279,-5.6423,-5.8562,-5.7695,-5.553,-5.1964,-4.9227,0.0,0.0,0.0,0.0,0.0,0.0,0.0,0.0,0.0,0.0,0.0,0.0,0.0,0.0,0.0,0.0,0.0,0.0,0.0,0.0,0.0,0.0,0.0,0.0,0.0,0.0,0.0,0.0,0.0,0.0,0.0,0.0,0.0,0.0,0.0,0.0,0.0,0.0,0.0,0.0,0.0,0.0,0.0,0.0,0.0,0.0,0.0,0.0,0.0,0.0,0.0,0.0,0.0,0.0,0.0,0.0,0.0,0.0,0.0,0.0,0.0,0.0,0.0,0.0,0.0,0.0,0.0,0.0,0.0,0.0,0.0,0.0,0.0,0.0,0.0,0.0,0.0,0.0,0.0,0.0,0.0,0.0,0.0,0.0,0.0,0.0,0.0,0.0,0.0,0.0,0.0,0.0,0.0,0.0,0.0,0.0,0.0,0.0,0.0,0.0,0.0,0.0,-4.573,-4.7605,-5.1256,-5.3399,-5.5204,-5.6841,-5.6157,-5.4183,-5.0805,-4.7155,0.0,0.0,0.0,0.0,0.0,0.0,0.0,0.0,0.0,0.0,0.0,0.0,0.0,0.0,0.0,0.0,0.0,0.0,0.0,0.0,0.0,0.0,0.0,0.0,0.0,0.0,0.0,0.0,0.0,0.0,0.0,0.0,0.0,0.0,0.0,0.0,0.0,0.0,0.0,0.0,0.0,0.0,0.0,0.0,0.0,0.0,0.0,0.0,0.0,0.0,0.0,0.0,0.0,0.0,0.0,0.0,0.0,0.0,0.0,0.0,0.0,0.0,0.0,0.0,0.0,0.0,0.0,0.0,0.0,0.0,0.0,0.0,0.0,0.0,0.0,0.0,0.0,0.0,0.0,0.0,0.0,0.0,0.0,0.0,0.0,0.0,0.0,0.0,0.0,0.0,0.0,0.0,0.0,0.0,0.0,0.0,0.0,0.0,0.0,0.0,0.0,0.0,-4.5925,-4.8287,-4.9636,-5.2522,-5.4572,-5.5252,-5.3857,-5.1441,-4.7798,-4.4156,0.0,0.0,0.0,0.0,0.0,0.0,0.0,0.0,0.0,0.0,0.0,0.0,0.0,0.0,0.0,0.0,0.0,0.0,0.0,0.0,0.0,0.0,0.0,0.0,0.0,0.0,0.0,0.0,0.0,0.0,0.0,0.0,0.0,0.0,0.0,0.0,0.0,0.0,0.0,0.0,0.0,0.0,0.0,0.0,0.0,0.0,0.0,0.0,0.0,0.0,0.0,0.0,0.0,0.0,0.0,0.0,0.0,0.0,0.0,0.0,0.0,0.0,0.0,0.0,0.0,0.0,0.0,0.0,0.0,0.0,0.0,0.0,0.0,0.0,0.0,0.0,0.0,0.0,0.0,0.0,0.0,0.0,0.0,0.0,0.0,0.0,0.0,0.0,0.0,0.0,0.0,0.0,0.0,0.0,0.0,0.0,0.0,0.0,0.0,0.0,0.0,0.0,-4.4901,-4.6898,-4.8701,-5.1212,-5.2937,-5.3532,-5.3387,-5.1533,-4.7398,0.0,0.0,0.0,0.0,0.0,0.0,0.0,0.0,0.0,0.0,0.0,0.0,0.0,0.0,0.0,0.0,0.0,0.0,0.0,0.0,0.0,0.0,0.0,0.0,0.0,0.0,0.0,0.0,0.0,0.0,0.0,0.0,0.0,0.0,0.0,0.0,0.0,0.0,0.0,0.0,0.0,0.0,0.0,0.0,0.0,0.0,0.0,0.0,0.0,0.0,0.0,0.0,0.0,0.0,0.0,0.0,0.0,0.0,0.0,0.0,0.0,0.0,0.0,0.0,0.0,0.0,0.0,0.0,0.0,0.0,0.0,0.0,0.0,0.0,0.0,0.0,0.0,0.0,0.0,0.0,0.0,0.0,0.0,0.0,0.0,0.0,0.0,0.0,0.0,0.0,0.0,0.0,0.0,0.0,0.0,0.0,0.0,0.0,0.0,0.0,0.0,0.0,-4.2434,-4.4147,-4.5995,-4.8139,-5.0343,-5.1891,-5.2428,-5.2079,-5.016,-4.6196,0.0,0.0,0.0,0.0,0.0,0.0,0.0,0.0,0.0,0.0,0.0,0.0,0.0,0.0,0.0,0.0,0.0,0.0,0.0,0.0,0.0,0.0,0.0,0.0,0.0,0.0,0.0,0.0,0.0,0.0,0.0,0.0,0.0,0.0,0.0,0.0,0.0,0.0,0.0,0.0,0.0,0.0,0.0,0.0,0.0,0.0,0.0,0.0,0.0,0.0,0.0,0.0,0.0,0.0,0.0,0.0,0.0,0.0,0.0,0.0,0.0,0.0,0.0,0.0,0.0,0.0,0.0,0.0,0.0,0.0,0.0,0.0,0.0,0.0,0.0,0.0,0.0,0.0,0.0,0.0,0.0,0.0,0.0,0.0,0.0,0.0,0.0,0.0,0.0,0.0,0.0,0.0,0.0,0.0,0.0,0.0,0.0,0.0,0.0,0.0,0.0,0.0,-4.1616,-4.3714,-4.5901,-4.7817,-5.0058,-5.1652,-5.2145,-4.9581,-4.6733,0.0,0.0,0.0,0.0,0.0,0.0,0.0,0.0,0.0,0.0,0.0,0.0,0.0,0.0,0.0,0.0,0.0,0.0,0.0,0.0,0.0,0.0,0.0,0.0,0.0,0.0,0.0,0.0,0.0,0.0,0.0,0.0,0.0,0.0,0.0,0.0,0.0,0.0,0.0,0.0,0.0,0.0,0.0,0.0,0.0,0.0,0.0,0.0,0.0,0.0,0.0,0.0,0.0,0.0,0.0,0.0,0.0,0.0,0.0,0.0,0.0,0.0,0.0,0.0,0.0,0.0,0.0,0.0,0.0,0.0,0.0,0.0,0.0,0.0,0.0,0.0,0.0,0.0,0.0,0.0,0.0,0.0,0.0,0.0,0.0,0.0,0.0,0.0,0.0,0.0,0.0,0.0,0.0,0.0,0.0,0.0,0.0,0.0,0.0,0.0,0.0,0.0,0.0,-4.1399,-4.3448,-4.5258,-4.6311,-4.8341,-4.974,-4.9855,-4.8557,-4.6361,-4.3102,0.0,0.0,0.0,0.0,0.0,0.0,0.0,0.0,0.0,0.0,0.0,0.0,0.0,0.0,0.0,0.0,0.0,0.0,0.0,0.0,0.0,0.0,0.0,0.0,0.0,0.0,0.0,0.0,0.0,0.0,0.0,0.0,0.0,0.0,0.0,0.0,0.0,0.0,0.0,0.0,0.0,0.0,0.0,0.0,0.0,0.0,0.0,0.0,0.0,0.0,0.0,0.0,0.0,0.0,0.0,0.0,0.0,0.0,0.0,0.0,0.0,0.0,0.0,0.0,0.0,0.0,0.0,0.0,0.0,0.0,0.0,0.0,0.0,0.0,0.0,0.0,0.0,0.0,0.0,0.0,0.0,0.0,0.0,0.0,0.0,0.0,0.0,0.0,0.0,0.0,0.0,0.0,0.0,0.0,0.0,0.0,0.0,0.0,0.0,0.0,0.0,0.0,-4.1293,-4.3081,-4.4632,-4.5666,-4.7375,-4.824,-4.7638,-4.7123,-4.5218,-4.1549,0.0,0.0,0.0,0.0,0.0,0.0,0.0,0.0,0.0,0.0,0.0,0.0,0.0,0.0,0.0,0.0,0.0,0.0,0.0,0.0,0.0,0.0,0.0,0.0,0.0,0.0,0.0,0.0,0.0,0.0,0.0,0.0,0.0,0.0,0.0,0.0,0.0,0.0,0.0,0.0,0.0,0.0,0.0,0.0,0.0,0.0,0.0,0.0,0.0,0.0,0.0,0.0,0.0,0.0,0.0,0.0,0.0,0.0,0.0,0.0,0.0,0.0,0.0,0.0,0.0,0.0,0.0,0.0,0.0,0.0,0.0,0.0,0.0,0.0,0.0,0.0,0.0,0.0,0.0,0.0,0.0,0.0,0.0,0.0,0.0,0.0,0.0,0.0,0.0,0.0,0.0,0.0,0.0,0.0,0.0,0.0,0.0,0.0,0.0,0.0,0.0,0.0,-4.1114,-4.2525,-4.3928,-4.5255,-4.6754,-4.6964,-4.5511,-4.5464,-4.3731,-3.9619,0.0,0.0,0.0,0.0,0.0,0.0,0.0,0.0,0.0,0.0,0.0,0.0,0.0,0.0,0.0,0.0,0.0,0.0,0.0,0.0,0.0,0.0,0.0,0.0,0.0,0.0,0.0,0.0,0.0,0.0,0.0,0.0,0.0,0.0,0.0,0.0,0.0,0.0,0.0,0.0,0.0,0.0,0.0,0.0,0.0,0.0,0.0,0.0,0.0,0.0,0.0,0.0,0.0,0.0,0.0,0.0,0.0,0.0,0.0,0.0,-4.7781,-4.668,0.0,0.0,0.0,0.0,0.0,0.0,0.0,0.0,0.0,0.0,0.0,0.0,0.0,0.0,0.0,0.0,0.0,0.0,0.0,0.0,0.0,0.0,0.0,0.0,0.0,0.0,0.0,0.0,0.0,0.0,0.0,0.0,0.0,0.0,0.0,0.0,0.0,0.0,0.0,0.0,-4.0495,-4.1415,-4.2299,-4.3138,-4.4448,-4.4871,-4.3987,-4.4164,-4.2832,-3.9385,-3.8943,0.0,0.0,0.0,0.0,0.0,0.0,0.0,0.0,0.0,0.0,0.0,0.0,0.0,0.0,0.0,0.0,0.0,0.0,0.0,0.0,0.0,0.0,0.0,0.0,0.0,0.0,0.0,0.0,0.0,0.0,0.0,0.0,0.0,0.0,0.0,0.0,0.0,0.0,0.0,0.0,0.0,0.0,0.0,0.0,0.0,0.0,0.0,0.0,0.0,0.0,0.0,0.0,0.0,0.0,0.0,0.0,0.0,0.0,0.0,-4.9605,-4.8262,0.0,0.0,0.0,0.0,0.0,0.0,0.0,0.0,0.0,0.0,0.0,0.0,0.0,0.0,0.0,0.0,0.0,0.0,0.0,0.0,0.0,0.0,0.0,0.0,0.0,0.0,0.0,0.0,0.0,0.0,0.0,0.0,0.0,0.0,0.0,0.0,0.0,0.0,0.0,0.0,-4.0335,-4.1039,-4.1645,-4.1981,-4.3117,-4.3456,-4.244,-4.2996,-4.211,-3.9151,-3.8811,0.0,0.0,0.0,0.0,0.0,0.0,0.0,0.0,0.0,0.0,0.0,0.0,0.0,0.0,0.0,0.0,0.0,0.0,0.0,0.0,0.0,0.0,0.0,0.0,0.0,0.0,0.0,0.0,0.0,0.0,0.0,0.0,0.0,0.0,0.0,0.0,0.0,0.0,0.0,0.0,0.0,0.0,0.0,0.0,0.0,0.0,0.0,0.0,0.0,0.0,0.0,0.0,0.0,-5.56,-5.6078,-5.5077,-5.6434,-5.5897,-5.3754,-5.1949,-5.054,-4.9392,-4.8166,0.0,0.0,0.0,0.0,0.0,0.0,0.0,0.0,0.0,0.0,0.0,0.0,0.0,0.0,0.0,0.0,0.0,0.0,0.0,0.0,0.0,0.0,-4.5107,-4.4726,-4.5227,-4.5082,-4.2541,0.0,0.0,0.0,0.0,0.0,0.0,0.0,0.0,0.0,0.0,0.0,-3.9975,-4.064,-4.1059,-4.099,-4.2041,-4.2229,-4.0976,-4.1972,-4.1563,-3.9091,-3.878,-3.7813,0.0,0.0,0.0,0.0,0.0,0.0,0.0,0.0,0.0,0.0,0.0,0.0,0.0,0.0,0.0,0.0,0.0,0.0,0.0,0.0,0.0,0.0,0.0,0.0,0.0,0.0,0.0,0.0,0.0,0.0,0.0,0.0,-4.7369,-4.7927,0.0,0.0,0.0,0.0,0.0,0.0,0.0,0.0,0.0,0.0,0.0,0.0,0.0,-5.3394,-5.3904,-5.5848,-5.6789,-5.6789,-5.8658,-5.9558,-5.9618,-5.9167,-5.8164,-5.6731,-5.5973,0.0,-5.0966,-5.0783,0.0,0.0,0.0,0.0,0.0,0.0,0.0,0.0,0.0,0.0,0.0,0.0,0.0,0.0,0.0,0.0,0.0,0.0,0.0,0.0,0.0,0.0,-4.6586,-4.4732,-4.5049,-4.5536,-4.448,-4.3883,-4.3346,-4.2419,-4.1435,-4.0671,0.0,0.0,0.0,0.0,0.0,0.0,-3.8676,-3.9085,-3.9394,-3.9427,-4.0396,-4.0778,-4.0066,-4.1483,-4.1594,-3.9557,-3.9212,-3.8277,-3.6257,-3.5575,0.0,0.0,0.0,0.0,0.0,0.0,0.0,0.0,0.0,0.0,0.0,0.0,0.0,0.0,0.0,0.0,0.0,0.0,0.0,0.0,0.0,0.0,0.0,0.0,0.0,0.0,0.0,0.0,0.0,-4.6341,-4.8207,-4.7924,-4.8149,-4.7643,0.0,0.0,0.0,0.0,0.0,0.0,0.0,0.0,0.0,-5.5214,-5.5656,-5.6582,-5.8156,-5.9118,-5.9602,-5.962,-6.1272,-6.1875,-6.1565,-6.1677,-6.06,-5.8541,-5.8328,-5.6477,-5.3599,-5.1959,-5.0701,-4.9607,0.0,0.0,0.0,0.0,-4.4721,-4.4638,-4.6643,-4.6295,-4.5135,-4.6096,0.0,0.0,0.0,0.0,0.0,0.0,0.0,-4.3513,0.0,0.0,-4.6448,-4.6334,-4.6397,-4.6326,-4.6034,-4.5342,-4.4266,-4.2391,-4.2346,-4.2005,-3.9943,-3.9081,0.0,0.0,0.0,-3.8598,-3.8598,-3.8837,-3.8943,-3.8943,-3.9637,-4.0088,-4.0162,-4.0719,-4.0756,-3.9896,-3.9106,-3.7941,-3.6373,-3.5706,-3.5067,0.0,0.0,0.0,0.0,0.0,0.0,0.0,0.0,0.0,0.0,0.0,0.0,0.0,0.0,0.0,0.0,0.0,0.0,0.0,0.0,0.0,0.0,0.0,0.0,0.0,0.0,0.0,0.0,-4.8012,-4.9434,-4.8661,-5.0382,-5.0429,0.0,0.0,0.0,0.0,0.0,0.0,-5.3639,-5.4653,-5.6414,-5.913,-5.8968,-5.9701,-6.1544,-6.1863,-6.1945,-6.1897,-6.3231,-6.3565,-6.3003,-6.36,-6.2509,-6.0127,-5.9967,-5.8479,-5.5929,-5.344,-5.2059,-5.1313,-4.8945,-4.7785,-4.7438,-4.7255,-4.6825,-4.6692,-4.9094,-4.8597,-4.699,-4.7554,-4.6546,-4.4735,-4.2741,0.0,0.0,0.0,0.0,-4.3622,-4.4623,-4.5414,-4.6157,-4.7061,-4.6797,-4.6277,-4.6116,-4.5488,-4.4356,-4.2359,-4.2791,-4.2521,-3.9925,-3.9199,0.0,-3.8951,-3.8688,-3.8542,-3.8542,-3.8659,-3.8723,-3.8723,-3.9161,-3.9594,-4.0076,-4.0095,-4.0104,-4.0104,-3.9073,-3.7883,-3.662,-3.5952,-3.5227,-3.4428,0.0,0.0,0.0,0.0,0.0,0.0,0.0,0.0,0.0,0.0,0.0,0.0,0.0,0.0,0.0,0.0,0.0,0.0,0.0,0.0,0.0,0.0,0.0,0.0,0.0,0.0,0.0,0.0,0.0,-5.1874,-5.4088,0.0,0.0,0.0,0.0,-5.2844,-5.3738,-5.5058,-5.688,-5.8456,-5.9907,-6.1307,-6.204,-6.2552,-6.2804,-6.3583,-6.3793,-6.3477,-6.4285,-6.4636,-6.4601,-6.4653,-6.3519,-6.1449,-6.0882,-5.9463,-5.7396,-5.5963,-5.4179,-5.2241,-5.138,-5.0204,-4.8912,-4.8199,-4.7918,-4.8017,-4.8862,-4.8166,-4.7255,-4.9359,-4.8264,-4.6127,-4.5698,-4.4593,0.0,0.0,-4.4297,-4.5594,-4.5351,-4.5741,-4.6163,-4.5603,-4.5148,-4.4661,-4.4028,-4.3147,-4.2579,0.0,-4.183,-4.094,-4.0738,0.0,-3.7337,-3.8622,-3.8247,-3.7881,-3.7881,-3.8253,-3.8516,-3.8516,-3.8964,-3.9218,-3.9247,-3.977,-4.0104,-4.0104,-3.9509,-3.858,-3.7302,-3.662,-3.5677,-3.4428,-3.3819,0.0,0.0,0.0,0.0,0.0,0.0,0.0,0.0,0.0,0.0,0.0,0.0,0.0,0.0,0.0,0.0,0.0,0.0,0.0,0.0,0.0,0.0,0.0,0.0,0.0,0.0,0.0,0.0,-5.2909,-5.5918,0.0,-5.4447,-5.558,-5.6617,-5.6957,-5.8898,-6.0341,-6.1027,-6.2096,-6.307,-6.3788,-6.3872,-6.4064,-6.438,-6.4432,-6.4456,-6.432,-6.4583,-6.4724,-6.4688,-6.4214,-6.3135,-6.1536,-6.0453,-5.9072,-5.7537,-5.6146,-5.4891,-5.3649,-5.244,-5.138,-5.0419,-4.969,-4.9127,-4.8746,-4.9253,-4.8477,-4.7226,-4.7337,-4.6267,-4.4911,-4.4793,-4.4237,-4.3731,-4.404,-4.4283,-4.4511,-4.4818,-4.4452,-4.4024,-4.423,-4.3807,-4.3342,-4.3105,-4.2769,-4.237,-4.1695,-4.1025,-4.0365,-3.9443,-3.8805,-3.8385,-3.8577,-3.8292,-3.8091,-3.8091,-3.8206,-3.8277,-3.8277,-3.8495,-3.8565,-3.8565,-3.8405,-3.8304,-3.8304,-3.7694,-3.6954,-3.6083,-3.5836,-3.5299,-3.4428,-3.4196,-3.3877,0.0,0.0,0.0,0.0,0.0,0.0,0.0,0.0,0.0,0.0,0.0,0.0,0.0,0.0,0.0,0.0,0.0,0.0,0.0,0.0,0.0,0.0,0.0,0.0,0.0,-5.2453,-5.5402,-5.4121,-5.7839,-5.9549,-5.7141,-5.9028,-6.0447,-6.0562,-6.2767,-6.4166,-6.4396,-6.5294,-6.5803,-6.5689,-6.5375,-6.5113,-6.5011,-6.4843,-6.4724,-6.4724,-6.446,-6.4337,-6.4302,-6.353,-6.2556,-6.1448,-6.0129,-5.8979,-5.7741,-5.6204,-5.5189,-5.4394,-5.3202,-5.2291,-5.1562,-5.0833,-5.0104,-4.9407,-4.9017,-4.8155,-4.7069,-4.6241,-4.55,-4.4857,-4.4804,-4.4595,-4.4496,-4.4954,-4.4764,-4.4464,-4.467,-4.4053,-4.3374,-4.3374,-4.3026,-4.2616,-4.2363,-4.203,-4.1532,-4.0655,-4.0395,-4.0028,-3.9197,-3.8929,-3.8865,-3.8779,-3.8429,-3.8202,-3.8202,-3.8202,-3.8202,-3.8202,-3.8028,-3.7897,-3.7897,-3.7535,-3.7201,-3.6983,-3.6765,-3.6257,-3.547,-3.5427,-3.5067,-3.4428,-3.4196,-3.379,-3.3151,0.0,0.0,0.0,0.0,0.0,0.0,0.0,0.0,0.0,0.0,0.0,0.0,0.0,0.0,0.0,0.0,0.0,0.0,0.0,0.0,0.0,0.0,0.0,-5.1066,-5.4261,-5.6438,-5.5771,-5.992,-6.1888,-5.9405,-6.1499,-6.3126,-6.3502,-6.4929,-6.6119,-6.6781,-6.7904,-6.802,-6.6892,-6.6563,-6.5805,-6.4724,-6.4724,-6.4724,-6.4706,-6.3951,-6.36,-6.3565,-6.2722,-6.1967,-6.1218,-6.0082,-5.9125,-5.8249,-5.6362,-5.514,-5.4411,-5.3699,-5.297,-5.2258,-5.1512,-5.0783,-4.987,-4.798,-4.715,-4.6807,-4.6442,-4.6285,-4.623,-4.5832,-4.5776,-4.5776,-4.576,-4.5728,-4.5555,-4.4828,-4.4638,-4.429,-4.2963,-4.2663,-4.2457,-4.1746,-4.0737,-3.9905,-3.9905,-3.9889,-3.9888,-3.9951,-3.8956,-3.842,-3.9073,-3.8623,0.0,-3.8202,-3.8202,-3.8202,-3.8202,-3.768,-3.7317,-3.7273,-3.7273,-3.6983,-3.6286,-3.6867,-3.6649,-3.5456,-3.5343,-3.5038,-3.4428,-3.3819,-3.318,-3.2542,0.0,0.0,0.0,0.0,0.0,0.0,0.0,0.0,0.0,0.0,0.0,0.0,0.0,0.0,0.0,0.0,0.0,0.0,0.0,0.0,0.0,-5.0135,-5.2786,-5.2576,-5.5894,-5.8685,-5.9598,-6.1366,-6.2714,-6.3091,-6.4023,-6.4936,-6.5893,-6.6339,-6.6799,-6.7274,-6.7338,-6.6874,-6.5681,-6.5597,-6.5241,-6.4724,-6.4724,-6.4724,-6.4706,-6.3951,-6.36,-6.3547,-6.2213,-6.1494,-6.1165,-5.9317,-5.8136,-5.7413,-5.5437,-5.4245,-5.3699,-5.35,-5.2655,-5.1496,-5.0767,-4.9349,-4.7704,-4.6851,-4.6388,-4.608,-4.5992,-4.5936,-4.5825,-4.5175,-4.5017,-4.4907,-4.4433,-4.3943,-4.35,-4.3295,-4.2837,-4.2347,-4.1983,-4.1889,-4.1841,-4.1636,-4.1039,-4.0562,-4.0562,-3.9864,-3.9207,-3.8795,-3.8393,-3.826,-3.8449,-3.8318,0.0,-3.8202,-3.8202,-3.8202,-3.8202,-3.8057,-3.7593,-3.6664,-3.6577,-3.6112,-3.5009,-3.5111,-3.5053,-3.469,-3.4675,-3.4588,-3.4414,-3.424,-3.3848,0.0,0.0,0.0,0.0,0.0,0.0,0.0,0.0,0.0,0.0,0.0,0.0,0.0,0.0,0.0,0.0,0.0,0.0,0.0,0.0,0.0,0.0,-5.2312,-5.4858,-5.5525,-5.8386,-6.0756,-6.1652,-6.2705,-6.3773,-6.4806,-6.5261,-6.5778,-6.6363,-6.6922,-6.7201,-6.7285,-6.7231,-6.6723,-6.5707,-6.5573,-6.5228,-6.4724,-6.4408,-6.425,-6.4232,-6.3144,-6.2635,-6.2582,-6.1353,-6.0633,-6.0218,-5.8522,-5.738,-5.6645,-5.471,-5.369,0.0,0.0,0.0,0.0,0.0,-4.8282,-4.6598,-4.6356,-4.6048,-4.5807,-4.5807,-4.5602,-4.527,-4.4843,-4.4512,-4.4211,-4.3832,-4.3437,-4.3058,-4.2758,-4.2363,-4.1968,-4.1652,-4.1588,-4.1588,-4.1588,-4.0972,-4.0424,-4.0424,-3.9508,0.0,-3.8277,-3.8202,-3.8202,-3.8202,-3.8202,-3.8202,-3.8202,-3.7984,-3.7825,-3.7825,-3.7578,-3.7114,-3.6373,-3.6301,0.0,0.0,0.0,-3.469,-3.4428,-3.4414,0.0,0.0,0.0,-3.424,-3.3862,-3.3862,0.0,0.0,-3.2471,-3.1998,0.0,0.0,0.0,0.0,0.0,0.0,0.0,0.0,0.0,0.0,0.0,0.0,0.0,0.0,0.0,0.0,-5.4472,-5.7,-5.8527,-6.0633,-6.2073,-6.2248,-6.3477,-6.4526,-6.4986,-6.5404,-6.5752,-6.59,-6.6861,-6.7256,-6.6946,-6.7167,0.0,0.0,0.0,-6.5408,-6.4724,-6.3969,-6.36,-6.3565,-6.2038,-6.13,-6.1265,-6.0458,-5.9685,-5.8857,-5.7754,-5.6799,-5.586,-5.4071,-5.3274,-5.292,-5.1645,-5.1028,-5.078,-4.8964,-4.7394,-4.6285,-4.623,0.0,0.0,-4.5697,-4.5191,-4.4591,-4.4512,-4.4069,-4.3595,-4.3516,-4.3485,-4.3342,-4.2726,-4.2568,-4.2394,-4.1746,-4.1588,-4.1588,-4.1588,-4.0668,-3.9889,-3.9889,-3.8987,-3.8202,-3.8202,-3.8202,-3.8188,-3.8115,-3.8101,-3.8072,-3.7999,-3.752,-3.7201,-3.7201,0.0,0.0,-3.6199,-3.6199,-3.5923,-3.5299,-3.5256,-3.5009,-3.4428,-3.4414,-3.4414,-3.4414,-3.4341,-3.4312,-3.423,-3.423,-3.4163,-3.4066,-3.2857,-3.2207,0.0,0.0,0.0,0.0,0.0,0.0,0.0,0.0,0.0,0.0,0.0,0.0,0.0,0.0,0.0,-5.0908,-5.3699,-5.6034,-5.6947,-5.8562,-6.0124,-6.1353,-6.1774,-6.2441,-6.3805,-6.427,-6.5065,-6.6542,-6.6346,-6.6381,-6.6874,-6.6119,-6.5467,-6.5072,-6.4952,-6.4882,-6.4724,-6.3969,-6.36,-6.3565,-6.2038,0.0,-6.1265,-6.0458,-5.9476,-5.8337,-5.7465,-5.6164,-5.4616,-5.3581,-5.2246,-5.0731,-5.0138,-4.9592,-4.8813,-4.7308,-4.6538,-4.623,-4.5992,-4.5484,-4.4922,-4.4922,-4.4464,-4.3801,-4.3248,-4.2995,0.0,-4.2173,-4.1999,-4.1968,-4.1841,-4.1794,-4.1762,-4.162,-4.1588,-4.1588,-4.1588,-4.0668,-3.9889,-3.9889,-3.8987,-3.8202,-3.8202,-3.8202,-3.8028,-3.7549,-3.7476,-3.7288,-3.6751,-3.6577,-3.6504,-3.6504,-3.6388,-3.6098,-3.559,-3.5546,-3.527,-3.4632,-3.4588,-3.4545,-3.4414,-3.4414,-3.4414,-3.4414,-3.3906,-3.3512,-3.3298,-3.3231,-3.2798,-3.2083,-3.2091,-3.2109,0.0,0.0,0.0,0.0,0.0,0.0,0.0,0.0,0.0,0.0,0.0,-4.322,-4.4884,0.0,-5.0415,-5.2822,-5.4507,-5.5911,-5.7035,-5.7895,-5.8843,-6.0019,-6.0826,-6.1664,-6.2599,-6.3571,-6.448,-6.5439,-6.5492,-6.5604,-6.5778,-6.4937,-6.433,-6.4144,-6.3758,-6.3547,-6.3547,-6.281,-6.2441,-6.2424,-6.1248,-6.051,-6.0142,-5.9447,-5.8368,-5.698,-5.6059,-5.4907,-5.365,-5.302,-5.1602,-4.9826,-4.9458,-4.8649,-4.757,-4.6641,-4.6159,-4.6064,-4.588,-4.5333,-4.4717,-4.4717,-4.4022,-4.3137,-4.2789,-4.2426,-4.2062,-4.1699,-4.1588,-4.1588,-4.1588,-4.1588,-4.1588,-4.1588,-4.1588,-4.1588,-4.1588,-4.0956,-4.0178,-3.9564,-3.8996,-3.837,-3.7434,-3.7535,-3.7651,-3.736,-3.7012,-3.6693,-3.6344,-3.604,-3.5836,-3.5836,-3.5836,-3.5706,-3.547,-3.5427,-3.4951,-3.3993,-3.424,-3.4124,-3.3485,-3.3775,-3.3723,-3.3192,-3.2875,-3.2571,-3.2241,-3.1946,-3.1595,-3.1103,-3.0913,-3.0976,0.0,0.0,0.0,0.0,0.0,0.0,0.0,-3.9629,-4.0151,-4.102,-4.2961,-4.5059,-4.7032,-4.8827,-5.1169,-5.4524,-5.5051,-5.5543,-5.6929,-5.7,-5.714,-5.7807,-5.9633,-6.1026,-6.1449,-6.2663,-6.3548,-6.3849,-6.448,-6.4756,-6.4614,-6.4192,-6.3878,-6.3811,-6.3038,-6.2617,-6.2617,-6.1581,-6.1072,-6.1055,-6.0107,-5.9271,-5.8566,-5.8146,-5.7105,-5.5516,-5.4449,-5.3562,-5.2905,-5.2271,-5.1107,-4.9653,-4.8952,-4.7912,-4.6807,-4.6388,-4.6048,-4.5807,-4.5807,-4.5238,-4.4527,-4.4527,-4.3595,-4.2473,-4.2473,-4.2062,-4.1588,-4.1588,-4.1588,-4.1588,-4.1588,-4.1588,-4.1588,-4.1588,-4.1494,-4.1399,-4.1399,-4.0892,-4.0059,-3.8842,-3.8577,-3.794,-3.6212,-3.6286,-3.6649,-3.6896,-3.6475,-3.6083,-3.5952,-3.5503,-3.5183,-3.5183,-3.5183,-3.5125,-3.5078,-3.5063,-3.4501,-3.3289,-3.3694,-3.344,-3.2364,-3.2811,-3.2694,-3.1917,-3.1789,-3.1523,-3.118,-3.0687,-3.0337,-3.0147,-2.9516,-2.9661,-3.4524,-3.5703,-3.7374,-3.8857,-3.8886,-3.9171,0.0,-4.1778,-4.1731,-4.309,-4.5049,-4.6666,-4.7194,-4.9546,-5.1817,-5.3204,-5.3436,-5.3734,-5.4577,-5.4121,-5.3734,-5.3822,-5.7052,-5.951,-6.0223,-6.0688,-6.1547,-6.2928,-6.3405,-6.376,-6.4137,-6.4703,-6.4888,-6.4601,-6.3846,-6.346,-6.346,-6.1318,-6.023,-6.0212,-5.8755,-5.7734,-5.723,-5.7166,-5.6177,-5.443,-5.3181,-5.2582,-5.2329,-5.0982,-5.0284,-4.9934,-4.7916,-4.7022,-4.6823,-4.6136,-4.5807,-4.5807,-4.5807,-4.4954,-4.3832,-4.3832,-4.2868,-4.1715,-4.1715,-4.1652,-4.1588,-4.1588,-4.1588,-4.1588,-4.1588,-4.1588,-4.1588,-4.1588,-4.1146,-4.0704,-4.0704,-3.9747,-3.8589,-3.7456,-3.6835,-3.6035,-3.4801,-3.4225,-3.4283,-3.5415,-3.5517,-3.527,-3.4704,-3.4559,-3.4516,-3.4516,-3.4516,-3.4283,-3.3732,-3.3674,-3.3237,-3.2256,-3.2219,-3.206,-3.1641,-3.1712,-3.1646,-3.1575,-3.0946,-3.0507,-3.0197,-2.9656,-2.8917,-2.8118,-2.8257,-2.8718,-3.4663,-3.615,-3.7763,-3.8451,-3.9188,-4.004,-4.1209,-4.1873,-4.2505,-4.35,-4.5581,-4.752,-4.845,-5.0146,-5.1964,-5.3589,-5.3471,-5.3612,-5.484,-5.4331,-5.384,-5.384,-5.6473,-5.807,-5.7491,-5.9529,-6.1059,-6.1512,-6.2693,-6.3627,-6.4061,-6.3758,-6.3471,-6.3354,-6.2178,-6.1546,-6.1546,-6.0159,-5.9457,-5.944,-5.7985,-5.701,-5.6322,-5.5718,-5.4583,-5.3128,-5.2184,-5.1744,-5.1661,-5.0393,-4.9509,-4.8789,-4.7664,-4.6827,-4.6207,-4.5936,-4.5807,-4.5807,-4.5807,-4.4891,-4.3722,-4.3722,-4.2758,-4.1588,-4.1588,-4.1588,-4.1588,-4.1588,-4.1588,-4.1588,-4.1588,-4.1588,-4.1588,-4.1588,-4.1083,-4.0609,-4.0609,-3.9311,-3.7805,-3.6618,-3.5964,-3.5126,-3.3536,-3.3398,-3.3529,-3.3688,-3.4022,-3.4298,-3.4399,-3.4414,-3.4414,-3.4414,-3.4095,-3.3746,-3.3485,-3.2992,-3.2292,-3.1454,-3.1639,-3.1316,-3.0403,-3.0763,-3.0648,-3.0118,-2.9853,-2.938,-2.8716,-2.8186,-2.7579,-2.6861,-2.6902,-2.7115,-3.4154,-3.5738,-3.725,-3.7685,-3.9014,-4.0339,-4.0783,-4.181,-4.2932,-4.3785,-4.574,-4.7638,-4.8921,-5.0127,-5.1587,-5.3677,-5.3348,-5.3401,-5.4963,-5.4489,-5.3998,-5.3998,-5.5935,-5.6751,-5.5432,-5.8467,-6.0413,-6.0291,-6.1849,-6.2985,-6.3312,-6.2926,-6.2617,-6.2389,-6.1107,-6.0423,-6.0423,-5.9264,-5.8605,-5.8444,-5.7034,-5.5934,-5.5077,-5.4228,-5.3265,-5.234,-5.1595,-5.128,-5.1197,-4.9977,-4.8924,-4.8069,-4.7506,-4.671,-4.5936,-4.5807,-4.5681,-4.5476,-4.5302,-4.4448,-4.3437,-4.3437,-4.26,-4.1588,-4.1588,-4.1588,-4.1588,-4.1588,-4.1462,-4.1367,-4.1541,-4.1304,-4.1067,-4.1272,-4.0656,-3.9897,-3.9645,-3.831,-3.6755,-3.5275,-3.4685,-3.3962,-3.229,-3.2367,-3.2571,-3.228,-3.2629,-3.3224,-3.4051,-3.423,-3.4206,-3.4033,-3.3532,-3.3048,-3.2688,-3.2033,-3.1297,-3.0531,-3.067,-3.0401,-2.9394,-2.9756,-2.9656,-2.8986,-2.8844,-2.8444,-2.7776,-2.7108,-2.6564,-2.6164,-2.5995,-2.5877,-3.2472,-3.3768,-3.5258,-3.6838,-3.829,-3.9707,-4.1257,-4.2141,-4.3058,-4.4401,-4.5556,-4.6765,-4.8072,-4.9188,-5.0657,-5.2888,-5.2558,-5.2576,-5.4121,-5.3699,-5.3208,-5.3208,-5.4864,-5.5671,-5.4892,-5.7374,-5.9143,-5.9416,-6.0632,-6.1353,-6.1371,-6.2757,-6.3196,-6.2406,-6.1652,-6.1265,-6.1265,-5.8983,-5.7576,-5.7062,-5.549,-5.4222,-5.3145,-5.2657,-5.2478,-5.234,-5.1595,-5.128,-5.1164,-4.9723,-4.8892,-4.8368,-4.7322,-4.6684,-4.623,-4.5936,-4.5365,-4.4654,-4.4006,-4.3327,-4.271,-4.271,-4.2205,-4.1588,-4.1588,-4.1588,-4.1588,-4.1588,-4.113,-4.0783,-4.1415,-4.0577,-3.974,-4.0467,-3.9582,-3.8259,-3.7156,-3.6304,-3.5091,-3.2826,-3.2407,-3.2004,-3.0862,-3.064,-3.0858,-3.1467,-3.1569,-3.2048,-3.3325,-3.3686,-3.3611,-3.3078,-3.2709,-3.1931,-3.0707,-3.058,-3.0121,-2.9232,-2.914,-2.9013,-2.8665,-2.8678,-2.8665,-2.8587,-2.8118,-2.7855,-2.7776,-2.6769,-2.6233,-2.6164,-2.5606,-2.5336,-3.2213,-3.3565,-3.5072,-3.6615,-3.8132,-3.9581,-4.0719,-4.1841,-4.2821,-4.3279,-4.4235,-4.523,-4.6002,-4.7892,-4.9833,-5.1433,-5.2295,-5.3331,-5.4893,-5.4893,-5.4524,-5.398,-5.6488,-5.7375,-5.5257,-5.7504,-5.9113,-5.9245,-6.0398,-6.1566,-6.2612,-6.2317,-6.2161,-6.2371,-6.116,-6.0265,-5.9791,-5.8107,-5.6929,-5.6218,-5.4456,-5.3264,-5.2624,-5.2445,-5.2373,-5.2307,-5.1098,-5.0568,-5.0383,-4.8472,-4.7593,-4.7355,-4.65,-4.608,-4.5809,-4.4764,-4.4259,-4.4053,-4.4306,-4.3643,-4.2695,-4.2695,-4.2189,-4.1588,-4.1588,-4.1588,-4.1588,-4.1588,-4.143,-4.1209,-4.0988,-4.0577,-4.0166,-3.9929,-3.9171,-3.8383,-3.8025,-3.6195,-3.4377,-3.3577,-3.2184,-3.107,-3.0671,-3.0568,-3.064,-3.0858,-3.1426,-3.2148,-3.301,-3.2592,-3.2334,-3.2613,-3.173,-3.1002,-3.0516,-2.9931,-2.9434,-2.9113,-2.8908,-2.8716,-2.8587,-2.8587,-2.8587,-2.8587,-2.8052,-2.7643,-2.7242,-2.6564,-2.6013,-2.5594,-2.5382,-2.5312,-3.1376,-3.2485,-3.3773,-3.5424,-3.7057,-3.8638,-3.9929,-4.1099,-4.2078,-4.2584,-4.3331,-4.4125,-4.484,-4.6954,-4.8861,-4.9907,-5.1347,-5.2997,-5.4823,-5.4899,-5.5067,-5.5648,-5.7588,-5.8289,-5.6778,-5.8251,-5.9276,-5.9167,-6.059,-6.1807,-6.2556,-6.1884,-6.1548,-6.1759,-6.0417,-5.9492,-5.9001,-5.7393,-5.6055,-5.4892,-5.35,-5.2677,-5.2373,-5.2373,-5.2241,-5.1926,-5.0734,-5.0055,-4.9655,-4.8013,-4.7167,-4.6876,-4.6349,-4.6008,-4.5665,-4.4512,-4.3911,-4.3674,-4.3611,-4.3026,-4.2299,-4.2299,-4.181,-4.1241,-4.1241,-4.1051,-4.0846,-4.0846,-4.0672,-4.0451,-4.0261,-3.985,-3.9424,-3.9202,-3.8634,-3.8004,-3.7372,-3.5707,-3.4091,-3.3246,-3.1942,-3.0843,-3.0611,-3.0568,-3.0582,-3.0462,-3.0845,-3.1482,-3.2454,-3.1815,-3.145,-3.1842,-3.0842,-3.0081,-2.9859,-2.9242,-2.8908,-2.8908,-2.8716,-2.8587,-2.8587,-2.8587,-2.8587,-2.8587,-2.7921,-2.731,-2.6973,-2.622,-2.5664,-2.5312,-2.5312,-2.5312,-3.0093,-3.0745,-3.1579,-3.35,-3.5208,-3.6987,-3.9062,-4.0072,-4.0972,-4.2315,-4.2847,-4.3492,-4.459,-4.6425,-4.7871,-4.8452,-4.9943,-5.1786,-5.405,-5.4052,-5.4892,-5.7848,-5.8226,-5.8448,-5.9185,-5.9582,-5.9654,-5.9275,-6.1019,-6.1807,-6.1182,-6.1485,-6.1335,-6.0565,-5.9575,-5.8966,-5.8815,-5.6756,-5.4809,-5.2992,-5.2574,-5.2307,-5.2274,-5.2224,-5.1843,-5.1181,-5.0419,-4.9723,-4.9044,-4.8299,-4.7521,-4.6876,-4.6844,-4.6356,-4.5665,-4.4891,-4.4196,-4.3421,-4.2062,-4.1588,-4.1588,-4.1541,-4.1114,-4.0593,-4.0561,-4.0056,-3.9518,-3.955,-3.9108,-3.876,-3.9345,-3.857,-3.778,-3.8381,-3.8033,-3.7131,-3.5493,-3.5064,-3.4346,-3.205,-3.1511,-3.1279,-3.0684,-3.0568,-3.0462,-3.0111,-2.9803,-3.0087,-3.1596,-3.1212,-3.0825,-3.0853,-2.9982,-2.9197,-2.8641,-2.8587,-2.8587,-2.8587,-2.8587,-2.8587,-2.8587,-2.8587,-2.8522,-2.8522,-2.751,-2.6973,-2.6973,-2.5861,-2.5312,-2.5312,-2.5312,-2.5312,-3.0323,-3.0784,-3.1772,-3.3981,-3.5349,-3.669,-3.8984,-4.0072,-4.0704,-4.1051,-4.159,-4.2149,-4.2484,-4.4765,-4.721,-4.91,-5.1189,-5.3208,-5.4963,-5.5799,-5.6502,-5.7299,-5.9316,-6.0462,-6.012,-6.1407,-6.1969,-6.1335,-6.0968,-6.1247,-6.2269,-6.1652,-6.0892,-6.0036,-5.9567,-5.8307,-5.6136,-5.4548,-5.3095,-5.1738,-5.1615,-5.128,-5.075,-5.0187,-5.0137,-5.0419,-4.9127,-4.8779,-4.9044,-4.8001,-4.7286,-4.6828,-4.6035,-4.541,-4.4843,-4.3643,-4.309,-4.2805,-4.1904,-4.1588,-4.1509,-4.102,-4.0735,-4.0498,-3.9945,-3.9645,-3.9613,-4.0166,-4.0198,-3.9977,-3.9598,-3.9645,-3.9582,-3.8728,-3.876,-3.8606,-3.7312,-3.6335,-3.515,-3.3223,-3.176,-3.071,-3.0323,-3.0233,-3.0111,-2.9803,-2.9415,-2.9503,-3.0383,-2.9701,-2.9343,-2.9779,-2.9236,-2.8763,-2.86,-2.8587,-2.8587,-2.8587,-2.8587,-2.8587,-2.8587,-2.8197,-2.7987,-2.7987,-2.6973,-2.6427,-2.6427,-2.5652,-2.5312,-2.5312,-2.5312,-2.5312,-3.1185,-3.1439,-3.2103,-3.4168,-3.5289,-3.6488,-3.856,-3.9613,-4.0182,-4.0325,-4.0642,-4.0995,-4.1359,-4.3907,-4.6442,-4.7908,-5.0417,-5.2895,-5.4891,-5.5777,-5.6822,-5.8324,-6.0118,-6.1151,-6.1135,-6.1715,-6.2241,-6.2512,-6.1605,-6.1422,-6.2341,-6.1086,-6.0086,-5.9538,-5.8314,-5.6529,-5.4245,-5.3467,-5.2652,-5.1744,-5.1115,-5.0767,-5.0651,-4.9591,-4.9342,-4.9674,-4.8845,-4.8464,-4.8297,-4.7652,-4.7066,-4.6518,-4.5635,-4.5069,-4.4543,-4.3184,-4.2489,-4.211,-4.1399,-4.0941,-4.0719,-4.0956,-4.0846,-4.0467,-3.9724,-3.9297,-3.9092,-3.9202,-3.9455,-3.9582,-3.9171,-3.9598,-3.9835,-3.8776,-3.8792,-3.8685,-3.7201,-3.6313,-3.5075,-3.2893,-3.119,-3.0097,-2.9927,-2.9865,-2.9803,-2.9415,-2.9226,-2.9256,-2.9717,-2.9315,-2.9102,-2.9442,-2.9184,-2.8872,-2.8614,-2.8587,-2.8587,-2.8587,-2.8587,-2.8587,-2.8587,-2.8052,-2.7776,-2.7776,-2.6769,-2.6233,-2.6233,-2.5594,-2.5312,-2.5312,-2.5312,-2.5312,-3.2246,-3.2358,-3.2601,-3.4222,-3.5435,-3.6562,-3.801,-3.895,-3.9518,-3.9668,-3.9884,-4.0194,-4.0912,-4.3426,-4.5681,-4.649,-4.9099,-5.195,-5.4874,-5.5436,-5.6797,-6.0102,-6.0774,-6.1299,-6.2096,-6.1534,-6.1697,-6.3092,-6.2458,-6.206,-6.2168,-6.0608,-5.9508,-5.8958,-5.6379,-5.4413,-5.3111,-5.3043,-5.275,-5.2224,-5.0866,-5.0485,-5.0932,-4.9475,-4.8862,-4.8961,-4.8862,-4.8282,-4.7488,-4.7404,-4.6932,-4.6147,-4.5491,-4.4878,-4.429,-4.3011,-4.2141,-4.1509,-4.0925,-4.0309,-3.9929,-4.0877,-4.0798,-4.0182,-3.9455,-3.8839,-3.827,-3.7765,-3.8049,-3.8507,-3.8507,-3.9013,-3.9329,-3.8665,-3.8586,-3.8183,-3.6392,-3.5454,-3.4257,-3.1792,-3.0389,-2.9602,-2.954,-2.954,-2.9415,-2.9099,-2.9035,-2.9127,-2.9467,-2.9482,-2.9482,-2.9482,-2.9482,-2.9238,-2.8641,-2.8587,-2.8587,-2.8587,-2.8587,-2.8587,-2.8587,-2.8052,-2.7709,-2.7709,-2.662,-2.6082,-2.6082,-2.5594,-2.5312,-2.5312,-2.5312,-2.5312,-3.2946,-3.3114,-3.3443,-3.4881,-3.6199,-3.7243,-3.7557,-3.8618,-3.9233,-3.8435,-3.917,-4.0194,-4.0948,-4.2533,-4.4883,-4.8504,-5.0277,-5.275,-5.7091,-5.758,-5.8448,-6.1094,-6.1623,-6.2114,-6.2911,-6.2856,-6.2893,-6.3164,-6.2458,-6.2295,-6.2947,-6.2057,-6.0526,-5.8277,-5.4852,-5.3073,-5.3111,-5.2677,-5.22,-5.1462,-5.0618,-4.9955,-4.9425,-4.7951,-4.7603,-4.8166,-4.7554,0.0,-4.7853,-4.7555,-4.6776,-4.5785,-4.4821,-4.3874,-4.2932,-4.2094,-4.1699,-4.1573,-4.1462,-4.1336,-4.0988,-3.9518,-3.8965,-3.8744,-3.8033,-3.7749,-3.7749,-3.8207,-3.8428,-3.8507,-3.8507,-3.9013,-3.9329,-3.8665,-3.8934,-3.8874,-3.7174,-3.4579,-3.2263,-3.1247,-3.027,-2.9477,-2.9226,-2.9162,-2.9099,-2.8716,-2.8716,-2.8869,-2.9401,-2.9482,-2.9482,-2.9482,-2.9482,-2.9238,-2.8641,-2.8587,-2.8587,-2.8587,-2.8587,-2.8587,-2.8587,-2.7643,-2.7108,-2.7108,-2.6,-2.5453,-2.5453,-2.5382,-2.5312,-2.5312,-2.5312,-2.5312,-3.4639,-3.4881,-3.5093,-3.6043,-3.7248,-3.8098,-3.7686,-3.8874,-3.9802,-3.8942,-3.9226,-3.9949,-4.0841,-4.2091,-4.3921,-4.6585,-4.908,-5.181,-5.5061,-5.6958,-5.8628,-6.0359,-6.1389,-6.2168,-6.2549,-6.2585,-6.2748,-6.3164,-6.2458,-6.2186,-6.2549,-6.0723,-5.8655,-5.6495,-5.394,-5.2624,-5.2747,-5.2499,-5.2208,-5.1827,-5.0353,-4.9657,-4.9624,-4.7752,-4.7305,-4.7984,-4.7636,-4.7308,-4.7128,-4.6914,-4.609,-4.4857,-4.4032,-4.3317,-4.26,-4.1857,-4.1367,-4.102,-4.064,-4.0498,-4.023,-3.8523,-3.8713,-3.9408,-3.8333,-3.8017,-3.8002,-3.7986,-3.8239,-3.8507,-3.8507,-3.9013,-3.9266,-3.8325,-3.7669,-3.6896,-3.5599,-3.355,-3.1718,-3.0693,-2.9883,-2.9226,-2.8908,-2.8844,-2.878,-2.8587,-2.8587,-2.8804,-2.9401,-2.9754,-2.9957,-2.9957,-3.0242,-3.0052,-2.9129,-2.9048,-2.8912,-2.8614,-2.8587,-2.8457,-2.8183,-2.7157,-2.6598,-2.6552,-2.5453,-2.5035,-2.5312,-2.5312,-2.5312,-2.5312,-2.5312,-2.5312,-3.6505,-3.6823,-3.704,-3.7393,-3.8452,-3.9176,-3.8126,-3.9386,-4.061,-3.9715,-3.9687,-4.0091,-4.1,-4.2038,-4.3254,-4.4782,-4.7656,-5.0688,-5.3596,-5.6221,-5.8447,-6.0141,-6.1353,-6.2023,-6.2023,-6.2023,-6.2277,-6.2893,-6.2204,-6.1697,-6.1569,-5.9011,-5.6767,-5.5086,-5.3498,-5.257,-5.2445,-5.2373,-5.2307,-5.2125,-5.0237,-4.9574,-4.9906,-4.8001,-4.7454,-4.7984,-4.7835,-4.7226,-4.6307,-4.6094,-4.5226,-4.3949,-4.3355,-4.2868,-4.2378,-4.181,-4.1178,-4.0514,-3.9945,-3.974,-3.9518,-3.8144,-3.8918,-4.0135,-3.8886,-3.8618,-3.857,-3.7891,-3.8081,-3.8476,-3.8333,-3.8681,-3.8842,-3.7919,-3.644,-3.4986,-3.409,-3.2976,-3.1744,-3.0474,-2.9752,-2.9251,-2.8869,-2.8777,-2.8736,-2.8614,-2.8587,-2.8804,-2.9401,-3.0025,-3.0459,-3.0581,-3.1015,-3.0798,-2.9577,-2.9482,-2.9224,-2.8627,-2.8587,-2.8392,-2.7842,-2.6765,-2.6146,-2.6046,-2.501,-2.4723,-2.5143,-2.5252,-2.5312,-2.5312,-2.5312,-2.5312,-3.8014,-3.8463,-3.8935,-3.8841,-3.9847,-4.0412,-3.8903,-4.0096,-4.1185,-3.979,-4.048,-4.1428,-4.1837,-4.2325,-4.3597,-4.6394,-4.7692,-5.0503,-5.667,-5.7381,-5.8691,-6.2422,-6.2349,-6.2023,-6.2023,-6.2023,-6.2041,-6.2114,-6.1371,-6.0684,-6.0125,-5.8549,-5.6972,-5.5335,-5.372,-5.2764,-5.2553,-5.2445,-5.2042,-5.1363,-5.0518,-4.979,-4.9177,-4.8299,-4.7934,-4.7968,-4.7289,-4.6764,0.0,-4.5342,-4.4316,-4.3277,-4.2897,-4.2351,-4.1683,-4.1604,-4.1178,-4.0593,-4.0514,-4.0498,-4.0277,-3.8871,-3.895,-3.9471,-3.8728,-3.8934,-3.9281,-3.8602,-3.846,-3.8365,-3.7733,-3.7622,-3.7676,-3.7732,-3.6526,-3.5283,-3.4654,-3.3531,-3.2263,-3.1046,-3.0528,-3.0133,-2.9496,-2.9401,-2.9211,-2.8668,-2.8587,-2.8804,-2.9401,-3.0025,-3.0622,-3.1151,-3.126,-3.0798,-2.9577,-2.9482,-2.9224,-2.8627,-2.8587,-2.8392,-2.7842,-2.6765,-2.5955,-2.5485,-2.4815,-2.4542,-2.459,-2.5071,-2.5312,-2.5312,-2.5312,-2.5312,-3.9625,-4.0437,-4.0953,-4.085,-4.1181,-4.1249,-4.0408,-4.146,-4.2328,-4.1309,-4.1803,-4.2458,-4.2302,-4.2303,-4.2805,-4.4421,-4.6059,0.0,-5.1838,-5.3929,-5.6391,-5.9887,-6.0466,-6.1136,-6.2585,-6.2295,-6.1641,-6.0783,-5.9993,-5.8899,-5.7395,-5.7122,-5.6274,-5.4711,-5.3484,-5.2616,-5.1958,-5.1765,-5.1562,-5.1264,-5.0104,-4.9392,-4.9077,-4.8349,-4.7769,-4.7322,-4.7023,-4.6203,0.0,-4.4624,-4.3702,-4.2525,-4.2411,-4.2039,-4.1588,-4.1588,-4.1415,-4.1067,-4.023,-4.023,-4.0293,-3.8476,-3.8618,-3.9297,-3.8223,-3.8065,-3.8223,-3.7954,-3.7891,-3.7828,-3.7559,-3.6776,-3.5921,-3.5539,-3.4857,-3.4074,-3.3143,-3.2901,-3.2469,-3.1128,-3.0773,-3.0459,-2.9644,-2.9482,-2.9279,-2.8682,-2.8587,-2.8682,-2.8912,-2.9482,-2.9944,-3.0174,-3.1178,-3.149,-3.0649,-3.0242,-2.9781,-2.9157,-2.8516,-2.7855,-2.731,-2.6302,-2.5627,-2.5335,-2.4824,-2.4675,-2.4987,-2.5204,-2.5312,-2.5312,-2.5312,-2.5312,-4.0808,-4.1942,-4.2727,-4.2727,-4.237,-4.1942,-4.2,-4.256,-4.2921,-4.2456,-4.2933,-4.3272,-4.2923,-4.2745,-4.2912,0.0,0.0,-4.7098,-4.9213,-5.1715,-5.4508,-5.7677,-5.8546,-5.9832,-6.2259,-6.2021,-6.1148,-5.9692,-5.8392,-5.687,-5.5035,-5.5113,-5.4834,-5.4025,-5.2859,-5.2048,-5.1593,-5.1187,-5.085,-5.0618,-4.9591,-4.8995,-4.8763,-4.8017,-4.7388,-4.6874,-4.6444,-4.5461,0.0,-4.384,-4.3055,-4.2109,-4.198,-4.1785,-4.1588,-4.1588,-4.1462,-4.113,-3.9914,-3.9835,-3.9977,-3.8081,-3.8128,-3.8728,-3.7765,-3.7765,-3.7986,-3.7591,-3.7322,-3.7212,-3.7417,-3.6257,-3.4972,-3.4835,-3.4085,-3.3245,-3.2691,-3.28,-3.2666,-3.1502,-3.1309,-3.1048,-3.0188,-2.9862,-2.955,-2.894,-2.8695,-2.8587,-2.8587,-2.9116,-2.9482,-2.9482,-3.0934,-3.168,-3.1083,-3.0812,-3.0255,-2.9309,-2.8532,-2.768,-2.6769,-2.59,-2.5314,-2.5071,-2.4711,-2.4699,-2.5071,-2.5228,-2.5312,-2.5312,-2.5312,-2.5312,-4.1427,-4.2831,-4.4294,-4.4294,-4.3299,-4.2533,-4.3378,-4.3159,-4.277,-4.3065,-4.3702,-4.4076,-4.3684,-4.3948,-4.4429,-4.4838,-4.5699,0.0,-5.1187,-5.2162,-5.3675,-5.6826,-5.7224,-5.8166,-6.0593,-6.0999,-6.042,-5.8831,-5.6697,-5.4839,-5.3401,-5.2641,-5.2643,-5.345,-5.1715,-5.1078,-5.1781,-5.0774,-4.9856,-4.9127,-4.911,-4.873,-4.7984,-4.7255,-4.6908,-4.6825,-4.5351,-4.4521,0.0,-4.3019,-4.2412,-4.2045,-4.172,-4.1588,-4.1588,-4.1588,-4.1178,-4.0498,-3.9756,-3.9503,-3.9281,-3.7923,-3.7496,-3.7496,-3.748,-3.8412,-3.9202,-3.7859,-3.6975,-3.6595,-3.7291,-3.6257,-3.5337,-3.6546,-3.4996,-3.3353,-3.4028,-3.3601,-3.2948,-3.2277,-3.2169,-3.1965,-3.1382,-3.0798,-3.0188,-2.9564,-2.8967,-2.8587,-2.8587,-2.9116,-2.9482,-2.9482,-3.0581,-3.107,-3.0473,-3.0948,-3.0548,-2.8849,-2.8701,-2.7962,-2.6245,-2.5697,-2.5142,-2.453,-2.4518,-2.4518,-2.453,-2.5059,-2.5312,-2.5312,-2.5312,-2.5312,-4.1399,-4.2382,-4.3143,-4.3143,-4.2832,-4.2663,-4.3149,-4.3495,-4.3784,-4.4118,-4.4356,-4.45,-4.439,-4.4062,-4.4214,-4.5465,-4.59,-4.6899,-4.9132,-5.1304,-5.3874,-5.7083,-6.0214,-6.1804,-6.1013,-6.0053,-5.8645,-5.6702,-5.4957,-5.3349,-5.1958,-5.1145,-5.0849,-5.1006,-5.0843,-5.051,-5.0076,-4.9676,-4.9342,-4.9094,-4.8597,-4.8233,-4.7968,-4.7239,-4.6609,-4.6079,-4.5102,-4.4085,-4.3098,-4.2745,-4.2285,-4.172,-4.1654,-4.1588,-4.1525,-4.1083,-4.0783,-4.0435,-3.9234,-3.8823,-3.8681,-3.778,-3.748,-3.7385,-3.6911,-3.7054,-3.7306,-3.688,-3.6263,-3.5647,-3.5363,-3.5076,-3.4647,-3.3924,-3.3647,-3.3374,-3.2709,-3.2717,-3.2736,-3.2282,-3.2182,-3.1992,-3.1395,-3.0798,-3.0201,-2.9564,-2.9319,-2.9048,-2.8641,-2.9116,-2.9319,-2.8912,-2.9577,-3.031,-3.0961,-3.1192,-3.1053,-3.0521,-2.9324,-2.8376,-2.7842,-2.6892,-2.6324,-2.6166,-2.5793,-2.56,-2.56,-2.5408,-2.5312,-2.5312,-2.5312,-2.5504,-4.1858,-4.2849,-4.363,-4.3886,-4.3349,-4.2996,-4.3864,-4.3846,-4.3722,-4.4169,-4.4506,-4.4605,-4.434,-4.4202,-4.4456,-4.55,-4.567,-4.6416,-4.8675,-5.0982,-5.3797,-5.7507,-6.0977,-6.24,-6.0724,-5.9455,-5.7892,-5.5726,-5.3943,-5.2294,-5.0845,-5.0291,-4.9792,-4.9413,-4.9704,-4.9724,-4.9326,-4.8879,-4.8696,-4.868,-4.7934,-4.7587,-4.7554,-4.6527,-4.5814,-4.5334,-4.4605,-4.3706,0.0,-4.2372,-4.1884,-4.1357,-4.0974,-4.0798,-4.0751,-4.034,-4.0182,-4.0024,-3.8902,-3.8507,-3.8397,-3.7701,-3.7291,-3.6943,-3.6248,-3.5837,-3.5679,-3.5947,-3.5521,-3.4936,-3.4747,-3.4476,-3.3967,-3.2931,-3.2867,-3.2795,-3.1972,-3.2148,-3.2444,-3.2241,-3.2182,-3.206,-3.168,-3.1137,-3.0608,-3.0228,-2.9767,-2.9333,-2.898,-2.9048,-2.9007,-2.8627,-2.9116,-2.9781,-3.054,-3.1029,-3.1037,-3.0299,-2.9411,-2.8651,-2.8011,-2.7078,-2.661,-2.661,-2.5889,-2.5504,-2.5504,-2.5168,-2.5107,-2.5312,-2.5312,-2.548,0.0,-4.4031,-4.4997,-4.5712,-4.4485,-4.3494,-4.505,-4.3945,0.0,-4.3564,-4.4197,-4.4506,-4.3893,-4.4394,-4.4963,-4.5319,-4.5297,-4.6309,-4.9487,-5.1245,-5.3791,-5.8085,-6.0012,-6.0671,-5.9799,-5.9072,-5.7751,-5.5628,-5.3389,-5.1522,-5.0084,-4.986,-4.9429,-4.85,-4.8483,-4.8754,-4.9293,-4.8348,-4.7918,-4.7918,-4.7173,-4.6825,-4.6775,-4.5334,-4.4688,0.0,-4.3876,-4.329,-4.2921,-4.1898,-4.13,-4.0863,-3.9881,-3.9503,-3.9487,-3.9455,-3.9424,-3.9329,-3.8618,-3.8365,-3.8254,-3.7559,-3.6848,-3.6153,-3.5505,-3.4841,-3.4431,-3.5126,-3.4778,-3.4383,-3.5063,-3.4373,-3.3422,-3.3291,-3.2587,-3.1891,-3.182,-3.202,-3.2182,-3.2182,-3.2182,-3.2182,-3.2182,-3.168,-3.13,-3.13,-3.0337,-2.9577,-2.9482,-2.9034,-2.8695,-2.86,-2.9089,-2.9414,-2.9414,-3.0568,-3.0535,-2.8813,-2.9228,-2.8774,-2.7083,-2.649,-2.6202,-2.6154,-2.5155,-2.4614,-2.4578,-2.4578,-2.4831,-2.5312,-2.5312,-2.5312,-4.4259,0.0,-4.2401,-4.2559,-4.263,-4.2783,0.0,0.0,0.0,0.0,0.0,0.0,-4.5202,-4.5075,-4.5313,-4.6692,-4.6464,-4.7098,-4.9722,-5.3765,-5.7217,-5.9242,-6.0963,-6.1178,-5.9223,-5.7444,-5.5684,-5.4124,-5.1922,-5.0219,-4.9306,-4.9147,-4.8892,-4.8483,-4.8356,-4.8327,-4.8331,-4.752,-4.7156,-4.7156,-4.6411,-4.6046,-4.6013,-4.5102,-4.4688,-4.4622,-4.333,-4.2473,-4.1882,-4.1107,-4.0437,-3.9849,-3.9629,-3.9503,-3.9439,-3.8934,-3.8744,-3.857,-3.7338,-3.6911,-3.6801,-3.6105,-3.5379,-3.4762,-3.4604,-3.4431,-3.4336,-3.4494,-3.4051,-3.3577,-3.3751,-3.3927,-3.3752,-3.2497,-3.2775,-3.297,-3.1709,-3.182,-3.2182,-3.2182,-3.2182,-3.2182,-3.2182,-3.168,-3.13,-3.13,-3.1056,-3.0527,-2.9604,-2.9767,-2.9618,-2.8695,-2.8722,-2.8804,-2.8804,-2.991,-3.0421,-2.9987,-2.9605,-2.906,-2.8211,-2.7633,-2.7152,-2.6743,-2.6069,-2.5528,-2.5119,-2.5119,-2.5192,-2.5312,-2.5312,-2.5312,-4.4373,-4.3621,-4.3056,-4.3396,-4.3488,-4.3644,-4.3962,0.0,0.0,0.0,0.0,0.0,0.0,-4.548,-4.5895,-4.682,-4.707,-4.8186,-5.1234,-5.4395,-5.7288,-5.9622,-6.039,-6.0122,-5.8537,-5.6997,-5.508,-5.2653,-5.1623,-5.049,-4.9086,-4.9089,-4.8828,-4.8015,-4.7728,-4.7552,-4.7504,-4.7106,-4.6725,-4.6378,-4.5632,-4.5284,-4.5251,-4.4175,-4.3694,-4.3628,-4.2327,-4.1557,-4.1031,-4.0183,-3.9534,-3.8981,-3.8333,-3.8096,-3.8017,-3.7322,-3.7085,-3.6975,-3.6216,-3.5947,-3.5884,-3.5505,-3.4889,-3.4288,-3.4288,-3.4083,-3.383,-3.383,-3.3577,-3.324,-3.2873,-3.2959,-3.2819,-3.1231,-3.157,-3.1989,-3.1075,-3.1355,-3.1857,-3.2128,-3.2182,-3.2182,-3.2182,-3.1911,-3.1694,-3.1694,-3.1477,-3.1056,-3.0391,-3.012,-2.9726,-2.9062,-2.8763,-2.8695,-2.898,-2.9125,-2.9275,-2.9522,-2.9189,-2.8768,-2.8243,-2.7388,-2.661,-2.5841,-2.53,-2.4999,-2.4939,-2.4711,-2.4843,-2.5312,-2.5312,-2.5312,-4.4291,-4.4412,-4.4946,-4.5384,-4.4925,-4.4521,-4.5184,0.0,0.0,0.0,0.0,0.0,0.0,-4.5835,-4.6552,-4.6774,-4.7815,-4.9813,-5.3348,-5.4566,-5.6233,-5.934,-5.9168,-5.8496,-5.7751,-5.667,-5.4727,-5.1637,-5.164,-5.0916,-4.9041,-4.9114,-4.8637,-4.7383,-4.6982,-4.6676,-4.656,-4.656,-4.6245,-4.5616,-4.487,-4.4456,-4.4307,-4.3081,-4.2452,-4.2262,-4.1247,0.0,-4.0286,-3.9264,-3.8555,-3.8081,-3.6896,-3.6358,-3.62,-3.5616,-3.5394,-3.5379,-3.5268,-3.5157,-3.5078,-3.5078,-3.4652,-3.4146,-3.4146,-3.3751,-3.3309,-3.3309,-3.3309,-3.3118,-3.2446,-3.217,-3.1649,-3.0269,-3.0347,-3.0639,-3.0419,-3.0948,-3.1585,-3.2074,-3.2182,-3.2182,-3.2182,-3.2182,-3.2182,-3.2182,-3.1748,-3.1395,-3.13,-3.0391,-2.9686,-2.9496,-2.8955,-2.8754,-2.9226,-2.8239,-2.7857,-2.8231,-2.83,-2.8071,-2.7476,-2.6514,-2.5516,-2.4542,-2.4097,-2.4061,-2.441,-2.4061,-2.4338,-2.5192,-2.5264,-2.5312,-4.5516,-4.5487,-4.5212,-4.4191,-4.342,-4.2925,-4.2953,-4.3057,0.0,0.0,0.0,0.0,0.0,-4.6541,-4.7429,-4.8111,-5.0129,-5.2503,-5.5023,-5.6528,-5.7576,-5.8015,-5.808,-5.7718,-5.6894,-5.4493,-5.2753,-5.2164,-5.0396,-4.9186,-4.8866,-4.8048,-4.7475,-4.7258,-4.642,-4.5665,-4.5036,-4.5019,-4.497,-4.4854,-4.4125,-4.3462,-4.285,-4.2618,-4.217,-4.1484,0.0,-3.9895,-3.9573,-3.8541,-3.7536,-3.6722,-3.65,-3.6058,-3.5537,-3.5426,-3.5394,-3.53,-3.4683,-3.4099,-3.3625,-3.3625,-3.3546,-3.3451,-3.3451,-3.3388,-3.3309,-3.3309,-3.3309,-3.324,-3.3171,-3.2834,-3.217,-3.0984,-3.1271,-3.1565,-3.0583,-3.1273,-3.2074,-3.2155,-3.2182,-3.2182,-3.2182,-3.2182,-3.2182,-3.2182,-3.2101,-3.187,-3.1368,-3.1137,-3.0622,-2.9591,-2.904,-2.8491,-2.808,-2.7442,-2.7042,-2.7117,-2.7176,-2.6914,-2.637,-2.5757,-2.5143,-2.453,-2.4446,-2.423,-2.3881,-2.423,-2.4482,-2.465,-2.5107,-2.5312,-4.4837,-4.5151,-4.539,-4.3951,-4.388,-4.4113,-4.3706,-4.423,0.0,0.0,0.0,0.0,0.0,-4.7625,-4.9284,-5.1296,-5.2741,-5.4059,-5.5513,-5.5936,-5.6399,-5.7121,-5.6571,-5.5805,-5.5024,-5.3345,-5.1809,-5.0608,-4.9839,-4.9039,-4.8276,-4.755,-4.6812,-4.6012,-4.5507,-4.4837,-4.4125,-4.3711,-4.3711,-4.4108,-4.338,-4.285,-4.2485,-4.1707,-4.1177,-4.0812,0.0,-3.8991,-3.8788,-3.7572,-3.6822,-3.6342,-3.5568,-3.5078,-3.4747,-3.4399,-3.4273,-3.4209,-3.3878,-3.3561,-3.3309,-3.3309,-3.3309,-3.3309,-3.3309,-3.3309,-3.3309,-3.3309,-3.3309,-3.3187,-3.2749,-3.217,-3.1552,-3.0916,-3.0729,-3.0724,-3.0869,-3.1314,-3.1789,-3.2114,-3.2182,-3.2182,-3.2182,-3.2182,-3.2182,-3.2182,-3.2182,-3.2074,-3.1802,-3.149,-3.1083,-3.0513,-2.9441,-2.8728,-2.8794,-2.7411,-2.6494,-2.6504,-2.6481,-2.6238,-2.5697,-2.5432,-2.5192,-2.4951,-2.4662,-2.4554,-2.4602,-2.4554,-2.4675,-2.4951,-2.5204,-2.5312,-4.3779,-4.4401,-4.5146,-4.3654,-4.4113,-4.4867,-4.4605,-4.5295,0.0,0.0,0.0,0.0,0.0,-4.8625,-5.0658,-5.3599,-5.4413,-5.4921,-5.5835,-5.548,-5.5463,-5.6427,-5.5243,-5.411,-5.3484,-5.2403,-5.1034,-4.9266,-4.9241,-4.8744,-4.7665,-4.697,-4.6001,-4.4687,-4.45,-4.4009,-4.3115,-4.2717,-4.28,-4.3346,-4.2452,-4.1922,-4.1723,-4.0448,-3.9785,-3.9462,-3.8339,-3.7834,-3.7729,-3.6635,-3.6074,-3.5821,-3.4715,-3.4194,-3.3988,-3.3482,-3.3309,-3.3309,-3.3309,-3.3309,-3.3309,-3.3309,-3.3309,-3.3309,-3.3309,-3.3309,-3.3309,-3.3309,-3.3309,-3.3171,-3.2516,-3.169,-3.0984,-3.0936,-3.0341,-3.0119,-3.1056,-3.1395,-3.1639,-3.2087,-3.2182,-3.2182,-3.2182,-3.2182,-3.2182,-3.2182,-3.2182,-3.2182,-3.2182,-3.1789,-3.1365,-3.1087,-2.9807,-2.8843,-2.8814,-2.7062,-2.5987,-2.5889,-2.5913,-2.5733,-2.5324,-2.5312,-2.5252,-2.5131,-2.4723,-2.4662,-2.4951,-2.4662,-2.4723,-2.5119,-2.5193,-2.5182,-4.3046,-4.3616,-4.4227,-4.2816,-4.2647,-4.3126,-4.4152,-4.4018,0.0,-4.6018,0.0,0.0,0.0,-4.9028,-5.0719,-5.3146,-5.4143,-5.5091,-5.6528,-5.6681,-5.6427,-5.5869,-5.4482,-5.3484,-5.3264,-5.1294,-4.9917,-4.9603,-4.8189,-4.7358,-4.7258,-4.574,-4.4506,-4.3727,-4.3711,-4.3015,-4.1591,-4.2204,-4.2551,-4.2585,-4.1193,-4.0166,-3.9487,-3.8725,-3.784,-3.6957,-3.656,-3.619,-3.5973,-3.5641,-3.5063,-3.4431,-3.4336,-3.3909,-3.3372,-3.3324,-3.3309,-3.3309,-3.3309,-3.3309,-3.3309,-3.3309,-3.3309,-3.3309,-3.3309,-3.3309,-3.3309,-3.3309,-3.3309,-3.3256,-3.3096,-3.2201,-3.141,-3.1523,-3.1154,-3.0883,-3.1221,-3.1721,-3.2128,-3.2169,-3.2182,-3.2182,-3.2182,-3.2182,-3.2182,-3.2182,-3.2182,-3.2182,-3.2182,-3.2141,-3.168,-3.0612,-2.9874,-2.8581,-2.653,-2.5779,-2.5394,-2.536,-2.536,-2.5348,-2.5312,-2.5312,-2.5083,-2.459,-2.4542,-2.4314,-2.3881,-2.4314,-2.4542,-2.459,-2.4767,-2.4861,-4.219,-4.3195,-4.4134,-4.2209,-4.249,0.0,0.0,-4.4735,-4.519,-4.7371,-4.9504,0.0,0.0,-5.211,-5.2756,-5.3837,-5.5122,-5.6004,-5.6105,-5.5716,-5.5327,-5.5057,-5.3213,-5.1899,-5.1815,-5.0152,-4.8798,-4.8266,-4.7621,-4.6795,-4.5863,-4.471,-4.3694,-4.2965,-4.2485,-4.1972,-4.1425,-4.0812,-4.0498,-4.0498,-4.0415,-3.9984,-3.9255,-3.8543,-3.7763,-3.6949,-3.6434,-3.6136,-3.5997,-3.5093,-3.4541,-3.4257,-3.383,-3.353,-3.3309,-3.3309,-3.3309,-3.3309,-3.3309,-3.3309,-3.3309,-3.3309,-3.3309,-3.3309,-3.3309,-3.3309,-3.3309,-3.3309,-3.3065,-3.2834,-3.2532,-3.1819,-3.1102,-3.1046,-3.0834,-3.0692,-3.1165,-3.1762,-3.2182,-3.2182,-3.2182,-3.2182,-3.2182,-3.2182,-3.2182,-3.2182,-3.2182,-3.2182,-3.2182,-3.2182,-3.2015,-3.1567,-3.0066,-2.823,-2.6299,-2.5612,-2.5312,-2.5312,-2.5312,-2.5312,-2.5312,-2.5312,-2.5216,-2.5011,-2.5011,-2.4788,-2.4412,-2.4601,-2.4543,-2.433,-2.4397,-2.4418,-4.139,-4.2611,-4.3791,-4.2123,0.0,0.0,-4.5237,-4.5618,-4.6297,-4.8692,-5.0219,-5.1566,-5.29,0.0,-5.3001,-5.3799,-5.5137,-5.5849,-5.5359,-5.4633,-5.4075,-5.3855,-5.1713,-5.0284,-5.0219,-4.8731,-4.7534,-4.697,-4.6595,-4.5868,-4.462,-4.3953,-4.3081,-4.1872,-4.1789,-4.1326,-4.0415,-3.9653,-3.904,-3.8593,-3.9106,-3.8957,-3.8212,-3.75,-3.6786,-3.6156,-3.5698,-3.5421,-3.523,-3.4324,-3.3972,-3.3941,-3.3482,-3.3309,-3.3309,-3.3309,-3.3309,-3.3309,-3.3309,-3.3309,-3.3309,-3.3309,-3.3309,-3.3309,-3.3309,-3.3309,-3.3309,-3.3309,-3.2888,-3.2336,-3.186,-3.1217,-3.0686,-3.0637,-3.0533,-3.0581,-3.1165,-3.1762,-3.2182,-3.2182,-3.2182,-3.2182,-3.2182,-3.2182,-3.2182,-3.2182,-3.2182,-3.2182,-3.2182,-3.2182,-3.1955,-3.1376,-2.946,-2.764,-2.6214,-2.5612,-2.5312,-2.5312,-2.5312,-2.5312,-2.5312,-2.5312,-2.5312,-2.5312,-2.5182,-2.5052,-2.479,-2.4646,-2.449,-2.42,-2.4043,-2.397,-4.0763,-4.1827,-4.3251,-4.2502,0.0,0.0,-4.5858,-4.6322,-4.707,-4.9703,-4.956,-4.9503,-5.0978,-5.0626,-5.0774,-5.2858,-5.3801,-5.4289,-5.4289,-5.3633,-5.2892,-5.2169,-5.0116,-4.8707,-4.8547,-4.7053,-4.6001,-4.5781,-4.5086,-4.4357,-4.3645,-4.3595,-4.2601,-4.0448,-4.174,-4.1094,-3.8228,-3.8891,-3.8526,-3.7102,-3.7085,-3.6704,-3.5976,-3.5247,-3.4594,-3.4101,-3.4101,-3.3797,-3.3293,-3.3309,-3.3309,-3.3309,-3.3309,-3.3309,-3.3309,-3.3309,-3.3309,-3.3309,-3.3309,-3.3309,-3.3309,-3.3309,-3.3309,-3.3309,-3.3309,-3.3309,-3.3309,-3.3309,-3.2695,-3.1901,-3.1101,-3.06,-3.0305,-3.0383,-3.0386,-3.0568,-3.1151,-3.1762,-3.2182,-3.2182,-3.2182,-3.2182,-3.2182,-3.2182,-3.2182,-3.2182,-3.2182,-3.2182,-3.2182,-3.2182,-3.1489,-2.9683,-2.7965,-2.6707,-2.6142,-2.5612,-2.5312,-2.5312,-2.5312,-2.5312,-2.5312,-2.5312,-2.5312,-2.5312,-2.4981,-2.4801,-2.4801,-2.4418,-2.42,-2.4189,-2.3751,-2.3593,-4.0516,-4.148,-4.2628,-4.241,0.0,0.0,0.0,-4.5978,0.0,0.0,-5.1095,-5.0754,-5.243,-5.1769,-5.1312,-5.2048,-5.2822,-5.3123,-5.2587,-5.19,-5.1162,-5.0408,-4.8785,-4.7638,-4.7558,-4.6566,-4.5429,-4.4357,-4.4059,-4.3396,-4.2137,-4.1607,-4.0812,-3.9636,-3.9537,-3.8825,-3.745,-3.7135,-3.6754,-3.6324,-3.5794,-3.5711,-3.5992,-3.5564,-3.5038,-3.4349,-3.4,-3.3761,-3.3555,-3.3398,-3.3309,-3.3309,-3.3309,-3.3309,-3.3309,-3.3309,-3.3309,-3.3309,-3.3309,-3.3309,-3.3309,-3.3309,-3.3309,-3.3309,-3.3309,-3.3309,-3.3309,-3.3309,-3.2477,-3.1519,-3.1042,-3.0194,-2.9366,-2.9178,-2.9779,-3.0459,-3.0635,-3.1463,-3.2182,-3.2182,-3.2182,-3.2182,-3.2182,-3.2182,-3.2182,-3.2182,-3.2182,-3.2023,-3.1542,-3.1468,-3.0786,-2.9026,-2.804,-2.7127,-2.6214,-2.5612,-2.5312,-2.5312,-2.5052,-2.4921,-2.4921,-2.4921,-2.4849,-2.4539,-2.4418,-2.4273,-2.397,-2.3824,-2.3604,-2.3372,-2.3224,-2.315,-4.1145,-4.1927,-4.2804,-4.3127,-4.4227,-4.5439,-4.5963,0.0,0.0,0.0,-5.059,-5.0008,-5.1565,-5.0895,-5.0354,-5.1107,-5.1578,-5.1752,-5.1311,-5.0577,-4.9859,-4.9107,-4.7691,-4.6629,-4.6329,-4.5225,-4.4125,-4.3247,-4.2916,-4.2237,-4.1061,-4.0613,-3.9918,-3.8891,-3.8444,-3.7715,-3.6671,-3.6224,-3.586,-3.5562,-3.5114,-3.5083,-3.5415,-3.5366,-3.5021,-3.4448,-3.3949,-3.3694,-3.371,-3.3398,-3.3309,-3.3309,-3.3309,-3.3309,-3.3309,-3.3309,-3.3309,-3.3309,-3.3309,-3.3309,-3.3309,-3.3309,-3.3309,-3.3309,-3.3309,-3.3309,-3.3309,-3.3309,-3.2296,-3.1174,-3.0925,-2.9889,-2.8844,-2.8651,-2.9333,-3.0038,-3.0038,-3.0975,-3.1829,-3.1829,-3.2019,-3.2182,-3.2182,-3.2182,-3.2182,-3.2182,-3.2182,-3.1936,-3.1307,-3.0799,-2.9915,-2.8413,-2.757,-2.6724,-2.5829,-2.5492,-2.5241,-2.5111,-2.5052,-2.4778,-2.4345,-2.4502,-2.4418,-2.42,-2.4043,-2.3824,-2.3593,-2.3446,-2.3136,-2.2739,-2.3062,-2.3051,-4.2087,-4.2791,-4.3509,-4.4227,-4.4945,-4.5843,-4.7249,-4.7893,-4.8551,-4.9808,0.0,-4.8036,-4.9205,-4.8748,-4.8545,-4.9847,-5.014,-5.0183,-5.0189,-4.9593,-4.8943,-4.8146,-4.6845,-4.5679,-4.493,-4.3405,-4.2469,-4.2336,-4.164,-4.0912,-4.0233,-4.0117,-3.9437,-3.8046,-3.8013,-3.7334,-3.5909,-3.5827,-3.5495,-3.4899,-3.4833,-3.4738,-3.4546,-3.4739,-3.4643,-3.4349,-3.3834,-3.3547,-3.3547,-3.324,-3.3151,-3.3214,-3.3214,-3.3245,-3.3309,-3.3309,-3.3309,-3.3309,-3.3309,-3.3309,-3.3309,-3.3309,-3.3309,-3.3309,-3.3309,-3.3309,-3.3309,-3.324,-3.2114,-3.0925,-3.0867,-2.9766,-2.8651,-2.8587,-2.9048,-2.9496,-2.955,-3.0432,-3.1219,-3.1219,-3.1694,-3.2101,-3.2101,-3.2141,-3.2182,-3.2182,-3.2169,-3.1836,-3.1154,-3.009,-2.8959,-2.7766,-2.6749,-2.5877,-2.536,-2.5312,-2.5182,-2.4861,-2.5123,-2.4814,-2.374,-2.4055,-2.42,-2.4116,-2.3751,-2.3593,-2.3593,-2.3224,-2.2867,-2.2462,-2.3172,-2.315,-4.1414,-4.2447,0.0,-4.4796,-4.5978,-4.7354,-4.9194,-4.8521,-4.7743,-4.8536,-4.846,-4.8287,-4.8683,-4.8194,-4.7853,-4.837,-4.8868,-4.906,-4.8502,-4.838,-4.8016,-4.7287,-4.5893,-4.4716,-4.3986,-4.3048,-4.2054,-4.0928,-4.015,-3.9421,-3.8709,-3.8129,-3.74,-3.6506,-3.6473,-3.6042,-3.5148,-3.4551,-3.4485,-3.4883,-3.4303,-3.4336,-3.4804,-3.4448,-3.4,-3.3523,-3.2879,-3.259,-3.2542,-3.1887,-3.1981,-3.2538,-3.2538,-3.2819,-3.3309,-3.3309,-3.3309,-3.3309,-3.3309,-3.3309,-3.3309,-3.3309,-3.3309,-3.3309,-3.3309,-3.3309,-3.324,-3.2834,-3.2059,-3.1188,-3.0615,-2.9732,-2.8908,-2.8651,-2.9048,-2.9604,-3.0106,-3.0418,-3.0595,-3.0595,-3.1083,-3.1477,-3.1477,-3.187,-3.2182,-3.2182,-3.1776,-3.1061,-3.0012,-2.9263,-2.8226,-2.6664,-2.6239,-2.5877,-2.536,-2.5312,-2.5241,-2.5182,-2.4981,-2.479,-2.4562,-2.4345,-2.3897,-2.3298,-2.3446,-2.3593,-2.3593,-2.3519,-2.3401,-2.3301,-2.318,-2.3021,0.0,0.0,0.0,-4.5843,0.0,-4.8805,-4.9209,-4.8745,-4.8162,-4.7878,-4.7563,-4.7407,-4.744,-4.6985,-4.6528,-4.6687,-4.7095,-4.7215,-4.6909,-4.6848,-4.6486,-4.5421,-4.4959,-4.4136,-4.2747,-4.2228,-4.1541,-4.0464,-3.9371,-3.8609,-3.8228,-3.7168,-3.6406,-3.6009,-3.5313,-3.475,-3.4369,-3.3624,-3.3412,-3.3716,-3.3412,-3.3383,-3.3498,-3.3729,-3.3599,-3.3166,-3.2313,-3.1944,-3.1929,-3.1415,-3.1428,-3.176,-3.176,-3.1981,-3.2345,-3.2677,-3.2803,-3.2803,-3.2803,-3.3024,-3.3245,-3.2914,-3.304,-3.3309,-3.3309,-3.3309,-3.3187,-3.2711,-3.1875,-3.0999,-3.0435,-2.956,-2.893,-2.9386,-2.9252,-2.9143,-2.9469,-2.9767,-2.9957,-2.9957,-3.069,-3.13,-3.13,-3.1789,-3.2182,-3.2182,-3.1629,-3.0786,-2.9635,-2.8736,-2.7668,-2.6251,-2.5865,-2.5612,-2.5336,-2.5312,-2.5241,-2.5052,-2.5052,-2.4909,-2.4502,-2.449,-2.42,-2.3604,-2.3604,-2.3593,-2.3593,-2.3372,-2.3187,-2.2977,-2.3198,-2.3029,0.0,0.0,-4.4796,-4.68,-4.8521,0.0,-4.8506,-4.8536,-4.8446,-4.7354,-4.6711,-4.6292,-4.6172,-4.5589,-4.5146,-4.5153,-4.511,-4.5201,-4.5311,-4.5202,-4.4741,-4.3553,-4.3767,-4.326,-4.1313,-4.0971,-4.0581,-3.9886,-3.8599,-3.7843,-3.7831,-3.6555,-3.581,-3.581,-3.4502,-3.3789,-3.3789,-3.2928,-3.2491,-3.2459,-3.2607,-3.2471,-3.2028,-3.2749,-3.2932,-3.2724,-3.1758,-3.1358,-3.1358,-3.1005,-3.0923,-3.1033,-3.1033,-3.1112,-3.1302,-3.2013,-3.2317,-3.2333,-3.2408,-3.2819,-3.3182,-3.2538,-3.274,-3.3277,-3.3166,-3.3214,-3.3187,-3.2656,-3.1762,-3.0867,-3.0329,-2.9435,-2.891,-2.9862,-2.9401,-2.8777,-2.8885,-2.9211,-2.9442,-2.9333,-3.031,-3.1137,-3.1137,-3.1721,-3.2141,-3.1888,-3.1415,-3.0611,-2.9346,-2.8287,-2.7177,-2.6094,-2.5564,-2.5312,-2.5312,-2.5312,-2.5182,-2.4921,-2.5182,-2.5028,-2.4345,-2.4646,-2.4646,-2.42,-2.3897,-2.3666,-2.3593,-2.3298,-2.2878,-2.2517,-2.3194,-2.3054,0.0,0.0,-4.4796,0.0,-4.7504,-4.7803,0.0,0.0,-4.6666,0.0,-4.6381,-4.6142,-4.5544,-4.4885,-4.4227,-4.3728,-4.3716,-4.3741,-4.3797,-4.3364,-4.2976,-4.2746,-4.1706,-4.0674,-3.977,-3.9195,-3.8552,-3.7702,-3.6843,-3.6339,-3.6274,-3.5495,-3.5048,-3.5048,-3.4237,-3.3789,-3.3789,-3.2448,-3.2023,-3.2652,-3.2696,-3.2471,-3.1979,-3.1475,-3.1323,-3.1417,-3.0719,-3.037,-3.0307,-2.9659,-2.9769,-3.0322,-3.0322,-3.0686,-3.1302,-3.2013,-3.2317,-3.2412,-3.2945,-3.323,-3.3182,-3.2538,-3.274,-3.3182,-3.2582,-3.2819,-3.3134,-3.2216,-3.1679,-3.1087,-3.0007,-2.9352,-2.9013,-2.8855,-2.9102,-2.9509,-3.0052,-2.9794,-2.9333,-2.8804,-2.9686,-3.0527,-3.0527,-3.1436,-3.1861,-3.0817,-3.0472,-2.987,-2.8249,-2.7409,-2.6612,-2.5528,-2.5348,-2.5312,-2.5312,-2.5312,-2.5312,-2.5241,-2.5312,-2.5111,-2.4718,-2.479,-2.4646,-2.42,-2.4127,-2.397,-2.3593,-2.353,-2.3497,-2.343,-2.3191,-2.2834,-4.2372,-4.3643,-4.5259,0.0,-4.7309,-4.7384,-4.7668,-4.6995,-4.6217,-4.5828,-4.5454,-4.511,-4.4796,-4.4212,-4.3554,-4.2895,-4.2846,-4.2728,-4.2364,-4.2063,-4.1643,-4.0885,-4.0607,-3.9897,-3.8402,-3.8056,-3.7594,-3.6805,-3.5703,-3.5059,-3.5033,-3.4675,-3.4252,-3.3859,-3.3419,-3.2978,-3.258,-3.152,-3.1172,-3.147,-3.0929,-3.0773,-3.0929,-2.9789,-2.9835,-3.0768,-3.0115,-2.9812,-2.978,-2.9478,-2.945,-2.9595,-2.9595,-2.9769,-3.0133,-3.0844,-3.1097,-3.1207,-3.1887,-3.2392,-3.2613,-3.1902,-3.2424,-3.3166,-3.2471,-3.2568,-3.278,-3.2104,-3.1334,-3.0629,-2.9837,-2.9226,-2.8862,-2.9073,-2.9292,-2.9645,-3.0283,-3.0188,-3.0025,-3.0093,-3.054,-3.1015,-3.1341,-3.1527,-3.1462,-3.0903,-3.0252,-2.9315,-2.8002,-2.7285,-2.6514,-2.542,-2.5312,-2.5312,-2.5312,-2.5312,-2.5312,-2.5312,-2.5111,-2.4921,-2.479,-2.4562,-2.4273,-2.3897,-2.3897,-2.3751,-2.3593,-2.3105,-2.2838,-2.2827,-2.2107,-2.1664,0.0,0.0,-4.508,-4.6262,-4.68,-4.701,0.0,0.0,-4.5873,0.0,-4.4526,-4.4062,-4.4062,-4.3524,-4.2925,-4.2432,-4.2073,-4.1698,-4.1205,-4.0864,-4.0279,-3.9272,-3.9379,-3.8772,-3.7052,-3.6816,-3.646,-3.5697,-3.4619,-3.3999,-3.4042,-3.3861,-3.3517,-3.3032,-3.2607,-3.2166,-3.1636,-3.0891,-3.0427,-3.0228,-2.9519,-2.9329,-2.9599,-2.8502,-2.8672,-2.983,-2.9476,-2.9287,-2.9214,-2.9435,-2.938,-2.9213,-2.9121,-2.9075,-2.917,-2.9927,-3.018,-3.0306,-3.1176,-3.1713,-3.1918,-3.1381,-3.2045,-3.2914,-3.21,-3.2201,-3.2477,-3.1879,-3.1116,-3.0283,-2.9713,-2.9162,-2.8838,-2.9209,-2.9374,-2.9645,-3.0283,-3.0405,-3.054,-3.0975,-3.1192,-3.1311,-3.1451,-3.1356,-3.1018,-3.0576,-2.9732,-2.8783,-2.7693,-2.7089,-2.6358,-2.5408,-2.5312,-2.5312,-2.5312,-2.5312,-2.5241,-2.5182,-2.4921,-2.4718,-2.449,-2.42,-2.3824,-2.3457,-2.3334,-2.3334,-2.3446,-2.2688,-2.2313,-2.2302,-2.1386,-2.0885,0.0,-4.2432,0.0,-4.4302,-4.5424,-4.6202,0.0,0.0,-4.5155,-4.4496,-4.3838,-4.3389,-4.3389,-4.2851,-4.2402,-4.2372,-4.1309,-4.0487,-4.0457,-3.9391,-3.8552,-3.8452,-3.7398,-3.6445,-3.5674,-3.5048,-3.4348,-3.3598,-3.3299,-3.3187,-3.3277,-3.294,-3.282,-3.3016,-3.2147,-3.1626,-3.1576,-3.0891,-3.0162,-2.9466,-2.9393,-2.8949,-2.8125,-2.8043,-2.8036,-2.8167,-2.854,-2.8619,-2.851,-2.9198,-2.947,-2.9425,-2.9213,-2.9075,-2.917,-2.9927,-3.018,-3.0385,-3.1795,-3.1808,-3.1255,-3.1223,-3.1713,-3.2136,-3.0974,-3.1533,-3.2422,-3.1552,-3.1087,-3.0598,-2.9775,-2.9352,-2.8972,-2.8692,-2.9062,-2.9645,-3.0283,-3.0405,-3.0418,-3.0446,-3.0907,-3.0983,-2.9799,-3.052,-3.0589,-2.8875,-2.8648,-2.8223,-2.7071,-2.6466,-2.5925,-2.5372,-2.5312,-2.5312,-2.5312,-2.5312,-2.5182,-2.4861,-2.479,-2.449,-2.3677,-2.3666,-2.3446,-2.3075,-2.2575,-2.2564,-2.3001,-2.2542,-2.2313,-2.2302,-2.1811,-2.0973,0.0,0.0,0.0,-4.3449,-4.3748,-4.3943,-4.4526,-4.425,-4.3796,-4.3653,-4.3334,-4.3036,-4.2791,-4.2521,-4.2222,-4.1803,-4.098,-4.0247,-3.9828,-3.8975,-3.8093,-3.727,-3.629,-3.527,-3.4211,-3.3342,-3.2809,-3.2497,-3.2093,-3.185,-3.1992,-3.169,-3.1436,-3.1287,-3.0911,-3.0725,-3.0711,-3.0096,-2.9682,-2.94,-2.8472,-2.8103,-2.8207,-2.7283,-2.7027,-2.7355,-2.7679,-2.7921,-2.8208,-2.8737,-2.8914,-2.8818,-2.8993,-2.9075,-2.9107,-2.9422,-2.9501,-2.9643,-3.0591,-3.0765,-3.0622,-3.1065,-3.1479,-3.1789,-3.1316,-3.1442,-3.1724,-3.1394,-3.0866,-3.0205,-2.9727,-2.9352,-2.9132,-2.9141,-2.9631,-3.0242,-3.0853,-3.1273,-3.1544,-3.1544,-3.1721,-3.1631,-3.0738,-3.0585,-3.0253,-2.9235,-2.8758,-2.8142,-2.7043,-2.6755,-2.6298,-2.5396,-2.5312,-2.5312,-2.5312,-2.5312,-2.5182,-2.479,-2.4574,-2.42,-2.3593,-2.3372,-2.315,-2.3001,-2.2837,-2.2695,-2.2564,-2.1767,-2.1385,-2.1374,-2.017,-1.938,-4.1115,0.0,0.0,0.0,-4.2686,-4.2641,-4.3573,-4.3388,-4.3076,-4.309,-4.2912,-4.2629,-4.2354,-4.1844,-4.1411,-4.1115,-4.0427,-3.9755,-3.9113,-3.837,-3.7466,-3.6395,-3.5599,-3.4614,-3.3339,-3.2667,-3.2149,-3.1721,-3.1249,-3.1073,-3.1234,-3.0739,-3.016,-2.945,-2.9627,-2.9556,-2.931,-2.914,-2.8936,-2.8671,-2.7727,-2.745,-2.7611,-2.6651,-2.6396,-2.6747,-2.6879,-2.7349,-2.8092,-2.8616,-2.8844,-2.8874,-2.913,-2.9167,-2.9075,-2.9075,-2.9075,-2.9232,-2.9927,-3.0022,-2.9975,-3.0907,-3.1205,-3.1263,-3.132,-3.1324,-3.1292,-3.1102,-3.0702,-3.0158,-2.9741,-2.9442,-2.9306,-2.9454,-3.0106,-3.0812,-3.1205,-3.1762,-3.2096,-3.1936,-3.1863,-3.1629,-3.0771,-3.0241,-2.9793,-2.9197,-2.8579,-2.7993,-2.7284,-2.6875,-2.637,-2.5648,-2.5408,-2.5241,-2.5111,-2.5111,-2.4909,-2.4418,-2.4127,-2.3824,-2.3446,-2.315,-2.3001,-2.3001,-2.2848,-2.2619,-2.2313,-2.1355,-2.0896,-2.0816,-1.9266,-1.8375,0.0,0.0,0.0,0.0,0.0,0.0,-4.2562,0.0,-4.3111,-4.2739,-4.2347,-4.206,-4.2015,-4.0837,-4.0009,-4.0353,-3.9697,-3.8882,-3.8329,-3.7464,-3.6659,-3.5981,-3.5318,-3.4404,-3.3122,-3.2989,-3.2458,-3.1205,-3.0895,-3.0881,-3.1043,-3.0097,-2.8997,-2.7732,-2.8176,-2.8158,-2.7501,-2.8033,-2.7976,-2.728,-2.7247,-2.6882,-2.622,-2.622,-2.622,-2.622,-2.622,-2.6937,-2.8165,-2.8796,-2.9342,-2.9745,-2.9572,-2.935,-2.9121,-2.9153,-2.9107,-2.9264,-2.9959,-2.9753,-2.9359,-3.0747,-3.0857,-3.0541,-3.0821,-3.1099,-3.1161,-3.0747,-3.0568,-3.0462,-2.9789,-2.9555,-2.9482,-2.9496,-3.0418,-3.13,-3.1314,-3.1775,-3.195,-3.1307,-3.122,-3.0771,-2.9561,-2.9419,-2.9197,-2.859,-2.8077,-2.7741,-2.7705,-2.6779,-2.6105,-2.6069,-2.5612,-2.5182,-2.4861,-2.479,-2.449,-2.3677,-2.3677,-2.3446,-2.3075,-2.3001,-2.3001,-2.3001,-2.2564,-2.2335,-2.2335,-2.1314,-2.0786,-2.0776,-1.9216,-1.8192,-4.0322,0.0,0.0,0.0,0.0,0.0,-4.1233,0.0,-4.145,-4.1892,-4.1768,-4.1636,-4.1794,-4.1435,-4.1037,-4.0642,-3.9609,-3.8796,-3.8619,-3.7588,-3.6659,-3.5981,-3.4773,-3.3709,-3.2889,-3.2251,-3.1766,0.0,-3.095,-3.0498,-3.0221,-2.9167,-2.8077,-2.694,-2.7272,-2.7313,-2.6945,-2.6748,-2.6719,-2.6798,-2.626,-2.6081,-2.622,-2.622,-2.622,-2.622,-2.622,-2.7011,-2.8329,-2.8319,-2.8379,-2.8576,-2.9247,-2.9425,-2.9444,-2.9784,-2.9896,-2.9943,-3.031,-3.0304,-3.0188,-3.0812,-3.0646,-3.0383,-3.1031,-3.1013,-3.0747,-3.0642,-3.0568,-3.0462,-2.9789,-2.9555,-2.9591,-3.0052,-3.0744,-3.1267,-3.1209,-3.1349,-3.1381,-3.1233,-3.0846,-3.0317,-2.9561,-2.9419,-2.9197,-2.859,-2.8378,-2.8017,-2.7248,-2.6887,-2.6406,-2.5612,-2.5396,-2.5241,-2.5182,-2.5182,-2.4981,-2.449,-2.449,-2.4273,-2.3897,-2.3604,-2.3446,-2.3446,-2.3029,-2.2815,-2.2805,-2.1485,-2.0818,-2.0694,-1.9114,-1.8088,-3.9963,-3.9548,-3.9268,-3.9847,0.0,0.0,-3.9982,-3.9924,-3.9985,0.0,-4.0403,-4.0363,-4.0705,-4.0686,-4.0568,-4.0264,-3.9704,-3.9191,-3.8723,-3.7725,-3.686,-3.6172,-3.5054,-3.4126,-3.3485,-3.2533,-3.1816,-3.154,-3.093,-3.0235,-2.9462,-2.8744,-2.7659,-2.6001,-2.6361,-2.626,-2.5629,-2.5302,-2.5234,-2.5468,-2.5034,-2.4809,-2.4837,-2.5586,-2.579,-2.5579,-2.5999,-2.67,-2.7528,-2.7993,-2.8451,-2.8952,-2.9442,-2.956,-2.9566,-3.0006,-3.0084,-2.9969,-3.0375,-3.0402,-3.0317,-3.0776,-3.0588,-3.033,-3.1084,-3.0984,-3.0568,-3.0568,-3.0387,-3.0154,-2.9989,-2.9941,-3.0025,-3.0635,-3.1007,-3.1288,-3.1241,-3.0771,-3.0469,-3.0469,-3.0177,-2.9716,-2.9118,-2.904,-2.8895,-2.859,-2.851,-2.821,-2.7368,-2.7067,-2.6598,-2.5733,-2.5444,-2.5241,-2.5123,-2.5123,-2.4909,-2.4574,-2.4574,-2.4345,-2.397,-2.3751,-2.3519,-2.3372,-2.315,-2.2754,-2.2327,-2.1286,-2.0358,-1.962,-1.8462,-1.7865,-3.9574,-3.9265,-3.918,-3.9609,-3.9239,0.0,-3.9019,-3.8925,-3.8811,0.0,-3.8862,-3.8837,-3.9379,-3.9401,-3.9368,-3.9507,-3.9896,-3.979,-3.8806,-3.7972,-3.7302,-3.6693,-3.6011,-3.5299,-3.4588,-3.3369,-3.2309,-3.1584,-3.0872,-2.9943,-2.8739,-2.8608,-2.7486,-2.5116,-2.5461,-2.5183,-2.4051,-2.3873,-2.38,-2.3822,-2.3759,-2.3454,-2.2941,-2.4574,-2.5028,-2.4583,-2.5658,-2.6129,-2.6274,-2.7717,-2.8959,-2.9917,-2.9832,-2.9633,-2.9476,-3.0038,-2.9935,-2.9631,-3.0371,-3.0334,-3.015,-3.0694,-3.0597,-3.0377,-3.1041,-3.0925,-3.0568,-3.0568,-3.0097,-2.9729,-3.0277,-3.0425,-3.054,-3.0999,-3.1149,-3.1145,-3.0996,-3.0177,-2.9419,-2.9341,-2.9213,-2.9045,-2.8578,-2.8414,-2.8354,-2.8414,-2.8378,-2.8138,-2.7609,-2.714,-2.6635,-2.6069,-2.5588,-2.5182,-2.4861,-2.4861,-2.4706,-2.4334,-2.4334,-2.4116,-2.3751,-2.3677,-2.3446,-2.3075,-2.2927,-2.2413,-2.1408,-2.0805,-1.9746,-1.8184,-1.7779,-1.7834,-3.9454,-3.9104,-3.89,-3.8959,-3.8663,0.0,-3.8362,-3.8364,-3.8306,0.0,-3.8725,-3.9135,-3.9252,-3.9596,-3.9929,-3.9993,-4.0017,-4.0017,-3.9848,-3.9204,-3.8783,-3.8652,-3.7622,-3.6475,-3.5299,-3.4022,-3.2788,-3.1613,-3.0451,-2.9479,-2.8724,-2.8187,-2.7021,-2.5213,-2.5283,-2.4773,-2.3696,-2.3175,-2.3086,-2.3398,-2.2855,-2.2723,-2.2925,-2.3819,-2.4153,-2.4111,-2.5174,-2.5782,-2.6118,-2.726,-2.79,-2.8232,-2.9356,-2.9348,-2.8857,-3.0005,-3.0186,-2.9939,-3.0854,-3.1063,-3.0979,-3.0749,-3.0616,-3.0527,-3.0703,-3.0687,-3.0568,-3.0568,-3.0097,-2.9645,-2.9757,-3.0107,-3.0294,-2.9944,-3.054,-3.0921,-2.9947,-2.9574,-2.9263,-2.8736,-2.8319,-2.8161,-2.8438,-2.7801,-2.738,-2.7813,-2.7512,-2.7043,-2.6478,-2.6322,-2.6057,-2.5516,-2.5372,-2.5241,-2.5182,-2.5182,-2.517,-2.5099,-2.5099,-2.4897,-2.4562,-2.4261,-2.3897,-2.3519,-2.2703,-2.1897,-2.1263,-2.0574,-1.9726,-1.8775,-1.8583,-1.8522,-3.9444,-3.9017,-3.8797,-3.8649,-3.8427,0.0,0.0,-3.7752,-3.7752,-3.7752,-3.7752,-3.7955,-3.858,-3.8696,-3.9015,-3.9944,-3.9842,-3.9871,-4.051,-4.0046,-3.9538,-3.9233,-3.8347,-3.7244,-3.5952,-3.4399,-3.2788,-3.1163,-3.0161,-2.9348,-2.871,-2.8071,-2.6957,-2.5261,-2.5202,-2.4695,-2.361,-2.2652,-2.2295,-2.2489,-2.1835,-2.1415,-2.1363,-2.2892,-2.3405,-2.3177,-2.4598,-2.5497,-2.6009,-2.6955,-2.7349,-2.7517,-2.8693,-2.9093,-2.9098,-2.9899,-3.0114,-3.0173,-3.0994,-3.1176,-3.0925,-3.0687,-3.0568,-3.0568,-3.0568,-3.0568,-3.0568,-3.0568,-3.0097,-2.9673,-2.9982,-2.98,-2.952,-2.9521,-2.9744,-2.9757,-2.9162,-2.8999,-2.8895,-2.859,-2.8089,-2.7885,-2.8414,-2.8065,-2.7717,-2.7717,-2.7717,-2.7428,-2.661,-2.6743,-2.6598,-2.5781,-2.5709,-2.5588,-2.5336,-2.5312,-2.5312,-2.5312,-2.5111,-2.4909,-2.4502,-2.4116,-2.3593,-2.2852,-2.2464,-2.1876,-2.1017,-2.0324,-1.9687,-1.9079,-1.8655,-1.8632,-3.946,-3.8943,-3.8708,-3.859,-3.8366,-3.8072,0.0,0.0,0.0,-3.7331,-3.6968,-3.691,-3.7694,0.0,0.0,-3.9146,0.0,0.0,0.0,-4.0003,0.0,-3.9421,-3.8681,-3.7709,-3.6431,-3.4322,-3.2384,-3.0698,-2.997,-2.929,-2.8724,-2.8071,-2.7015,-2.5438,-2.5261,-2.4769,-2.3804,-2.2398,-2.1695,-2.168,-2.0902,-2.0288,-1.9981,-2.2041,-2.2762,-2.2478,-2.4233,-2.5221,-2.5717,-2.6659,-2.7083,-2.7161,-2.8244,-2.8891,-2.9276,-2.9796,-3.0013,-3.0186,-3.0924,-3.0925,-3.0568,-3.0568,-3.0568,-3.0568,-3.0568,-3.0568,-3.0568,-3.0568,-3.0097,-2.9715,-3.0079,-2.9426,-2.8792,-2.9188,-2.8864,-2.8474,-2.8435,-2.8354,-2.8366,-2.8366,-2.8089,-2.7981,-2.8306,-2.827,-2.8029,-2.7488,-2.7861,-2.7861,-2.6899,-2.7236,-2.7188,-2.6202,-2.6093,-2.5877,-2.536,-2.5241,-2.5182,-2.5182,-2.4849,-2.449,-2.4127,-2.3694,-2.3112,-2.2363,-2.22,-2.1686,-2.078,-2.0158,-1.9677,-1.9402,-1.8687,-1.8687,-3.9222,-3.8943,-3.8708,-3.859,-3.8366,-3.8188,-3.8115,0.0,-3.7955,-3.7418,0.0,-3.768,-3.6707,0.0,0.0,0.0,0.0,0.0,-3.8507,-3.8388,-3.8703,-3.9851,-3.8928,-3.7709,-3.6431,-3.3414,-3.129,-3.0669,-2.9875,-2.9199,-2.8739,-2.8071,-2.7205,-2.61,-2.5497,-2.4991,-2.4477,-2.2637,-2.1695,-2.168,-2.0408,-2.0079,-2.0632,-2.1479,-2.2149,-2.2746,-2.4484,-2.5068,-2.4882,-2.652,-2.7008,-2.6853,-2.867,-2.8905,-2.8432,-2.9688,-2.9982,-2.977,-3.0469,-3.0628,-3.0568,-3.0568,-3.0568,-3.0568,-3.0568,-3.0568,-3.0568,-3.0568,-3.0097,-2.9491,-2.9091,-2.8851,-2.8585,-2.8019,-2.7914,-2.7866,-2.7839,-2.7765,-2.7813,-2.7813,-2.8138,-2.8294,-2.7885,-2.7428,-2.6923,-2.637,-2.6755,-2.6899,-2.6274,-2.6683,-2.6779,-2.6166,-2.6093,-2.5877,-2.536,-2.5052,-2.4861,-2.4861,-2.449,-2.4116,-2.3666,-2.3091,-2.2966,-2.3238,-2.1719,-2.0909,-2.078,-1.986,-1.954,-1.9842,-1.9384,-1.9219,-3.912,-3.8797,-3.859,-3.8366,-3.8277,-3.8202,-3.8202,-3.8202,-3.813,-3.7883,0.0,0.0,0.0,0.0,0.0,0.0,-3.6316,-3.6122,0.0,0.0,-3.6353,-3.8147,0.0,0.0,-3.41,-3.2744,-3.1481,-3.0572,-2.9496,-2.8802,-2.8578,-2.7691,-2.6855,-2.6088,-2.5526,-2.4973,-2.4491,-2.3014,-2.2069,-2.168,-2.0737,-2.0438,-2.0737,-2.1395,-2.2248,-2.3266,-2.4428,-2.5228,-2.5809,-2.6525,-2.7218,-2.7844,-2.8847,-2.9062,-2.8803,-2.9675,-3.0075,-3.0219,-3.048,-3.0568,-3.0568,-3.0568,-3.0568,-3.0568,-3.0568,-3.0568,-3.0568,-3.0568,-2.9884,-2.9071,-2.8867,-2.8,-2.7176,-2.6926,-2.6795,-2.6785,-2.6805,-2.7272,-2.7717,-2.7717,-2.815,-2.8342,-2.7813,-2.7536,-2.7103,-2.6226,-2.6574,-2.6731,-2.6166,-2.6586,-2.6719,-2.6154,-2.6093,-2.5877,-2.536,-2.4992,-2.479,-2.479,-2.4476,-2.388,-2.3102,-2.334,-2.3134,-2.2349,-2.2084,-2.1484,-2.0587,-2.0172,-1.998,-1.9916,-1.9494,-1.9301,-3.8988,-3.8723,-3.8516,-3.8277,-3.8202,-3.8202,-3.8202,-3.8072,-3.7999,-3.8173,-3.7331,0.0,0.0,0.0,-3.5476,-3.6302,0.0,-3.4688,0.0,-3.4197,-3.4153,-3.606,-3.5182,0.0,0.0,-3.2055,-3.1488,-3.0419,-2.916,-2.8429,-2.8479,-2.7399,-2.663,-2.6301,-2.5692,-2.528,-2.4934,-2.3598,-2.2655,-2.2203,-2.138,-2.1081,-2.1276,-2.1919,-2.2832,-2.3924,-2.4792,-2.5704,-2.6617,-2.6991,-2.7709,-2.8682,-2.9273,-2.9418,-2.9395,-2.9885,-3.0309,-3.0568,-3.0568,-3.0568,-3.0568,-3.0568,-3.0568,-3.0568,-3.0568,-3.0447,-3.0312,-3.0312,-2.9421,-2.8454,-2.8325,-2.7217,-2.6201,-2.6198,-2.5995,-2.5925,-2.6069,-2.6839,-2.7512,-2.7512,-2.8053,-2.8342,-2.7813,-2.7837,-2.7572,-2.649,-2.6791,-2.7007,-2.6598,-2.6767,-2.6779,-2.637,-2.619,-2.5877,-2.536,-2.4992,-2.4646,-2.4345,-2.4089,-2.3504,-2.2616,-2.3124,-2.2897,-2.1543,-2.1969,-2.1569,-2.0356,-2.0246,-2.0035,-1.9751,-1.9439,-1.9301,0.0,0.0,-3.8708,-3.8277,-3.8202,-3.8202,-3.8202,-3.7752,-3.7491,-3.8086,-3.7709,-3.7288,-3.7302,-3.7259,-3.6591,-3.458,-3.479,0.0,0.0,-3.2421,-3.2482,-3.3914,-3.3465,-3.2766,0.0,-3.1375,-3.0752,-3.024,-2.8966,-2.8319,-2.8521,-2.7337,-2.6775,-2.6937,-2.6316,-2.6115,-2.6312,-2.4371,-2.345,-2.352,-2.2263,-2.1994,-2.2679,-2.3251,-2.3924,-2.4627,-2.5959,-2.6557,-2.6692,-2.7993,-2.8562,-2.8727,-2.9983,-3.0283,-3.0102,-3.0425,-3.0613,-3.0568,-3.0568,-3.0568,-3.0568,-3.0568,-3.0568,-3.0568,-3.0568,-3.0129,-2.9623,-2.9623,-2.8712,-2.7604,-2.7136,-2.6607,-2.6148,-2.6094,-2.5697,-2.548,-2.5985,-2.655,-2.6959,-2.6959,-2.7801,-2.8342,-2.7813,-2.815,-2.8126,-2.7067,-2.7356,-2.7693,-2.7669,-2.7236,-2.6923,-2.6911,-2.6418,-2.5877,-2.536,-2.4992,-2.4273,-2.315,-2.3012,-2.2767,-2.2203,-2.1957,-2.1792,-2.1607,-2.0876,-2.0356,-1.9943,-1.954,-1.9329,-1.932,-1.9311,-1.9301,0.0,0.0,-3.8723,-3.8441,0.0,-3.8366,-3.8202,-3.7738,-3.7329,-3.7363,-3.65,-3.5628,-3.5119,-3.471,-3.4067,-3.2959,-3.2535,-3.2145,0.0,-3.1007,-3.079,-3.1642,-3.1701,-3.1334,-3.0705,0.0,-3.0655,-3.0124,-2.9235,-2.8481,-2.7799,-2.7033,-2.6345,-2.5729,-2.5526,-2.5509,-2.5676,-2.4582,-2.3926,-2.3595,-2.2742,-2.2499,-2.2739,-2.331,-2.4208,-2.533,-2.6213,-2.7096,-2.7949,-2.8412,-2.9101,-2.9909,-3.0149,-3.0423,-3.0793,-3.0881,-3.0762,-3.0568,-3.0568,-3.0568,-3.0568,-3.0568,-3.0568,-3.0507,-3.0068,-2.9808,-2.9484,-2.903,-2.8051,-2.7124,-2.6934,-2.6264,-2.5572,-2.5612,-2.5444,-2.536,-2.554,-2.5997,-2.6382,-2.6382,-2.6971,-2.7404,-2.7236,-2.7356,-2.7344,-2.6983,-2.7079,-2.72,-2.72,-2.6719,-2.6382,-2.6382,-2.5901,-2.5504,-2.5324,-2.4539,-2.3812,-2.3438,-2.3069,-2.2611,-2.1947,-2.2249,-2.1931,-2.0866,-2.0863,-2.0585,-1.9934,-1.9787,-1.9577,-1.9301,-1.9301,-1.9301,-3.9104,-3.8708,0.0,-3.8098,-3.7782,0.0,-3.7323,-3.6869,-3.6372,-3.6406,-3.5468,-3.454,-3.4303,-3.3688,-3.3003,-3.2199,-3.1585,-3.1068,0.0,-3.0062,-2.993,-3.0281,-3.0432,-3.0417,-3.0213,-3.0392,-3.034,-2.9918,-2.9353,-2.8602,-2.7741,-2.7169,-2.647,-2.5629,-2.5453,-2.5408,-2.5638,-2.4805,-2.436,-2.4354,-2.3733,-2.3525,-2.3744,-2.4373,-2.5136,-2.5989,-2.6647,-2.7575,-2.8622,-2.8861,-2.9564,-3.0537,-3.058,-3.082,-3.1087,-3.0955,-3.0762,-3.0568,-3.0568,-3.0568,-3.0568,-3.0568,-3.0447,-3.019,-2.9747,-2.9233,-2.8776,-2.8312,-2.7391,-2.6539,-2.6539,-2.5931,-2.5312,-2.5312,-2.5312,-2.5312,-2.5312,-2.5721,-2.6093,-2.6093,-2.655,-2.6935,-2.6935,-2.7091,-2.7152,-2.6959,-2.6767,-2.6707,-2.6911,-2.6442,-2.6093,-2.6093,-2.5793,-2.5362,-2.4874,-2.4181,-2.3558,-2.2905,-2.2801,-2.2269,-2.1303,-2.1797,-2.1504,-2.0319,-2.0558,-2.0365,-1.9705,-1.9705,-1.9567,-1.9301,-1.9301,-1.9301]},{"header":{"parameterUnit":"m.s-1","parameterCategory":1,"la1":30.6,"la2":29.2853,"lo1":-89.7004,"lo2":-87.6739,"dy":0.0162,"dx":0.0183,"nx":112,"ny":82,"refTime":"2023-06-23T12:00:00:Z","depth":0,"parameterNumber":3,"parameterNumberName":"V-component_of_WINDS"},"data":[0.0,0.0,0.0,0.0,0.0,0.0,0.0,0.0,0.0,0.0,0.0,0.0,0.0,0.0,0.0,0.0,0.0,0.0,0.0,0.0,0.0,0.0,0.0,0.0,0.0,0.0,0.0,0.0,0.0,0.0,0.0,0.0,0.0,0.0,0.0,0.0,0.0,0.0,0.0,0.0,0.0,0.0,0.0,0.0,0.0,0.0,0.0,0.0,0.0,0.0,0.0,0.0,0.0,0.0,0.0,0.0,0.0,0.0,0.0,0.0,0.0,0.0,0.0,0.0,0.0,0.0,0.0,0.0,0.0,0.0,0.0,0.0,0.0,0.0,0.0,0.0,0.0,0.0,0.0,0.0,0.0,0.0,0.0,0.0,0.0,0.0,0.0,0.0,0.0,0.0,-2.625,-2.7881,-3.1553,-3.4404,-3.5703,-3.5371,-3.4132,-3.1929,0.0,0.0,0.0,0.0,0.0,0.0,0.0,0.0,0.0,0.0,0.0,0.0,0.0,0.0,0.0,0.0,0.0,0.0,0.0,0.0,0.0,0.0,0.0,0.0,0.0,0.0,0.0,0.0,0.0,0.0,0.0,0.0,0.0,0.0,0.0,0.0,0.0,0.0,0.0,0.0,0.0,0.0,0.0,0.0,0.0,0.0,0.0,0.0,0.0,0.0,0.0,0.0,0.0,0.0,0.0,0.0,0.0,0.0,0.0,0.0,0.0,0.0,0.0,0.0,0.0,0.0,0.0,0.0,0.0,0.0,0.0,0.0,0.0,0.0,0.0,0.0,0.0,0.0,0.0,0.0,0.0,0.0,0.0,0.0,0.0,0.0,0.0,0.0,0.0,0.0,0.0,0.0,0.0,0.0,0.0,0.0,0.0,0.0,0.0,0.0,0.0,0.0,0.0,0.0,-2.6357,-2.9482,-3.1719,-3.3506,-3.4795,-3.4428,-3.3267,-3.1247,0.0,0.0,0.0,0.0,0.0,0.0,0.0,0.0,0.0,0.0,0.0,0.0,0.0,0.0,0.0,0.0,0.0,0.0,0.0,0.0,0.0,0.0,0.0,0.0,0.0,0.0,0.0,0.0,0.0,0.0,0.0,0.0,0.0,0.0,0.0,0.0,0.0,0.0,0.0,0.0,0.0,0.0,0.0,0.0,0.0,0.0,0.0,0.0,0.0,0.0,0.0,0.0,0.0,0.0,0.0,0.0,0.0,0.0,0.0,0.0,0.0,0.0,0.0,0.0,0.0,0.0,0.0,0.0,0.0,0.0,0.0,0.0,0.0,0.0,0.0,0.0,0.0,0.0,0.0,0.0,0.0,0.0,0.0,0.0,0.0,0.0,0.0,0.0,0.0,0.0,0.0,0.0,0.0,0.0,0.0,0.0,0.0,0.0,0.0,0.0,0.0,0.0,0.0,-2.5547,-2.6914,-2.9883,-3.1338,-3.274,-3.4152,-3.3816,-3.2873,-3.1378,-3.0463,0.0,0.0,0.0,0.0,0.0,0.0,0.0,0.0,0.0,0.0,0.0,0.0,0.0,0.0,0.0,0.0,0.0,0.0,0.0,0.0,0.0,0.0,0.0,0.0,0.0,0.0,0.0,0.0,0.0,0.0,0.0,0.0,0.0,0.0,0.0,0.0,0.0,0.0,0.0,0.0,0.0,0.0,0.0,0.0,0.0,0.0,0.0,0.0,0.0,0.0,0.0,0.0,0.0,0.0,0.0,0.0,0.0,0.0,0.0,0.0,0.0,0.0,0.0,0.0,0.0,0.0,0.0,0.0,0.0,0.0,0.0,0.0,0.0,0.0,0.0,0.0,0.0,0.0,0.0,0.0,0.0,0.0,0.0,0.0,0.0,0.0,0.0,0.0,0.0,0.0,0.0,0.0,0.0,0.0,0.0,0.0,0.0,0.0,0.0,0.0,0.0,0.0,-2.6535,-2.7623,-2.9892,-3.0986,-3.2194,-3.3649,-3.3576,-3.2879,-3.1439,-3.0916,0.0,0.0,0.0,0.0,0.0,0.0,0.0,0.0,0.0,0.0,0.0,0.0,0.0,0.0,0.0,0.0,0.0,0.0,0.0,0.0,0.0,0.0,0.0,0.0,0.0,0.0,0.0,0.0,0.0,0.0,0.0,0.0,0.0,0.0,0.0,0.0,0.0,0.0,0.0,0.0,0.0,0.0,0.0,0.0,0.0,0.0,0.0,0.0,0.0,0.0,0.0,0.0,0.0,0.0,0.0,0.0,0.0,0.0,0.0,0.0,0.0,0.0,0.0,0.0,0.0,0.0,0.0,0.0,0.0,0.0,0.0,0.0,0.0,0.0,0.0,0.0,0.0,0.0,0.0,0.0,0.0,0.0,0.0,0.0,0.0,0.0,0.0,0.0,0.0,0.0,0.0,0.0,0.0,0.0,0.0,0.0,0.0,0.0,0.0,0.0,0.0,0.0,-2.6783,-2.816,-2.9677,-3.1092,-3.2306,-3.3035,-3.3817,-3.3247,-3.104,-3.1496,0.0,0.0,0.0,0.0,0.0,0.0,0.0,0.0,0.0,0.0,0.0,0.0,0.0,0.0,0.0,0.0,0.0,0.0,0.0,0.0,0.0,0.0,0.0,0.0,0.0,0.0,0.0,0.0,0.0,0.0,0.0,0.0,0.0,0.0,0.0,0.0,0.0,0.0,0.0,0.0,0.0,0.0,0.0,0.0,0.0,0.0,0.0,0.0,0.0,0.0,0.0,0.0,0.0,0.0,0.0,0.0,0.0,0.0,0.0,0.0,0.0,0.0,0.0,0.0,0.0,0.0,0.0,0.0,0.0,0.0,0.0,0.0,0.0,0.0,0.0,0.0,0.0,0.0,0.0,0.0,0.0,0.0,0.0,0.0,0.0,0.0,0.0,0.0,0.0,0.0,0.0,0.0,0.0,0.0,0.0,0.0,0.0,0.0,0.0,0.0,0.0,0.0,-2.6713,-2.7901,-2.9263,-3.062,-3.1808,-3.2484,-3.4011,-3.3786,-3.1223,0.0,0.0,0.0,0.0,0.0,0.0,0.0,0.0,0.0,0.0,0.0,0.0,0.0,0.0,0.0,0.0,0.0,0.0,0.0,0.0,0.0,0.0,0.0,0.0,0.0,0.0,0.0,0.0,0.0,0.0,0.0,0.0,0.0,0.0,0.0,0.0,0.0,0.0,0.0,0.0,0.0,0.0,0.0,0.0,0.0,0.0,0.0,0.0,0.0,0.0,0.0,0.0,0.0,0.0,0.0,0.0,0.0,0.0,0.0,0.0,0.0,0.0,0.0,0.0,0.0,0.0,0.0,0.0,0.0,0.0,0.0,0.0,0.0,0.0,0.0,0.0,0.0,0.0,0.0,0.0,0.0,0.0,0.0,0.0,0.0,0.0,0.0,0.0,0.0,0.0,0.0,0.0,0.0,0.0,0.0,0.0,0.0,0.0,0.0,0.0,0.0,0.0,-2.5623,-2.6526,-2.7774,-2.9211,-3.0549,-3.1799,-3.308,-3.4307,-3.4153,-3.2197,0.0,0.0,0.0,0.0,0.0,0.0,0.0,0.0,0.0,0.0,0.0,0.0,0.0,0.0,0.0,0.0,0.0,0.0,0.0,0.0,0.0,0.0,0.0,0.0,0.0,0.0,0.0,0.0,0.0,0.0,0.0,0.0,0.0,0.0,0.0,0.0,0.0,0.0,0.0,0.0,0.0,0.0,0.0,0.0,0.0,0.0,0.0,0.0,0.0,0.0,0.0,0.0,0.0,0.0,0.0,0.0,0.0,0.0,0.0,0.0,0.0,0.0,0.0,0.0,0.0,0.0,0.0,0.0,0.0,0.0,0.0,0.0,0.0,0.0,0.0,0.0,0.0,0.0,0.0,0.0,0.0,0.0,0.0,0.0,0.0,0.0,0.0,0.0,0.0,0.0,0.0,0.0,0.0,0.0,0.0,0.0,0.0,0.0,0.0,0.0,0.0,0.0,-2.5502,-2.6526,-2.7854,-2.9735,-3.0977,-3.259,-3.4842,-3.4717,-3.4266,0.0,0.0,0.0,0.0,0.0,0.0,0.0,0.0,0.0,0.0,0.0,0.0,0.0,0.0,0.0,0.0,0.0,0.0,0.0,0.0,0.0,0.0,0.0,0.0,0.0,0.0,0.0,0.0,0.0,0.0,0.0,0.0,0.0,0.0,0.0,0.0,0.0,0.0,0.0,0.0,0.0,0.0,0.0,0.0,0.0,0.0,0.0,0.0,0.0,0.0,0.0,0.0,0.0,0.0,0.0,0.0,0.0,0.0,0.0,0.0,0.0,0.0,0.0,0.0,0.0,0.0,0.0,0.0,0.0,0.0,0.0,0.0,0.0,0.0,0.0,0.0,0.0,0.0,0.0,0.0,0.0,0.0,0.0,0.0,0.0,0.0,0.0,0.0,0.0,0.0,0.0,0.0,0.0,0.0,0.0,0.0,0.0,0.0,0.0,0.0,0.0,0.0,0.0,-2.5743,-2.6886,-2.8006,-2.8938,-3.1243,-3.2922,-3.3628,-3.5279,-3.5414,-3.3373,0.0,0.0,0.0,0.0,0.0,0.0,0.0,0.0,0.0,0.0,0.0,0.0,0.0,0.0,0.0,0.0,0.0,0.0,0.0,0.0,0.0,0.0,0.0,0.0,0.0,0.0,0.0,0.0,0.0,0.0,0.0,0.0,0.0,0.0,0.0,0.0,0.0,0.0,0.0,0.0,0.0,0.0,0.0,0.0,0.0,0.0,0.0,0.0,0.0,0.0,0.0,0.0,0.0,0.0,0.0,0.0,0.0,0.0,0.0,0.0,0.0,0.0,0.0,0.0,0.0,0.0,0.0,0.0,0.0,0.0,0.0,0.0,0.0,0.0,0.0,0.0,0.0,0.0,0.0,0.0,0.0,0.0,0.0,0.0,0.0,0.0,0.0,0.0,0.0,0.0,0.0,0.0,0.0,0.0,0.0,0.0,0.0,0.0,0.0,0.0,0.0,0.0,-2.5802,-2.692,-2.8161,-2.9373,-3.1506,-3.3155,-3.398,-3.5509,-3.5487,-3.3198,0.0,0.0,0.0,0.0,0.0,0.0,0.0,0.0,0.0,0.0,0.0,0.0,0.0,0.0,0.0,0.0,0.0,0.0,0.0,0.0,0.0,0.0,0.0,0.0,0.0,0.0,0.0,0.0,0.0,0.0,0.0,0.0,0.0,0.0,0.0,0.0,0.0,0.0,0.0,0.0,0.0,0.0,0.0,0.0,0.0,0.0,0.0,0.0,0.0,0.0,0.0,0.0,0.0,0.0,0.0,0.0,0.0,0.0,0.0,0.0,0.0,0.0,0.0,0.0,0.0,0.0,0.0,0.0,0.0,0.0,0.0,0.0,0.0,0.0,0.0,0.0,0.0,0.0,0.0,0.0,0.0,0.0,0.0,0.0,0.0,0.0,0.0,0.0,0.0,0.0,0.0,0.0,0.0,0.0,0.0,0.0,0.0,0.0,0.0,0.0,0.0,0.0,-2.5941,-2.6961,-2.8391,-3.0669,-3.1834,-3.3345,-3.5238,-3.5521,-3.4942,-3.3244,0.0,0.0,0.0,0.0,0.0,0.0,0.0,0.0,0.0,0.0,0.0,0.0,0.0,0.0,0.0,0.0,0.0,0.0,0.0,0.0,0.0,0.0,0.0,0.0,0.0,0.0,0.0,0.0,0.0,0.0,0.0,0.0,0.0,0.0,0.0,0.0,0.0,0.0,0.0,0.0,0.0,0.0,0.0,0.0,0.0,0.0,0.0,0.0,0.0,0.0,0.0,0.0,0.0,0.0,0.0,0.0,0.0,0.0,0.0,0.0,-2.7865,-2.7772,0.0,0.0,0.0,0.0,0.0,0.0,0.0,0.0,0.0,0.0,0.0,0.0,0.0,0.0,0.0,0.0,0.0,0.0,0.0,0.0,0.0,0.0,0.0,0.0,0.0,0.0,0.0,0.0,0.0,0.0,0.0,0.0,0.0,0.0,0.0,0.0,0.0,0.0,0.0,0.0,-2.6931,-2.8464,-2.9894,-3.077,-3.2889,-3.4276,-3.4366,-3.6084,-3.61,-3.349,-3.3556,0.0,0.0,0.0,0.0,0.0,0.0,0.0,0.0,0.0,0.0,0.0,0.0,0.0,0.0,0.0,0.0,0.0,0.0,0.0,0.0,0.0,0.0,0.0,0.0,0.0,0.0,0.0,0.0,0.0,0.0,0.0,0.0,0.0,0.0,0.0,0.0,0.0,0.0,0.0,0.0,0.0,0.0,0.0,0.0,0.0,0.0,0.0,0.0,0.0,0.0,0.0,0.0,0.0,0.0,0.0,0.0,0.0,0.0,0.0,-2.8495,-2.8856,0.0,0.0,0.0,0.0,0.0,0.0,0.0,0.0,0.0,0.0,0.0,0.0,0.0,0.0,0.0,0.0,0.0,0.0,0.0,0.0,0.0,0.0,0.0,0.0,0.0,0.0,0.0,0.0,0.0,0.0,0.0,0.0,0.0,0.0,0.0,0.0,0.0,0.0,0.0,0.0,-2.7206,-2.9004,-3.0536,-3.1492,-3.3385,-3.4567,-3.4521,-3.6238,-3.6284,-3.3734,-3.3738,0.0,0.0,0.0,0.0,0.0,0.0,0.0,0.0,0.0,0.0,0.0,0.0,0.0,0.0,0.0,0.0,0.0,0.0,0.0,0.0,0.0,0.0,0.0,0.0,0.0,0.0,0.0,0.0,0.0,0.0,0.0,0.0,0.0,0.0,0.0,0.0,0.0,0.0,0.0,0.0,0.0,0.0,0.0,0.0,0.0,0.0,0.0,0.0,0.0,0.0,0.0,0.0,0.0,-2.5927,-2.6149,-2.51,-2.7221,-2.8481,-2.9034,-2.9391,-3.0068,-3.0864,-3.0098,0.0,0.0,0.0,0.0,0.0,0.0,0.0,0.0,0.0,0.0,0.0,0.0,0.0,0.0,0.0,0.0,0.0,0.0,0.0,0.0,0.0,0.0,-2.8323,-2.8084,-2.8536,-2.8582,-2.6972,0.0,0.0,0.0,0.0,0.0,0.0,0.0,0.0,0.0,0.0,0.0,-2.7732,-2.9527,-3.1222,-3.2459,-3.3741,-3.4656,-3.4997,-3.6325,-3.6289,-3.4131,-3.4159,-3.3454,0.0,0.0,0.0,0.0,0.0,0.0,0.0,0.0,0.0,0.0,0.0,0.0,0.0,0.0,0.0,0.0,0.0,0.0,0.0,0.0,0.0,0.0,0.0,0.0,0.0,0.0,0.0,0.0,0.0,0.0,0.0,0.0,-2.4266,-2.3635,0.0,0.0,0.0,0.0,0.0,0.0,0.0,0.0,0.0,0.0,0.0,0.0,0.0,-2.2116,-2.302,-2.4719,-2.5582,-2.5582,-2.7822,-2.8567,-2.78,-2.95,-3.0601,-3.1285,-3.2153,0.0,-3.1847,-3.1733,0.0,0.0,0.0,0.0,0.0,0.0,0.0,0.0,0.0,0.0,0.0,0.0,0.0,0.0,0.0,0.0,0.0,0.0,0.0,0.0,0.0,0.0,-3.0109,-2.8911,-2.9676,-3.0426,-2.9861,-2.8498,-2.7086,-2.6506,-2.678,-2.6665,0.0,0.0,0.0,0.0,0.0,0.0,-2.9677,-3.165,-3.3056,-3.323,-3.4502,-3.5137,-3.4676,-3.638,-3.6638,-3.4844,-3.4998,-3.4314,-3.2646,-3.2032,0.0,0.0,0.0,0.0,0.0,0.0,0.0,0.0,0.0,0.0,0.0,0.0,0.0,0.0,0.0,0.0,0.0,0.0,0.0,0.0,0.0,0.0,0.0,0.0,0.0,0.0,0.0,0.0,0.0,-2.3358,-2.3904,-2.3374,-2.3224,-2.247,0.0,0.0,0.0,0.0,0.0,0.0,0.0,0.0,0.0,-2.2308,-2.3339,-2.4456,-2.5438,-2.7254,-2.811,-2.8118,-2.9554,-3.0012,-2.953,-3.0416,-3.1379,-3.245,-3.2832,-3.3267,-3.3492,-3.2468,-3.1681,-3.0998,0.0,0.0,0.0,0.0,-2.7945,-2.7893,-2.9145,-2.8928,-2.8204,-2.8804,0.0,0.0,0.0,0.0,0.0,0.0,0.0,-2.8528,0.0,0.0,-3.0889,-3.0813,-3.1001,-3.1247,-3.105,-3.0154,-2.916,-2.8593,-2.8833,-2.8466,-2.6563,-2.7748,0.0,0.0,0.0,-3.0978,-3.0978,-3.2444,-3.3556,-3.3556,-3.4456,-3.5156,-3.5221,-3.6184,-3.6376,-3.5609,-3.5057,-3.4162,-3.2751,-3.215,-3.1575,0.0,0.0,0.0,0.0,0.0,0.0,0.0,0.0,0.0,0.0,0.0,0.0,0.0,0.0,0.0,0.0,0.0,0.0,0.0,0.0,0.0,0.0,0.0,0.0,0.0,0.0,0.0,0.0,-2.3417,-2.411,-2.3734,-2.3896,-2.3382,0.0,0.0,0.0,0.0,0.0,0.0,-2.1672,-2.2081,-2.2936,-2.4191,-2.5334,-2.6581,-2.7723,-2.9177,-3.0046,-3.0189,-3.084,-3.1003,-3.0729,-3.102,-3.1678,-3.2646,-3.2899,-3.3593,-3.4442,-3.3231,-3.253,-3.2064,-3.0584,-2.986,-2.9642,-2.9528,-2.9259,-2.9177,-3.0677,-3.0367,-2.9363,-2.9715,-2.9226,-2.8362,-2.7889,0.0,0.0,0.0,0.0,-2.9562,-3.0383,-3.0921,-3.1427,-3.2042,-3.2013,-3.1805,-3.1694,-3.1263,-3.0771,-3.0215,-3.0382,-3.019,-2.8347,-2.9538,0.0,-2.843,-3.0362,-3.1913,-3.1913,-3.3018,-3.381,-3.381,-3.4495,-3.5185,-3.5613,-3.5944,-3.6109,-3.6109,-3.5182,-3.411,-3.2973,-3.2372,-3.1718,-3.0999,0.0,0.0,0.0,0.0,0.0,0.0,0.0,0.0,0.0,0.0,0.0,0.0,0.0,0.0,0.0,0.0,0.0,0.0,0.0,0.0,0.0,0.0,0.0,0.0,0.0,0.0,0.0,0.0,0.0,-2.53,-2.5654,0.0,0.0,0.0,0.0,-2.2567,-2.281,-2.2947,-2.2981,-2.3618,-2.4662,-2.6023,-2.6494,-2.7524,-2.9286,-2.9649,-3.0257,-3.096,-3.1354,-3.1525,-3.1508,-3.1534,-3.167,-3.2159,-3.3056,-3.3642,-3.3978,-3.4462,-3.3855,-3.2644,-3.2106,-3.1371,-3.0563,-3.0118,-2.9942,-3.0005,-3.0532,-3.0098,-2.9528,-3.0843,-3.0748,-3.0098,-3.0535,-3.0078,0.0,0.0,-3.0444,-3.0899,-3.1461,-3.2028,-3.2174,-3.1783,-3.2056,-3.23,-3.1842,-3.1492,-3.1078,0.0,-3.0812,-3.0991,-3.0838,0.0,-3.1889,-3.1415,-3.2235,-3.2784,-3.2784,-3.3547,-3.4076,-3.4076,-3.4777,-3.5312,-3.5338,-3.5809,-3.6109,-3.6109,-3.5574,-3.4737,-3.3587,-3.2973,-3.2123,-3.0999,-3.0451,0.0,0.0,0.0,0.0,0.0,0.0,0.0,0.0,0.0,0.0,0.0,0.0,0.0,0.0,0.0,0.0,0.0,0.0,0.0,0.0,0.0,0.0,0.0,0.0,0.0,0.0,0.0,0.0,-2.5806,-2.6671,0.0,-2.5534,-2.4746,-2.4324,-2.4324,-2.4547,-2.4686,-2.4657,-2.5088,-2.5803,-2.7076,-2.7772,-2.8691,-3.0021,-3.0733,-3.109,-3.1371,-3.1499,-3.1568,-3.1551,-3.1319,-3.1478,-3.2034,-3.2823,-3.3421,-3.3892,-3.4575,-3.43,-3.3524,-3.2768,-3.2106,-3.1505,-3.105,-3.0698,-3.0608,-3.1377,-3.1032,-3.0377,-3.0888,-3.0914,-3.0722,-3.0929,-3.0975,-3.1049,-3.1558,-3.1587,-3.1603,-3.2116,-3.1854,-3.1547,-3.1695,-3.1682,-3.149,-3.1318,-3.1216,-3.1067,-3.0994,-3.1908,-3.2396,-3.1798,-3.2997,-3.3663,-3.2084,-3.2995,-3.3848,-3.3848,-3.41,-3.4314,-3.4314,-3.451,-3.4724,-3.4724,-3.458,-3.4489,-3.4489,-3.394,-3.3273,-3.2489,-3.2267,-3.1784,-3.0999,-3.079,-3.0503,0.0,0.0,0.0,0.0,0.0,0.0,0.0,0.0,0.0,0.0,0.0,0.0,0.0,0.0,0.0,0.0,0.0,0.0,0.0,0.0,0.0,0.0,0.0,0.0,0.0,-2.5583,-2.7021,-2.6396,-2.7588,-2.8085,-2.7102,-2.6745,-2.644,-2.6176,-2.6482,-2.6578,-2.6018,-2.6712,-2.7425,-2.8392,-2.9107,-3.0018,-3.0835,-3.1277,-3.1568,-3.1568,-3.1439,-3.1379,-3.1362,-3.0986,-3.1019,-3.1309,-3.2478,-3.303,-3.3505,-3.4442,-3.4486,-3.3989,-3.3244,-3.2675,-3.2219,-3.1764,-3.1309,-3.1023,-3.1529,-3.1422,-3.1154,-3.1337,-3.1418,-3.1555,-3.1664,-3.1957,-3.2328,-3.2661,-3.2523,-3.2305,-3.2454,-3.2007,-3.1513,-3.1513,-3.126,-3.0962,-3.0778,-3.11,-3.1439,-3.162,-3.2421,-3.2996,-3.2744,-3.399,-3.4536,-3.3267,-3.385,-3.4397,-3.4397,-3.4397,-3.4397,-3.4397,-3.4241,-3.4123,-3.4123,-3.3796,-3.3496,-3.33,-3.3104,-3.2646,-3.1798,-3.1759,-3.1575,-3.0999,-3.079,-3.0424,-2.9849,0.0,0.0,0.0,0.0,0.0,0.0,0.0,0.0,0.0,0.0,0.0,0.0,0.0,0.0,0.0,0.0,0.0,0.0,0.0,0.0,0.0,0.0,0.0,-2.4907,-2.6465,-2.7527,-2.7201,-2.858,-2.9353,-2.8974,-2.9169,-2.9102,-2.8273,-2.8908,-2.8578,-2.7151,-2.8475,-2.94,-2.9782,-3.051,-3.1211,-3.1568,-3.1568,-3.1568,-3.1559,-3.1191,-3.102,-3.1003,-3.0592,-3.0224,-3.0023,-3.1946,-3.2605,-3.2454,-3.4033,-3.4455,-3.4,-3.3555,-3.3099,-3.2654,-3.2188,-3.1733,-3.1314,-3.101,-3.1208,-3.1721,-3.2218,-3.2409,-3.2521,-3.3147,-3.3258,-3.3258,-3.3247,-3.3224,-3.3097,-3.2569,-3.2431,-3.2179,-3.1215,-3.0996,-3.0847,-3.0331,-3.1258,-3.2314,-3.2314,-3.2302,-3.2736,-3.3971,-3.4314,-3.4593,-3.5182,-3.4776,0.0,-3.4397,-3.4397,-3.4397,-3.4397,-3.3927,-3.36,-3.3561,-3.3561,-3.33,-3.2672,-3.3195,-3.2999,-3.1785,-3.1823,-3.1548,-3.0999,-3.0451,-2.9876,-2.9301,0.0,0.0,0.0,0.0,0.0,0.0,0.0,0.0,0.0,0.0,0.0,0.0,0.0,0.0,0.0,0.0,0.0,0.0,0.0,0.0,0.0,-2.4588,-2.5746,-2.5643,-2.7261,-2.8622,-2.9068,-2.9764,-3.025,-3.0772,-3.0366,-2.9936,-2.9337,-2.9536,-2.9219,-2.821,-2.9105,-2.9774,-3.0279,-3.0414,-3.0944,-3.1568,-3.1568,-3.1568,-3.1559,-3.1191,-3.102,-3.0994,-3.0343,-2.9992,-2.9997,-3.0714,-3.1401,-3.1988,-3.2492,-3.3079,-3.3555,-3.343,-3.2903,-3.2178,-3.1723,-3.159,-3.1575,-3.19,-3.2331,-3.2869,-3.2958,-3.3069,-3.2989,-3.2822,-3.2707,-3.2627,-3.2282,-3.1926,-3.1605,-3.1456,-3.1123,-3.0767,-3.0503,-3.0434,-3.0399,-3.025,-3.0925,-3.1548,-3.1548,-3.2426,-3.3338,-3.4172,-3.4418,-3.445,-3.462,-3.4502,0.0,-3.4397,-3.4397,-3.4397,-3.4397,-3.4267,-3.3849,-3.3012,-3.2934,-3.2515,-3.1522,-3.1614,-3.1561,-3.1235,-3.1222,-3.1143,-3.0986,-3.083,-3.0477,0.0,0.0,0.0,0.0,0.0,0.0,0.0,0.0,0.0,0.0,0.0,0.0,0.0,0.0,0.0,0.0,0.0,0.0,0.0,0.0,0.0,0.0,-2.5515,-2.6756,-2.7081,-2.8477,-2.9633,-3.0069,-3.0583,-3.0932,-3.1084,-3.1128,-3.0673,-2.9721,-3.0146,-3.0096,-2.9082,-2.9933,-3.0583,-3.064,-3.0926,-3.1287,-3.1568,-3.1414,-3.1337,-3.1328,-3.0797,-3.0549,-3.0523,-2.9924,-2.9573,-2.9533,-3.0465,-3.1155,-3.156,-3.2227,-3.2901,0.0,0.0,0.0,0.0,0.0,-3.1655,-3.2026,-3.2308,-3.2846,-3.3281,-3.3281,-3.3132,-3.2891,-3.2581,-3.234,-3.2121,-3.1846,-3.1559,-3.1283,-3.1065,-3.0778,-3.0491,-3.0262,-3.0216,-3.0216,-3.0216,-3.1015,-3.1725,-3.1725,-3.2859,0.0,-3.4314,-3.4397,-3.4397,-3.4397,-3.4397,-3.4397,-3.4397,-3.4201,-3.4058,-3.4058,-3.3835,-3.3417,-3.2751,-3.2685,0.0,0.0,0.0,-3.1235,-3.0999,-3.0986,0.0,0.0,0.0,-3.083,-3.049,-3.049,0.0,0.0,-3.1632,-3.2138,0.0,0.0,0.0,0.0,0.0,0.0,0.0,0.0,0.0,0.0,0.0,0.0,0.0,0.0,0.0,0.0,-2.6568,-2.7801,-2.8545,-2.9573,-3.0275,-3.0361,-3.096,-3.1124,-3.0476,-3.1372,-3.1186,-2.9513,-3.047,-3.0828,-2.9806,-3.0787,0.0,0.0,0.0,-3.1902,-3.1568,-3.12,-3.102,-3.1003,-3.0258,-2.9898,-2.9881,-2.9487,-2.9111,-2.9025,-3.0708,-3.1322,-3.1283,-3.265,-3.3128,-3.3068,-3.2271,-3.2041,-3.1885,-3.1646,-3.1968,-3.2409,-3.2521,0.0,0.0,-3.3201,-3.2833,-3.2397,-3.234,-3.2018,-3.1674,-3.1616,-3.1593,-3.149,-3.1042,-3.0928,-3.0801,-3.0331,-3.0216,-3.0216,-3.0216,-3.1347,-3.2302,-3.2302,-3.3445,-3.4397,-3.4397,-3.4397,-3.4384,-3.4319,-3.4306,-3.428,-3.4214,-3.3783,-3.3496,-3.3496,0.0,0.0,-3.2594,-3.2594,-3.2346,-3.1784,-3.1744,-3.1522,-3.0999,-3.0986,-3.0986,-3.0986,-3.0921,-3.0895,-3.0957,-3.0957,-3.1031,-3.1079,-3.1317,-3.2067,0.0,0.0,0.0,0.0,0.0,0.0,0.0,0.0,0.0,0.0,0.0,0.0,0.0,0.0,0.0,-2.483,-2.6191,-2.733,-2.7775,-2.8563,-2.9325,-2.9924,-3.0129,-3.0455,-3.0776,-3.0483,-3.0168,-2.98,-2.9713,-2.9729,-2.9774,-3.0307,-3.0876,-3.1387,-3.1679,-3.1645,-3.1568,-3.12,-3.102,-3.1003,-3.0258,0.0,-2.9881,-2.9487,-2.9492,-2.9885,-2.9914,-3.0653,-3.1691,-3.1719,-3.1704,-3.1854,-3.2096,-3.1898,-3.17,-3.206,-3.2285,-3.2521,-3.2958,-3.2895,-3.2638,-3.2638,-3.2305,-3.1823,-3.1421,-3.1237,0.0,-3.0641,-3.0514,-3.0491,-3.0399,-3.0365,-3.0342,-3.0239,-3.0216,-3.0216,-3.0216,-3.1347,-3.2302,-3.2302,-3.3445,-3.4397,-3.4397,-3.4397,-3.4241,-3.3809,-3.3744,-3.3574,-3.3091,-3.2934,-3.2868,-3.2868,-3.2764,-3.2502,-3.2045,-3.2006,-3.1757,-3.1182,-3.1143,-3.1104,-3.0986,-3.0986,-3.0986,-3.0986,-3.0529,-3.044,-3.0646,-3.0718,-3.1124,-3.1804,-3.2514,-3.2961,0.0,0.0,0.0,0.0,0.0,0.0,0.0,0.0,0.0,0.0,0.0,-2.6098,-2.6703,0.0,-2.4726,-2.5763,-2.6585,-2.727,-2.7818,-2.8237,-2.87,-2.9273,-2.9667,-2.9909,-2.9858,-2.9813,-2.9897,-2.9822,-2.9847,-3.0071,-3.0673,-3.0626,-3.0856,-3.1285,-3.1097,-3.0994,-3.0994,-3.0635,-3.0455,-3.0446,-2.9873,-2.9513,-2.9333,-2.9639,-2.974,-2.9662,-3.0437,-3.1065,-3.1602,-3.1858,-3.1932,-3.1895,-3.2426,-3.22,-3.1635,-3.2205,-3.2622,-3.2857,-3.3181,-3.2937,-3.2489,-3.2489,-3.1984,-3.1341,-3.1088,-3.0824,-3.056,-3.0296,-3.0216,-3.0216,-3.0216,-3.0216,-3.0216,-3.0216,-3.0216,-3.0216,-3.0216,-3.1003,-3.1816,-3.1896,-3.3013,-3.3798,-3.3558,-3.3796,-3.3901,-3.3639,-3.3326,-3.3038,-3.2725,-3.245,-3.2267,-3.2267,-3.2267,-3.215,-3.1798,-3.1759,-3.147,-3.0607,-3.083,-3.0725,-3.015,-3.0411,-3.0498,-3.0415,-3.0124,-3.0108,-3.0462,-3.0715,-3.1048,-3.1513,-3.2862,-3.3657,0.0,0.0,0.0,0.0,0.0,0.0,0.0,-2.8792,-2.9171,-2.9802,-2.8301,-2.7208,-2.7981,-2.6236,-2.5095,-2.6593,-2.685,-2.709,-2.7766,-2.7801,-2.7869,-2.8194,-2.9085,-2.9435,-2.8818,-2.922,-2.9633,-2.9773,-2.9897,-3.0368,-3.1166,-3.0963,-3.0983,-3.1123,-3.0746,-3.054,-3.054,-3.0035,-2.9787,-2.9778,-2.9316,-2.9069,-2.9041,-2.9787,-2.9886,-2.9674,-3.1278,-3.1866,-3.1632,-3.2189,-3.2246,-3.2091,-3.2555,-3.2317,-3.1721,-3.2331,-3.2846,-3.3281,-3.3281,-3.2868,-3.2351,-3.2351,-3.1674,-3.0859,-3.0859,-3.056,-3.0216,-3.0216,-3.0216,-3.0216,-3.0216,-3.0216,-3.0216,-3.0216,-3.0147,-3.0078,-3.0078,-3.0536,-3.1017,-3.1174,-3.2084,-3.2836,-3.2463,-3.2672,-3.2999,-3.3221,-3.2842,-3.2489,-3.2372,-3.1967,-3.1679,-3.1679,-3.1679,-3.1627,-3.1446,-3.1433,-3.1065,-3.0105,-3.0472,-3.0375,-2.9526,-2.9934,-3.009,-2.9894,-2.9774,-2.9914,-3.0242,-3.0687,-3.1006,-3.1218,-3.2925,-3.3971,-3.136,-2.9431,-2.8163,-2.8491,-2.8253,-2.8459,0.0,-3.0354,-3.0319,-3.1306,-3.0101,-2.8737,-2.8357,-2.7041,-2.6118,-2.6093,-2.6062,-2.6208,-2.6619,-2.6396,-2.6208,-2.6251,-2.7826,-2.9025,-2.921,-2.8784,-2.87,-2.9344,-2.8728,-2.8889,-3.0078,-3.0344,-3.0776,-3.1508,-3.114,-3.0951,-3.0951,-2.9907,-2.9376,-2.9367,-2.8657,-2.8785,-2.9476,-2.96,-3.0343,-3.1584,-3.2271,-3.2539,-3.254,-3.1857,-3.1574,-3.1506,-3.1715,-3.1717,-3.1732,-3.2757,-3.3281,-3.3281,-3.3281,-3.2661,-3.1846,-3.1846,-3.1146,-3.0308,-3.0308,-3.0262,-3.0216,-3.0216,-3.0216,-3.0216,-3.0216,-3.0216,-3.0216,-3.0216,-2.9894,-2.9573,-2.9573,-2.9816,-3.0013,-3.0061,-3.0636,-3.1187,-3.1198,-3.0817,-3.0869,-3.1888,-3.198,-3.1757,-3.1248,-3.1117,-3.1078,-3.1078,-3.1078,-3.0869,-3.0372,-3.032,-3.0191,-2.9817,-2.9914,-3.0027,-3.0158,-3.0225,-3.0294,-3.0227,-2.9754,-2.959,-2.9934,-3.0443,-3.1146,-3.1921,-3.2939,-3.3624,-3.1902,-2.9932,-2.8328,-2.8582,-2.8734,-2.9091,-2.994,-3.0422,-3.0882,-3.1605,-3.0745,-2.9694,-2.9112,-2.7654,-2.6477,-2.6282,-2.608,-2.6148,-2.6747,-2.6499,-2.6259,-2.6259,-2.7544,-2.8323,-2.804,-2.7759,-2.7987,-2.8683,-2.8406,-2.8662,-2.9872,-3.0241,-3.0615,-3.09,-3.0326,-3.0018,-3.0018,-2.9342,-2.8999,-2.8991,-2.9068,-2.9048,-2.9319,-3.041,-3.1514,-3.2397,-3.2292,-3.2333,-3.2282,-3.195,-3.1846,-3.1987,-3.2301,-3.2485,-3.2656,-3.3069,-3.3281,-3.3281,-3.3281,-3.2615,-3.1766,-3.1766,-3.1065,-3.0216,-3.0216,-3.0216,-3.0216,-3.0216,-3.0216,-3.0216,-3.0216,-3.0216,-3.0216,-3.0216,-2.9848,-2.9504,-2.9504,-2.9355,-2.9272,-2.9389,-2.9911,-3.0267,-3.0064,-3.0072,-3.0189,-3.0333,-3.0634,-3.0882,-3.0973,-3.0986,-3.0986,-3.0986,-3.0699,-3.0385,-3.015,-2.9968,-2.972,-2.9331,-2.9763,-2.9848,-2.936,-2.9578,-2.9726,-2.9597,-2.9337,-2.9508,-3.0128,-3.0625,-3.1172,-3.187,-3.2927,-3.3484,-3.1849,-3.0121,-2.8583,-2.8786,-2.9133,-2.9443,-2.963,-3.0376,-3.1192,-3.1812,-3.0997,-3.0057,-2.954,-2.7929,-2.6569,-2.6325,-2.602,-2.6045,-2.6807,-2.6576,-2.6336,-2.6336,-2.7131,-2.7373,-2.6737,-2.7264,-2.7851,-2.8114,-2.8513,-2.9036,-2.986,-3.0352,-3.054,-3.0429,-2.9804,-2.947,-2.947,-2.8905,-2.8742,-2.898,-2.9217,-2.9428,-2.9749,-3.1309,-3.2322,-3.2706,-3.224,-3.2043,-3.1992,-3.1839,-3.1923,-3.2119,-3.2498,-3.2858,-3.3069,-3.3281,-3.3189,-3.304,-3.2914,-3.2294,-3.1559,-3.1559,-3.095,-3.0216,-3.0216,-3.0216,-3.0216,-3.0216,-3.0124,-3.0055,-3.0181,-3.0009,-2.9837,-2.9986,-2.9538,-2.912,-2.9069,-2.8738,-2.8458,-2.8565,-2.8975,-2.9134,-2.882,-2.9144,-2.9327,-2.9065,-2.9379,-2.9915,-3.066,-3.0957,-3.1071,-3.0913,-3.0592,-3.0283,-2.9953,-2.9741,-2.9441,-2.8973,-2.9618,-2.9615,-2.8885,-2.9241,-2.9398,-2.924,-2.9352,-2.9713,-3.0312,-3.0911,-3.1379,-3.1739,-3.268,-3.3121,-3.0815,-2.9744,-2.8679,-2.9302,-2.9249,-2.9248,-2.9975,-3.0618,-3.1283,-3.2259,-3.1164,-2.9793,-2.9171,-2.7688,-2.637,-2.5938,-2.5634,-2.5643,-2.6396,-2.6191,-2.5951,-2.5951,-2.6022,-2.596,-2.5596,-2.752,-2.8527,-2.7864,-2.9082,-2.9924,-2.9932,-3.0609,-3.0823,-3.0438,-3.0069,-2.9881,-2.9881,-2.8768,-2.8706,-2.9546,-2.8886,-2.944,-3.1305,-3.2268,-3.2633,-3.2706,-3.224,-3.2043,-3.1971,-3.1071,-3.0998,-3.1561,-3.162,-3.1936,-3.2521,-3.3069,-3.296,-3.2443,-3.1972,-3.1479,-3.1031,-3.1031,-3.0663,-3.0216,-3.0216,-3.0216,-3.0216,-3.0216,-2.9883,-2.963,-3.0089,-2.9481,-2.8873,-2.9401,-2.8758,-2.8052,-2.8127,-2.7731,-2.7416,-2.7544,-2.7556,-2.7576,-2.7546,-2.7589,-2.7785,-2.8333,-2.8425,-2.8856,-3.0006,-3.1003,-3.1343,-3.0711,-3.0905,-3.0702,-2.9524,-2.9402,-2.9343,-2.9104,-2.914,-2.9267,-2.9554,-2.9568,-2.9554,-2.9602,-3.0021,-3.0266,-3.0312,-3.1204,-3.1682,-3.1739,-3.2191,-3.2428,-3.0972,-2.9826,-2.8783,-2.9518,-2.9392,-2.9155,-2.9584,-3.0399,-3.1111,-3.1444,-3.0119,-2.8676,-2.7914,-2.6684,-2.5666,-2.5224,-2.5506,-2.6011,-2.6773,-2.6773,-2.6593,-2.6328,-2.6792,-2.6602,-2.5036,-2.5753,-2.6319,-2.6068,-2.7366,-2.8382,-2.8865,-2.9724,-3.0318,-3.042,-2.983,-2.9393,-2.9162,-2.913,-2.9164,-2.9265,-3.003,-3.1063,-3.2248,-3.2612,-3.2727,-3.2685,-3.193,-3.1598,-3.1636,-3.1328,-3.1352,-3.1641,-3.2409,-3.2869,-3.2978,-3.2523,-3.2156,-3.2007,-3.219,-3.1708,-3.1019,-3.1019,-3.0652,-3.0216,-3.0216,-3.0216,-3.0216,-3.0216,-3.0101,-2.994,-2.978,-2.9481,-2.9183,-2.901,-2.8459,-2.8015,-2.8008,-2.7648,-2.7344,-2.7434,-2.7487,-2.7488,-2.7496,-2.7523,-2.7589,-2.7785,-2.867,-2.9588,-3.0381,-3.0659,-3.0818,-3.0949,-3.0375,-2.9808,-2.9469,-2.9285,-2.9178,-2.9113,-2.9289,-2.9477,-2.9602,-2.9602,-2.9602,-2.9602,-3.0083,-3.0433,-3.0792,-3.1379,-3.1838,-3.2176,-3.2342,-3.2398,-3.1103,-3.0029,-2.8845,-2.9462,-2.9213,-2.8853,-2.9143,-2.986,-3.0572,-3.0939,-2.9503,-2.7976,-2.7344,-2.6161,-2.5165,-2.4476,-2.5044,-2.5848,-2.6739,-2.6628,-2.6413,-2.6692,-2.6701,-2.6104,-2.4835,-2.4726,-2.4857,-2.5115,-2.6503,-2.7518,-2.7852,-2.8857,-2.9522,-2.9623,-2.9304,-2.9016,-2.8777,-2.9243,-2.9492,-2.9804,-3.12,-3.2123,-3.2727,-3.2727,-3.2644,-3.2447,-3.1702,-3.1278,-3.1179,-3.1031,-3.1219,-3.1618,-3.2454,-3.2969,-3.3178,-3.234,-3.1903,-3.1731,-3.1685,-3.126,-3.0732,-3.0732,-3.0376,-2.9963,-2.9963,-2.9825,-2.9676,-2.9676,-2.955,-2.9389,-2.9251,-2.8953,-2.8643,-2.8482,-2.8069,-2.7739,-2.8035,-2.7897,-2.773,-2.7773,-2.7767,-2.7771,-2.7562,-2.7523,-2.7536,-2.7669,-2.8638,-2.9615,-3.0264,-3.0456,-3.0637,-3.1019,-3.0309,-2.969,-2.947,-2.937,-2.9289,-2.9289,-2.9477,-2.9602,-2.9602,-2.9602,-2.9602,-2.9602,-3.0205,-3.0732,-3.1029,-3.1667,-3.212,-3.2398,-3.2398,-3.2398,-3.1162,-3.0213,-2.8937,-2.925,-2.8895,-2.8509,-2.8641,-2.9114,-2.9768,-3.0744,-2.9173,-2.7441,-2.7191,-2.5866,-2.4655,-2.3894,-2.4359,-2.5258,-2.6362,-2.5637,-2.5596,-2.6975,-2.562,-2.481,-2.5123,-2.4528,-2.4405,-2.5161,-2.669,-2.7518,-2.724,-2.8183,-2.8601,-2.8403,-2.8576,-2.8759,-2.8845,-2.9075,-2.9914,-3.1371,-3.2217,-3.2685,-3.2664,-3.2633,-3.2395,-3.1981,-3.1505,-3.1071,-3.0646,-3.018,-3.0713,-3.1618,-3.1597,-3.2308,-3.3178,-3.2615,-3.211,-3.1547,-3.056,-3.0216,-3.0216,-3.0181,-2.9871,-2.9493,-2.947,-2.9102,-2.8712,-2.8735,-2.8413,-2.8161,-2.8586,-2.8023,-2.7449,-2.7885,-2.7633,-2.7476,-2.8106,-2.8268,-2.8313,-2.8355,-2.8373,-2.8164,-2.7628,-2.7523,-2.7669,-2.8079,-2.8406,-2.8928,-2.9722,-3.0406,-3.0825,-3.0853,-3.0643,-3.0235,-2.9659,-2.9602,-2.9602,-2.9602,-2.9602,-2.9602,-2.9602,-2.9602,-2.9665,-2.9665,-3.0553,-3.1029,-3.1029,-3.1936,-3.2398,-3.2398,-3.2398,-3.2398,-3.1401,-3.0784,-3.0019,-3.0064,-2.9399,-2.8795,-2.8715,-2.9114,-2.9573,-2.9825,-2.7789,-2.5829,-2.5653,-2.4305,-2.341,-2.3948,-2.4967,-2.5951,-2.6807,-2.6466,-2.6348,-2.6719,-2.61,-2.5665,-2.552,-2.5279,-2.5194,-2.5093,-2.5722,-2.6314,-2.6753,-2.7288,-2.8071,-2.9282,-2.8412,-2.8596,-3.0005,-3.0548,-3.112,-3.1861,-3.2097,-3.2043,-3.1712,-3.136,-3.1329,-3.1505,-3.0698,-3.0481,-3.0646,-3.058,-3.1002,-3.1586,-3.1639,-3.2092,-3.2581,-3.1708,-3.1306,-3.11,-3.0445,-3.0216,-3.0158,-2.9802,-2.9596,-2.9424,-2.9022,-2.8804,-2.8781,-2.9183,-2.9206,-2.9045,-2.8769,-2.8804,-2.8758,-2.8138,-2.8161,-2.8437,-2.8631,-2.8773,-2.8719,-2.8375,-2.7976,-2.7773,-2.7908,-2.7947,-2.8079,-2.8406,-2.878,-2.9247,-2.9857,-2.9961,-3.0121,-3.0569,-3.0143,-2.9785,-2.9617,-2.9602,-2.9602,-2.9602,-2.9602,-2.9602,-2.9602,-2.9974,-3.0144,-3.0144,-3.1029,-3.1495,-3.1495,-3.2104,-3.2398,-3.2398,-3.2398,-3.2398,-3.1322,-3.076,-3.0067,-2.9702,-2.9349,-2.8894,-2.8533,-2.8781,-2.9061,-2.8896,-2.7028,-2.5245,-2.4606,-2.3716,-2.3155,-2.3496,-2.459,-2.5656,-2.6329,-2.6009,-2.5746,-2.612,-2.5674,-2.5486,-2.5323,-2.5248,-2.5147,-2.5257,-2.536,-2.5599,-2.5982,-2.6879,-2.7859,-2.8878,-2.8757,-2.9427,-3.0847,-3.1181,-3.1637,-3.2333,-3.194,-3.1723,-3.165,-3.0988,-3.0833,-3.104,-3.0522,-3.0431,-3.0769,-3.0798,-3.13,-3.1971,-3.1806,-3.1999,-3.2363,-3.1375,-3.087,-3.0595,-3.0078,-2.9745,-2.9584,-2.9757,-2.9676,-2.9401,-2.8861,-2.8551,-2.8402,-2.8482,-2.8666,-2.8758,-2.8459,-2.8769,-2.8941,-2.8172,-2.8184,-2.8495,-2.8934,-2.9144,-2.9301,-2.923,-2.8581,-2.8066,-2.8276,-2.8341,-2.8406,-2.878,-2.8972,-2.9384,-3.0109,-3.0093,-3.0136,-3.0488,-3.0221,-2.9897,-2.9631,-2.9602,-2.9602,-2.9602,-2.9602,-2.9602,-2.9602,-3.0083,-3.0312,-3.0312,-3.1204,-3.1682,-3.1682,-3.2176,-3.2398,-3.2398,-3.2398,-3.2398,-3.1276,-3.0707,-2.9874,-2.91,-2.908,-2.9083,-2.8126,-2.8299,-2.858,-2.8034,-2.665,-2.5238,-2.3979,-2.3578,-2.3276,-2.2926,-2.3815,-2.4918,-2.5588,-2.4972,-2.4696,-2.5512,-2.5018,-2.4766,-2.5088,-2.4862,-2.4927,-2.5491,-2.5235,-2.5074,-2.5118,-2.651,-2.7434,-2.7964,-2.9505,-3.0629,-3.1285,-3.1401,-3.1852,-3.2633,-3.1785,-3.1547,-3.1826,-3.0915,-3.0532,-3.0594,-3.0532,-3.0611,-3.0692,-3.0785,-3.1359,-3.2163,-3.1705,-3.1863,-3.2179,-3.1249,-3.0618,-3.0158,-2.9734,-2.9286,-2.901,-2.9699,-2.9642,-2.9194,-2.8666,-2.8218,-2.7805,-2.7438,-2.7644,-2.7977,-2.7977,-2.8344,-2.8574,-2.8092,-2.8035,-2.8254,-2.9077,-2.9487,-2.9779,-3.0169,-2.9347,-2.8587,-2.8651,-2.8651,-2.878,-2.9099,-2.9162,-2.9511,-3.0381,-3.053,-3.053,-3.053,-3.053,-3.0277,-2.9659,-2.9602,-2.9602,-2.9602,-2.9602,-2.9602,-2.9602,-3.0083,-3.0372,-3.0372,-3.1306,-3.1781,-3.1781,-3.2176,-3.2398,-3.2398,-3.2398,-3.2398,-3.1816,-3.1839,-3.1322,-2.9923,-3.024,-3.0294,-2.7918,-2.8057,-2.8374,-2.7037,-2.6173,-2.5238,-2.388,-2.3094,-2.2993,-2.3788,-2.3981,-2.4598,-2.6471,-2.5486,-2.496,-2.5776,-2.5368,-2.5096,-2.5418,-2.5396,-2.541,-2.552,-2.5235,-2.5169,-2.5432,-2.5546,-2.616,-2.7485,-3.0405,-3.1732,-3.1285,-3.2123,-3.2302,-3.2157,-3.1629,-3.1215,-3.0884,-2.9963,-2.9746,-3.0098,-2.9715,0.0,-3.0193,-3.0588,-3.096,-3.1174,-3.1094,-3.1151,-3.1192,-3.0583,-3.0296,-3.0204,-3.0124,-3.0032,-2.978,-2.8712,-2.831,-2.8149,-2.7633,-2.7426,-2.7426,-2.7759,-2.792,-2.7977,-2.7977,-2.8344,-2.8574,-2.8092,-2.8287,-2.8765,-2.9569,-2.9795,-2.9693,-2.9266,-2.8851,-2.8716,-2.8972,-2.9035,-2.9099,-2.9477,-2.9477,-2.9764,-3.0445,-3.053,-3.053,-3.053,-3.053,-3.0277,-2.9659,-2.9602,-2.9602,-2.9602,-2.9602,-2.9602,-2.9602,-3.0433,-3.0911,-3.0911,-3.1823,-3.2287,-3.2287,-3.2342,-3.2398,-3.2398,-3.2398,-3.2398,-3.2302,-3.2385,-3.2156,-3.1057,-3.1117,-3.0851,-2.8657,-2.8634,-2.8653,-2.689,-2.6334,-2.5696,-2.4177,-2.3452,-2.3108,-2.3481,-2.3541,-2.3885,-2.4948,-2.4766,-2.4735,-2.5001,-2.5115,-2.5118,-2.5271,-2.5286,-2.5352,-2.552,-2.5235,-2.5125,-2.5271,-2.6246,-2.7507,-2.8941,-3.1143,-3.2248,-3.2008,-3.2487,-3.2623,-3.2385,-3.1464,-3.1029,-3.1008,-2.9839,-2.9559,-2.9984,-2.9766,-2.9849,-3.0024,-3.0321,-3.0651,-3.0974,-3.0689,-3.0755,-3.095,-3.0411,-3.0055,-2.9802,-2.9527,-2.9424,-2.9228,-2.7989,-2.8126,-2.8632,-2.7851,-2.7621,-2.761,-2.7598,-2.7782,-2.7977,-2.7977,-2.8344,-2.866,-2.8489,-2.8904,-2.948,-2.9739,-2.9813,-2.9707,-2.951,-2.9111,-2.8972,-2.9289,-2.9352,-2.9415,-2.9602,-2.9602,-2.9827,-3.0445,-3.0811,-3.1021,-3.1021,-3.1316,-3.112,-3.0164,-3.008,-2.994,-2.9631,-2.9602,-2.9727,-2.996,-3.0293,-3.0733,-3.1364,-3.1713,-3.2044,-3.2398,-3.2398,-3.2398,-3.2398,-3.2398,-3.2398,-3.3013,-3.3156,-3.306,-3.2363,-3.2265,-3.1724,-2.9654,-2.9679,-2.937,-2.7041,-2.6769,-2.641,-2.4635,-2.3905,-2.3485,-2.3188,-2.2987,-2.31,-2.3583,-2.4009,-2.4359,-2.4451,-2.4788,-2.5059,-2.5059,-2.5059,-2.5162,-2.541,-2.5132,-2.5084,-2.5346,-2.7205,-2.8924,-3.0221,-3.1513,-3.2373,-3.2612,-3.2727,-3.2685,-3.2571,-3.1391,-3.0977,-3.1184,-2.9994,-2.9653,-2.9984,-2.9891,-2.9942,-3.0072,-3.0077,-3.0362,-3.0774,-3.0499,-3.0578,-3.079,-3.0376,-2.9917,-2.9435,-2.9022,-2.8873,-2.8712,-2.7713,-2.8276,-2.916,-2.8253,-2.8057,-2.8023,-2.7529,-2.7667,-2.7954,-2.7851,-2.8103,-2.848,-2.8834,-2.964,-3.0279,-3.0028,-3.0217,-3.0389,-3.0209,-2.9882,-2.9636,-2.9764,-2.9799,-2.9757,-2.9631,-2.9602,-2.9827,-3.0445,-3.1092,-3.1541,-3.1668,-3.2117,-3.1893,-3.0628,-3.053,-3.0263,-2.9645,-2.9602,-2.9789,-3.0251,-3.0119,-3.0478,-3.1456,-3.1442,-3.1643,-3.2182,-3.2321,-3.2398,-3.2398,-3.2398,-3.2398,-3.4228,-3.4633,-3.4751,-3.3615,-3.4033,-3.3909,-3.0531,-3.0906,-3.0894,-2.7347,-2.7304,-2.7291,-2.5138,-2.419,-2.3671,-2.3512,-2.2366,-2.2222,-2.4201,-2.3768,-2.3713,-2.522,-2.5191,-2.5059,-2.5059,-2.5059,-2.5066,-2.5096,-2.4796,-2.5136,-2.6299,-2.7458,-2.8561,-2.9888,-3.1172,-3.2018,-3.2363,-3.2612,-3.252,-3.2095,-3.1567,-3.1112,-3.0729,-3.018,-2.9953,-2.9973,-2.9549,-2.9649,0.0,-3.0154,-3.0174,-3.0303,-3.0739,-3.0629,-3.0285,-3.0227,-2.9917,-2.9493,-2.9435,-2.9424,-2.9263,-2.8241,-2.8299,-2.8677,-2.8138,-2.8287,-2.854,-2.8046,-2.7943,-2.7874,-2.7415,-2.7334,-2.7625,-2.8692,-3.0244,-3.1216,-3.0659,-3.1542,-3.2122,-3.1046,-3.1065,-3.1068,-3.0544,-3.0445,-3.0249,-2.9687,-2.9602,-2.9827,-3.0445,-3.1092,-3.171,-3.2258,-3.237,-3.1893,-3.0628,-3.053,-3.0263,-2.9645,-2.9602,-2.9789,-3.0251,-3.0119,-3.0256,-3.0779,-3.1197,-3.1413,-3.1474,-3.209,-3.2398,-3.2398,-3.2398,-3.2398,-3.5678,-3.641,-3.6713,-3.63,-3.5327,-3.4003,-3.1998,-3.1243,-3.0192,-2.7471,-2.7538,-2.7572,-2.6177,-2.5043,-2.4095,-2.3247,-2.234,0.0,-2.2138,-2.2201,-2.2784,-2.4196,-2.443,-2.4701,-2.5286,-2.5169,-2.5375,-2.5957,-2.562,-2.6223,-2.8148,-2.786,-2.8211,-2.9398,-3.1035,-3.1772,-3.184,-3.2189,-3.2219,-3.2033,-3.1309,-3.0864,-3.0667,-3.0212,-2.9849,-2.957,-2.9384,-2.9293,0.0,-2.9257,-2.9478,-2.9777,-2.9973,-3.0125,-3.0216,-3.0216,-3.0089,-2.9837,-2.9228,-2.9228,-2.9274,-2.7954,-2.8057,-2.8551,-2.777,-2.7656,-2.777,-2.7575,-2.7529,-2.7483,-2.7288,-2.7462,-2.7813,-2.8016,-2.9378,-3.0546,-3.0237,-3.0815,-3.1355,-3.0992,-3.1043,-3.0996,-3.0563,-3.053,-3.0319,-2.9701,-2.9602,-2.9701,-2.994,-3.053,-3.1007,-3.1246,-3.2286,-3.2609,-3.1738,-3.1316,-3.0839,-3.0193,-3.0049,-3.0266,-3.0732,-3.0524,-3.0814,-3.1708,-3.1489,-3.1582,-3.1982,-3.2259,-3.2398,-3.2398,-3.2398,-3.2398,-3.6582,-3.7599,-3.8303,-3.8303,-3.667,-3.4728,-3.3259,-3.1926,-3.0334,-2.7968,-2.7881,-2.7967,-2.6952,-2.5939,-2.4775,0.0,0.0,-2.1837,-2.1271,-2.1421,-2.2023,-2.3303,-2.3654,-2.4174,-2.5154,-2.5531,-2.5798,-2.6265,-2.6304,-2.7125,-2.8955,-2.8082,-2.8241,-2.9639,-3.0827,-3.1428,-3.1462,-3.1676,-3.1774,-3.1629,-3.0988,-3.0615,-3.047,-3.0005,-2.9611,-2.929,-2.9021,-2.8823,0.0,-2.8742,-2.9041,-2.9485,-2.9669,-2.9943,-3.0216,-3.0216,-3.0124,-2.9883,-2.8999,-2.8941,-2.9045,-2.7667,-2.7702,-2.8138,-2.7438,-2.7438,-2.7598,-2.7311,-2.7116,-2.7036,-2.7185,-2.7696,-2.8194,-2.8209,-2.95,-3.0732,-3.0753,-3.1263,-3.1684,-3.164,-3.1584,-3.1457,-3.1124,-3.0923,-3.06,-2.9968,-2.9715,-2.9602,-2.9602,-3.015,-3.053,-3.053,-3.2033,-3.2806,-3.2188,-3.1907,-3.1467,-3.075,-3.0597,-3.0742,-3.1204,-3.0866,-3.1122,-3.209,-3.1628,-3.1613,-3.209,-3.229,-3.2398,-3.2398,-3.2398,-3.2398,-3.6651,-3.7893,-3.9188,-3.9188,-3.8308,-3.6811,-3.435,-3.3267,-3.1938,-2.8639,-2.8381,-2.8487,-2.743,-2.6668,-2.5781,-2.4982,-2.3285,0.0,-2.2656,-2.1873,-2.1686,-2.2959,-2.312,-2.3501,-2.4481,-2.605,-2.6743,-2.6039,-2.6438,-2.7193,-2.8244,-2.7843,-2.8583,-3.0859,-3.0615,-3.0691,-3.1113,-3.1267,-3.1153,-3.0698,-3.0688,-3.045,-2.9984,-2.9528,-2.9311,-2.9259,-2.8338,-2.8227,0.0,-2.8744,-2.9013,-2.9577,-3.0034,-3.0216,-3.0216,-3.0216,-2.9917,-2.9424,-2.8884,-2.87,-2.854,-2.7552,-2.7242,-2.7242,-2.7231,-2.7908,-2.8482,-2.7506,-2.6864,-2.6588,-2.7093,-2.7696,-2.8488,-2.9727,-3.1098,-3.235,-3.2861,-3.3601,-3.397,-3.3424,-3.3312,-3.3101,-3.2497,-3.1893,-3.126,-3.0614,-2.9996,-2.9602,-2.9602,-3.015,-3.053,-3.053,-3.1668,-3.2174,-3.1555,-3.2047,-3.2051,-3.1209,-3.1185,-3.1329,-3.1697,-3.1035,-3.091,-3.1397,-3.1382,-3.1382,-3.1397,-3.2074,-3.2398,-3.2398,-3.2398,-3.2398,-3.4738,-3.6358,-3.7835,-3.7835,-3.61,-3.4088,-3.296,-3.1312,-2.9672,-2.8242,-2.8122,-2.8077,-2.7738,-2.7266,-2.6567,-2.5462,-2.4792,-2.4155,-2.3567,-2.3111,-2.3286,-2.4525,-2.4942,-2.5442,-2.6213,-2.6268,-2.6881,-2.8271,-2.8002,-2.8217,-2.9098,-2.8789,-2.8916,-2.9895,-3.0248,-3.0499,-3.0537,-3.074,-3.0833,-3.0677,-3.0367,-3.0139,-2.9973,-2.9518,-2.9125,-2.8794,-2.8183,-2.822,-2.8661,-2.8696,-2.9198,-3.0034,-3.0125,-3.0216,-3.017,-2.9848,-2.963,-2.9378,-2.8505,-2.8207,-2.8103,-2.7449,-2.7231,-2.7162,-2.6818,-2.6921,-2.7105,-2.6795,-2.6347,-2.5899,-2.5693,-2.6312,-2.7191,-2.7965,-2.9378,-3.0851,-3.2003,-3.2717,-3.3167,-3.3283,-3.3326,-3.3129,-3.2511,-3.1893,-3.1274,-3.0614,-3.0361,-3.008,-2.9659,-3.015,-3.0361,-2.994,-3.0628,-3.1387,-3.2061,-3.23,-3.2298,-3.2023,-3.2283,-3.25,-3.2599,-3.3061,-3.3391,-3.349,-3.3013,-3.2767,-3.2767,-3.2521,-3.2398,-3.2398,-3.2398,-3.2644,-3.2998,-3.4699,-3.5966,-3.6177,-3.4481,-3.2547,-3.1869,-3.0135,-2.8529,-2.7869,-2.781,-2.7872,-2.7707,-2.7486,-2.711,-2.6269,-2.5576,-2.5071,-2.4801,-2.4454,-2.4659,-2.5604,-2.6198,-2.6648,-2.6877,-2.6939,-2.7613,-2.9319,-2.9136,-2.9136,-2.9355,-2.9182,-2.9184,-2.9252,-2.9717,-3.0025,-3.0227,-3.0395,-3.0429,-3.0419,-2.9953,-2.9735,-2.9715,-2.9073,-2.8628,-2.8328,-2.7872,-2.7978,0.0,-2.8446,-2.8921,-2.9636,-2.9633,-2.9642,-2.9607,-2.9309,-2.9194,-2.9079,-2.8264,-2.7977,-2.7897,-2.7392,-2.7093,-2.6841,-2.6335,-2.6037,-2.5922,-2.6117,-2.5807,-2.5383,-2.5245,-2.5744,-2.6538,-2.7388,-2.8697,-3.0183,-3.1556,-3.243,-3.3016,-3.3241,-3.3326,-3.3199,-3.2806,-3.2244,-3.1696,-3.1302,-3.0825,-3.0375,-3.001,-3.008,-3.0038,-2.9645,-3.015,-3.0839,-3.1626,-3.2131,-3.2422,-3.2634,-3.3098,-3.3398,-3.3531,-3.389,-3.406,-3.406,-3.3136,-3.2644,-3.2644,-3.2213,-3.2136,-3.2398,-3.2398,-3.2613,0.0,-3.273,-3.3754,-3.4135,-3.3068,-3.1746,-3.1107,-2.9781,0.0,-2.762,-2.7752,-2.781,-2.7427,-2.7472,-2.7554,-2.7231,-2.5759,-2.5144,-2.6452,-2.6252,-2.6091,-2.6318,-2.7034,-2.733,-2.6937,-2.786,-2.8794,-2.9422,-2.9899,-2.9746,-2.8916,-2.9223,-2.9262,-2.9142,-2.9132,-2.9439,-3.0207,-3.0065,-2.9942,-2.9942,-2.9477,-2.9259,-2.9228,-2.8328,-2.7924,0.0,-2.7417,-2.7579,-2.8006,-2.7995,-2.8252,-2.8746,-2.871,-2.87,-2.8689,-2.8666,-2.8643,-2.8574,-2.8057,-2.7874,-2.7793,-2.7288,-2.6772,-2.6267,-2.5796,-2.5314,-2.5015,-2.552,-2.5268,-2.4981,-2.5474,-2.5784,-2.6348,-2.7688,-2.8957,-3.0263,-3.1543,-3.2584,-3.3326,-3.3326,-3.3326,-3.3326,-3.3326,-3.2806,-3.2412,-3.2412,-3.1415,-3.0628,-3.053,-3.0066,-2.9715,-2.9617,-3.0122,-3.0459,-3.0459,-3.1654,-3.2601,-3.3,-3.3623,-3.414,-3.4509,-3.3906,-3.3537,-3.3475,-3.2198,-3.1505,-3.1459,-3.1459,-3.1782,-3.2398,-3.2398,-3.2398,-2.8742,0.0,-3.109,-3.1205,-3.0407,-2.9818,0.0,0.0,0.0,0.0,0.0,0.0,-2.8245,-2.7893,-2.7768,-2.8055,-2.7369,-2.7055,-2.8132,-2.8889,-2.8683,-2.6842,-2.8428,-2.9344,-2.8407,-2.8797,-2.9608,-3.0466,-2.9676,-2.8994,-2.8467,-2.8662,-2.8943,-2.9132,-2.9343,-2.9615,-3.0054,-2.9694,-2.9466,-2.9466,-2.9001,-2.8773,-2.8752,-2.8183,-2.7924,-2.7883,-2.7076,-2.7189,-2.7985,-2.7597,-2.7922,-2.8688,-2.866,-2.87,-2.8654,-2.8287,-2.8149,-2.8023,-2.7128,-2.6818,-2.6737,-2.6232,-2.5704,-2.5256,-2.5142,-2.5015,-2.4946,-2.5061,-2.474,-2.4395,-2.4522,-2.4877,-2.5666,-2.7389,-2.8743,-3.0079,-3.1848,-3.2807,-3.3326,-3.3326,-3.3326,-3.3326,-3.3326,-3.2806,-3.2412,-3.2412,-3.2159,-3.1612,-3.0656,-3.0825,-3.067,-2.9715,-2.9743,-2.9827,-2.9827,-3.1795,-3.3054,-3.3158,-3.451,-3.5097,-3.4682,-3.4896,-3.4752,-3.4229,-3.3367,-3.2675,-3.2151,-3.2151,-3.2244,-3.2398,-3.2398,-3.2398,-2.7728,-2.8328,-2.9179,-2.9409,-2.8921,-2.8614,-2.9652,0.0,0.0,0.0,0.0,0.0,0.0,-2.787,-2.7713,-2.7994,-2.7726,-2.8101,-2.958,-3.0462,-3.0461,-2.9241,-3.011,-3.0469,-2.9665,-2.9671,-2.9906,-3.0246,-2.9805,-2.915,-2.834,-2.8916,-2.905,-2.885,-2.9248,-2.957,-2.9684,-2.9435,-2.9197,-2.898,-2.8514,-2.8297,-2.8276,-2.7603,-2.7303,-2.7262,-2.6836,-2.6987,-2.7676,-2.736,-2.7682,-2.8322,-2.7851,-2.7679,-2.7621,-2.7116,-2.6944,-2.6864,-2.6313,-2.6117,-2.6071,-2.5796,-2.5348,-2.4912,-2.4912,-2.4763,-2.4579,-2.4579,-2.4395,-2.4261,-2.4659,-2.5063,-2.5756,-2.7631,-2.8802,-2.9961,-3.1623,-3.2469,-3.2988,-3.3269,-3.3326,-3.3326,-3.3326,-3.3045,-3.282,-3.282,-3.2595,-3.2159,-3.1471,-3.119,-3.0783,-3.0094,-2.9785,-2.9715,-3.001,-3.1645,-3.28,-3.3077,-3.448,-3.5211,-3.5033,-3.4741,-3.406,-3.3075,-3.2382,-3.1997,-3.1921,-3.1628,-3.1797,-3.2398,-3.2398,-3.2398,-2.7676,-2.7887,-2.8359,-2.8359,-2.8209,-2.8227,-2.8785,0.0,0.0,0.0,0.0,0.0,0.0,-2.7813,-2.7833,-2.769,-2.7885,-2.876,-3.0801,-3.1504,-3.1815,-3.1718,-3.1626,-3.1267,-3.0546,-3.0291,-3.0024,-2.9663,-2.9814,-2.9545,-2.8457,-2.922,-2.9369,-2.8612,-2.8932,-2.9166,-2.9094,-2.9094,-2.8897,-2.8504,-2.8038,-2.7779,-2.7686,-2.692,-2.6527,-2.6536,-2.6531,0.0,-2.7173,-2.7112,-2.7375,-2.7667,-2.6806,-2.6416,-2.6301,-2.5876,-2.5716,-2.5704,-2.5624,-2.5543,-2.5486,-2.5486,-2.5176,-2.4809,-2.4809,-2.4522,-2.42,-2.42,-2.42,-2.4394,-2.5122,-2.5475,-2.6089,-2.7736,-2.8798,-2.9847,-3.1226,-3.2047,-3.2707,-3.3213,-3.3326,-3.3326,-3.3326,-3.3326,-3.3326,-3.3326,-3.2876,-3.2511,-3.2412,-3.1471,-3.074,-3.0544,-3.0115,-3.0037,-3.0397,-3.15,-3.233,-3.2909,-3.4027,-3.482,-3.5168,-3.3937,-3.2659,-3.1413,-3.0843,-3.0797,-3.1243,-3.0797,-3.1151,-3.2244,-3.2336,-3.2398,-2.8442,-2.9399,-3.0067,-2.8017,-2.8063,-2.8953,-3.0356,-2.9592,0.0,0.0,0.0,0.0,0.0,-2.8381,-2.8498,-2.8765,-2.9381,-3.0312,-3.1768,-3.2637,-3.2575,-3.1172,-3.2194,-3.2323,-3.0411,-3.0206,-3.0151,-3.0117,-2.939,-2.8828,-2.8641,-2.887,-2.895,-2.8818,-2.8726,-2.8535,-2.8142,-2.8131,-2.81,-2.8028,-2.7572,-2.7158,-2.6775,-2.663,-2.6351,-2.6048,0.0,-2.6281,-2.6693,-2.6612,-2.6651,-2.668,-2.6519,-2.6198,-2.5819,-2.5739,-2.5716,-2.5647,-2.5199,-2.4774,-2.443,-2.443,-2.4372,-2.4303,-2.4303,-2.4258,-2.42,-2.42,-2.42,-2.4261,-2.4322,-2.4743,-2.5475,-2.6815,-2.8405,-2.9954,-3.1258,-3.2384,-3.3213,-3.3297,-3.3326,-3.3326,-3.3326,-3.3326,-3.3326,-3.3326,-3.3241,-3.3002,-3.2483,-3.2244,-3.171,-3.0642,-3.0736,-3.0821,-3.0377,-3.1708,-3.266,-3.275,-3.3861,-3.4294,-3.3752,-3.2967,-3.2182,-3.1397,-3.1289,-3.1012,-3.0566,-3.1012,-3.1336,-3.1551,-3.2136,-3.2398,-2.8017,-2.8764,-2.9476,-2.8679,-2.9877,-3.1321,-3.1754,-3.1695,0.0,0.0,0.0,0.0,0.0,-2.9042,-2.9467,-3.0518,-3.0758,-3.1211,-3.2051,-3.2295,-3.2235,-3.1989,-3.2169,-3.1895,-3.0657,-3.0335,-2.9912,-2.9219,-2.9065,-2.8886,-2.8295,-2.8712,-2.8686,-2.8196,-2.8161,-2.8017,-2.7572,-2.7314,-2.7314,-2.7562,-2.7107,-2.6775,-2.6548,-2.6061,-2.573,-2.5502,0.0,-2.6053,-2.6286,-2.6431,-2.6508,-2.6404,-2.5842,-2.5486,-2.5245,-2.4992,-2.49,-2.4855,-2.4613,-2.4384,-2.42,-2.42,-2.42,-2.42,-2.42,-2.42,-2.42,-2.42,-2.42,-2.4334,-2.4791,-2.5475,-2.6358,-2.7837,-2.9161,-3.0457,-3.1688,-3.2426,-3.2918,-3.3255,-3.3326,-3.3326,-3.3326,-3.3326,-3.3326,-3.3326,-3.3326,-3.3213,-3.2932,-3.2609,-3.2188,-3.1597,-3.1297,-3.1214,-3.1286,-3.1812,-3.2428,-3.3023,-3.3591,-3.3583,-3.289,-3.2552,-3.2244,-3.1936,-3.1567,-3.1428,-3.149,-3.1428,-3.1582,-3.1936,-3.2259,-3.2398,-2.7756,-2.856,-2.9599,-2.9862,-3.1321,-3.2748,-3.3006,-3.3517,0.0,0.0,0.0,0.0,0.0,-2.9652,-3.0138,-3.1572,-3.1574,-3.1709,-3.2236,-3.2031,-3.2021,-3.2578,-3.1894,-3.124,-3.1035,-3.0407,-2.9613,-2.8731,-2.9005,-2.9,-2.8217,-2.8502,-2.8328,-2.7518,-2.7672,-2.75,-2.6941,-2.6693,-2.6744,-2.7086,-2.6527,-2.6196,-2.6072,-2.5275,-2.4861,-2.4898,-2.5376,-2.5639,-2.5689,-2.6132,-2.6209,-2.6026,-2.5222,-2.4843,-2.4694,-2.4326,-2.42,-2.42,-2.42,-2.42,-2.42,-2.42,-2.42,-2.42,-2.42,-2.42,-2.42,-2.42,-2.42,-2.4322,-2.5063,-2.6008,-2.7172,-2.8597,-2.9816,-3.0918,-3.2159,-3.2511,-3.2764,-3.3227,-3.3326,-3.3326,-3.3326,-3.3326,-3.3326,-3.3326,-3.3326,-3.3326,-3.3326,-3.2918,-3.2621,-3.2617,-3.2105,-3.2034,-3.2426,-3.2109,-3.2235,-3.3136,-3.3167,-3.2936,-3.2413,-3.2398,-3.2321,-3.2167,-3.1643,-3.1567,-3.1936,-3.1567,-3.1643,-3.2151,-3.2391,-3.2523,-2.8492,-3.0398,-3.2133,-3.1251,-3.0985,-3.1621,-3.4186,-3.439,0.0,-3.5954,0.0,0.0,0.0,-3.0488,-2.9727,-3.0839,-3.126,-3.1807,-3.2637,-3.2725,-3.2578,-3.2256,-3.1455,-3.1035,-3.1218,-3.0214,-2.955,-2.9657,-2.9242,-2.8879,-2.8818,-2.8304,-2.781,-2.7324,-2.7314,-2.6879,-2.5989,-2.6372,-2.6589,-2.661,-2.574,-2.5099,-2.4674,-2.4198,-2.3991,-2.3886,-2.4313,-2.4757,-2.5072,-2.554,-2.5474,-2.5015,-2.4946,-2.4636,-2.4246,-2.4212,-2.42,-2.42,-2.42,-2.42,-2.42,-2.42,-2.42,-2.42,-2.42,-2.42,-2.42,-2.42,-2.42,-2.4273,-2.449,-2.5499,-2.6709,-2.789,-2.9564,-3.1154,-3.219,-3.2848,-3.3269,-3.3312,-3.3326,-3.3326,-3.3326,-3.3326,-3.3326,-3.3326,-3.3326,-3.3326,-3.3326,-3.3283,-3.3239,-3.3116,-3.3471,-3.3612,-3.3352,-3.2701,-3.2358,-3.2459,-3.2459,-3.2444,-3.2398,-3.2398,-3.2105,-3.1474,-3.1413,-3.112,-3.0566,-3.112,-3.1413,-3.1474,-3.2423,-3.2843,-2.9405,-3.0386,-3.1191,-3.1807,-3.231,0.0,0.0,-3.6713,-3.6431,-3.6022,-3.5802,0.0,0.0,-3.1777,-3.1387,-3.1554,-3.1985,-3.2334,-3.2393,-3.2168,-3.1943,-3.1787,-3.0878,-3.0418,-3.0522,-2.9689,-2.9176,-2.9001,-2.8897,-2.8676,-2.8105,-2.7667,-2.7303,-2.6848,-2.6548,-2.6227,-2.5885,-2.5502,-2.5306,-2.5306,-2.5254,-2.4985,-2.4529,-2.4084,-2.3711,-2.3426,-2.4115,-2.4489,-2.4624,-2.5031,-2.5096,-2.4889,-2.4579,-2.4361,-2.42,-2.42,-2.42,-2.42,-2.42,-2.42,-2.42,-2.42,-2.42,-2.42,-2.42,-2.42,-2.42,-2.42,-2.4467,-2.4743,-2.5075,-2.5881,-2.7037,-2.8449,-3.0038,-3.1506,-3.2272,-3.289,-3.3326,-3.3326,-3.3326,-3.3326,-3.3326,-3.3326,-3.3326,-3.3326,-3.3326,-3.3326,-3.3326,-3.3326,-3.3297,-3.3265,-3.3245,-3.3347,-3.3361,-3.2782,-3.2398,-3.2398,-3.2398,-3.2398,-3.2398,-3.2398,-3.2275,-3.2013,-3.2013,-3.2014,-3.1958,-3.2206,-3.2422,-3.2582,-3.2971,-3.315,-3.0487,-3.1101,-3.167,-3.2468,0.0,0.0,-3.7791,-3.8278,-3.8165,-3.7701,-3.75,-3.6443,-3.3539,0.0,-3.2004,-3.1848,-3.2155,-3.2407,-3.2123,-3.1701,-3.1378,-3.125,-3.031,-2.962,-2.9729,-2.9136,-2.8702,-2.8502,-2.8554,-2.8246,-2.7477,-2.7332,-2.692,-2.6165,-2.6113,-2.5823,-2.5254,-2.4778,-2.4395,-2.4115,-2.4436,-2.4343,-2.3877,-2.3432,-2.321,-2.3145,-2.374,-2.4117,-2.4326,-2.4596,-2.4682,-2.4659,-2.4326,-2.42,-2.42,-2.42,-2.42,-2.42,-2.42,-2.42,-2.42,-2.42,-2.42,-2.42,-2.42,-2.42,-2.42,-2.42,-2.4671,-2.5264,-2.58,-2.6544,-2.7509,-2.8946,-3.04,-3.1668,-3.2272,-3.289,-3.3326,-3.3326,-3.3326,-3.3326,-3.3326,-3.3326,-3.3326,-3.3326,-3.3326,-3.3326,-3.3326,-3.3326,-3.3381,-3.35,-3.3445,-3.3382,-3.3402,-3.2782,-3.2398,-3.2398,-3.2398,-3.2398,-3.2398,-3.2398,-3.2398,-3.2398,-3.2523,-3.2648,-3.2897,-3.3005,-3.3096,-3.3309,-3.3398,-3.345,-3.1704,-3.2974,-3.3944,-3.3506,0.0,0.0,-3.8479,-3.8868,-3.9496,-4.1706,-3.9599,-3.663,-3.4547,-3.2564,-3.1267,-3.1291,-3.1691,-3.1979,-3.1979,-3.1592,-3.1156,-3.073,-2.952,-2.8834,-2.9026,-2.8553,-2.8328,-2.8607,-2.8173,-2.7717,-2.7272,-2.7241,-2.662,-2.5275,-2.6082,-2.5678,-2.3888,-2.4302,-2.4074,-2.3184,-2.3174,-2.2936,-2.248,-2.2025,-2.2252,-2.3001,-2.3001,-2.3446,-2.4189,-2.42,-2.42,-2.42,-2.42,-2.42,-2.42,-2.42,-2.42,-2.42,-2.42,-2.42,-2.42,-2.42,-2.42,-2.42,-2.42,-2.42,-2.42,-2.42,-2.4862,-2.5718,-2.668,-2.7311,-2.8014,-2.9212,-3.0519,-3.1654,-3.2258,-3.289,-3.3326,-3.3326,-3.3326,-3.3326,-3.3326,-3.3326,-3.3326,-3.3326,-3.3326,-3.3326,-3.3326,-3.3326,-3.3474,-3.3847,-3.4227,-3.4183,-3.346,-3.2782,-3.2398,-3.2398,-3.2398,-3.2398,-3.2398,-3.2398,-3.2398,-3.2398,-3.2703,-3.2912,-3.2912,-3.315,-3.3309,-3.3293,-3.3607,-3.3694,-3.2956,-3.344,-3.3756,-3.465,0.0,0.0,0.0,-3.858,0.0,0.0,-3.903,-3.6706,-3.5364,-3.4103,-3.2689,-3.1428,-3.1582,-3.1762,-3.1441,-3.103,-3.0589,-3.0138,-2.9313,-2.8907,-2.9001,-2.8676,-2.8249,-2.7717,-2.7531,-2.7117,-2.633,-2.5999,-2.5502,-2.4767,-2.4705,-2.426,-2.3401,-2.3205,-2.2967,-2.2697,-2.2366,-2.2315,-2.249,-2.2657,-2.2645,-2.2628,-2.315,-2.353,-2.3824,-2.4043,-2.42,-2.42,-2.42,-2.42,-2.42,-2.42,-2.42,-2.42,-2.42,-2.42,-2.42,-2.42,-2.42,-2.42,-2.42,-2.42,-2.42,-2.42,-2.5146,-2.6214,-2.6748,-2.7789,-2.8858,-2.9434,-3.0569,-3.1541,-3.1724,-3.2581,-3.3326,-3.3326,-3.3326,-3.3326,-3.3326,-3.3326,-3.3326,-3.3326,-3.3326,-3.3452,-3.3825,-3.3894,-3.4042,-3.4439,-3.4166,-3.38,-3.3402,-3.2782,-3.2398,-3.2398,-3.2648,-3.2773,-3.2773,-3.2773,-3.2827,-3.3011,-3.315,-3.3256,-3.345,-3.3555,-3.371,-3.3848,-3.3949,-3.4,-3.422,-3.4562,-3.4817,-3.5868,-3.7111,-3.8128,-3.8567,0.0,0.0,0.0,-3.9525,-3.7684,-3.6951,-3.5803,-3.4285,-3.2246,-3.223,-3.2025,-3.1136,-3.0691,-3.0255,-2.9799,-2.9082,-2.8574,-2.839,-2.7986,-2.7572,-2.7024,-2.6817,-2.6392,-2.5658,-2.5378,-2.4943,-2.4302,-2.4022,-2.3567,-2.2915,-2.2635,-2.2408,-2.2221,-2.1942,-2.2029,-2.2454,-2.2531,-2.2526,-2.2478,-2.3224,-2.3593,-2.3604,-2.4043,-2.42,-2.42,-2.42,-2.42,-2.42,-2.42,-2.42,-2.42,-2.42,-2.42,-2.42,-2.42,-2.42,-2.42,-2.42,-2.42,-2.42,-2.42,-2.5346,-2.6625,-2.6883,-2.8117,-2.9352,-2.954,-3.0375,-3.1106,-3.1106,-3.2075,-3.296,-3.296,-3.3157,-3.3326,-3.3326,-3.3326,-3.3326,-3.3326,-3.3326,-3.3507,-3.4016,-3.4057,-3.4112,-3.4314,-3.3894,-3.3447,-3.3059,-3.2628,-3.2453,-3.2578,-3.2648,-3.2881,-3.3203,-3.3112,-3.315,-3.3309,-3.3398,-3.3555,-3.3694,-3.3797,-3.382,-3.3712,-3.3871,-3.3855,-3.5316,-3.5906,-3.6508,-3.7111,-3.7713,-3.8467,-3.9647,-4.0187,-4.0739,-4.1794,0.0,-3.9247,-3.879,-3.7405,-3.5758,-3.378,-3.3344,-3.2745,-3.121,-3.054,-2.9993,-2.9649,-2.8707,-2.7992,-2.7533,-2.6991,-2.6537,-2.6455,-2.602,-2.5564,-2.514,-2.5068,-2.4643,-2.3774,-2.3753,-2.3329,-2.2439,-2.2387,-2.218,-2.1807,-2.1766,-2.1918,-2.2327,-2.2025,-2.2176,-2.2628,-2.3254,-2.3599,-2.3599,-2.3929,-2.4085,-2.4131,-2.4131,-2.4154,-2.42,-2.42,-2.42,-2.42,-2.42,-2.42,-2.42,-2.42,-2.42,-2.42,-2.42,-2.42,-2.42,-2.4261,-2.5545,-2.6883,-2.695,-2.8247,-2.954,-2.9602,-3.008,-3.0544,-3.06,-3.1513,-3.2328,-3.2328,-3.282,-3.3241,-3.3241,-3.3283,-3.3326,-3.3326,-3.3312,-3.3548,-3.3998,-3.401,-3.3906,-3.3683,-3.3478,-3.3121,-3.2459,-3.2398,-3.2523,-3.2843,-3.2594,-3.278,-3.3591,-3.3414,-3.3309,-3.3346,-3.3607,-3.3694,-3.3694,-3.3949,-3.3743,-3.3145,-3.3558,-3.3526,-3.4751,-3.5617,0.0,-3.7588,-3.858,-3.9735,-4.1279,-4.0714,-4.0061,-4.0727,-4.0483,-3.9804,-3.8379,-3.7484,-3.6388,-3.4502,-3.3586,-3.2781,-3.2103,-3.0821,-2.9858,-2.9405,-2.8538,-2.7806,-2.7352,-2.69,-2.6279,-2.5575,-2.5088,-2.4633,-2.4188,-2.3826,-2.337,-2.2811,-2.2791,-2.2522,-2.1963,-2.159,-2.1549,-2.1797,-2.1435,-2.1455,-2.1959,-2.2478,-2.315,-2.3801,-2.3561,-2.3461,-2.3427,-2.3167,-2.3236,-2.3532,-2.3532,-2.3844,-2.42,-2.42,-2.42,-2.42,-2.42,-2.42,-2.42,-2.42,-2.42,-2.42,-2.42,-2.42,-2.4261,-2.4743,-2.5615,-2.6637,-2.7324,-2.8338,-2.9289,-2.954,-3.008,-3.0656,-3.1176,-3.1499,-3.1682,-3.1682,-3.2188,-3.2595,-3.2595,-3.3002,-3.3326,-3.3326,-3.3632,-3.3897,-3.3922,-3.4263,-3.4241,-3.3521,-3.3433,-3.3121,-3.2459,-3.2398,-3.2453,-3.2523,-3.2703,-3.2897,-3.3043,-3.3203,-3.3503,-3.3899,-3.3797,-3.3694,-3.3694,-3.3745,-3.3732,-3.3588,-3.3885,-3.3969,0.0,0.0,0.0,-3.8467,0.0,-4.0953,-4.1291,-4.0902,-4.0413,-4.0174,-3.991,-3.9428,-3.8588,-3.7878,-3.701,-3.5341,-3.4531,-3.3834,-3.2846,-3.1451,-3.0477,-3.0493,-2.8919,-2.7848,-2.7628,-2.6773,-2.5958,-2.5285,-2.4602,-2.4126,-2.3888,-2.3225,-2.2749,-2.2501,-2.2066,-2.1714,-2.1476,-2.101,-2.098,-2.1376,-2.098,-2.1063,-2.1754,-2.2114,-2.2663,-2.3223,-2.2942,-2.2786,-2.2774,-2.272,-2.2834,-2.3075,-2.3075,-2.3236,-2.35,-2.3741,-2.3833,-2.3833,-2.3833,-2.3994,-2.4154,-2.3913,-2.4005,-2.42,-2.42,-2.42,-2.4334,-2.4874,-2.5812,-2.6828,-2.7524,-2.8546,-2.9568,-3.0297,-3.0291,-3.0178,-3.0516,-3.0825,-3.1021,-3.1021,-3.178,-3.2412,-3.2412,-3.2918,-3.3326,-3.3326,-3.377,-3.4042,-3.3942,-3.4095,-3.4016,-3.3449,-3.3106,-3.2782,-3.2428,-3.2398,-3.2453,-3.2648,-3.2648,-3.2757,-3.3112,-3.3096,-3.3309,-3.371,-3.371,-3.3694,-3.3694,-3.3848,-3.3738,-3.3432,-3.3754,-3.3822,0.0,0.0,-3.7588,-3.927,-4.0714,0.0,-4.0701,-4.0727,-4.0651,-3.9735,-3.9195,-3.8843,-3.8743,-3.8253,-3.7381,-3.5916,-3.5562,-3.4841,-3.3528,-3.1946,-3.1038,-3.1498,-2.9521,-2.8094,-2.8129,-2.699,-2.5978,-2.5288,-2.4472,-2.3877,-2.3639,-2.2842,-2.2377,-2.2377,-2.1559,-2.1114,-2.1114,-2.0576,-2.05,-2.0878,-2.0573,-2.0786,-2.1603,-2.1471,-2.1797,-2.2281,-2.2134,-2.2059,-2.2059,-2.232,-2.2467,-2.2547,-2.2547,-2.2604,-2.2742,-2.3259,-2.3372,-2.3383,-2.3546,-2.3844,-2.4108,-2.3532,-2.3787,-2.4177,-2.4097,-2.4131,-2.4334,-2.4945,-2.5951,-2.695,-2.767,-2.8675,-2.9806,-3.0923,-3.0445,-2.9799,-2.9912,-3.0249,-3.0488,-3.0375,-3.1387,-3.2244,-3.2244,-3.2848,-3.3283,-3.331,-3.3837,-3.4147,-3.3908,-3.386,-3.371,-3.3249,-3.2721,-3.2398,-3.2398,-3.2398,-3.2523,-3.2773,-3.2523,-3.2617,-3.3203,-3.3005,-3.3005,-3.3309,-3.3503,-3.3642,-3.3694,-3.3899,-3.3759,-3.3226,-3.359,-3.3544,0.0,0.0,-3.7588,0.0,-3.986,-4.0111,0.0,0.0,-3.9157,0.0,-3.8919,-3.8718,-3.8216,-3.7663,-3.7111,-3.6368,-3.5086,-3.4174,-3.3911,-3.2088,-3.0796,-3.0915,-2.9886,-2.9012,-2.863,-2.7958,-2.687,-2.5311,-2.4734,-2.3939,-2.2777,-2.218,-2.1901,-2.1901,-2.1393,-2.1114,-2.1114,-2.0276,-2.0107,-2.0502,-2.0431,-2.0786,-2.157,-2.113,-2.1528,-2.2617,-2.2115,-2.1964,-2.1918,-2.1548,-2.1629,-2.203,-2.203,-2.2294,-2.2742,-2.3259,-2.3372,-2.3441,-2.3936,-2.4143,-2.4108,-2.3532,-2.3787,-2.4108,-2.3672,-2.3844,-2.4406,-2.5511,-2.6114,-2.6786,-2.8105,-2.8844,-2.9267,-2.975,-3.0136,-3.0558,-3.112,-3.0853,-3.0375,-2.9827,-3.074,-3.1612,-3.1612,-3.2553,-3.3282,-3.3192,-3.4141,-3.4514,-3.3815,-3.415,-3.391,-3.2675,-3.2444,-3.2398,-3.2398,-3.2398,-3.2398,-3.2453,-3.2398,-3.2578,-3.2951,-3.2897,-3.3005,-3.3309,-3.3361,-3.345,-3.3694,-3.3761,-3.3713,-3.3617,-3.3901,-3.3695,-3.5554,-3.6621,-3.7977,0.0,-3.9697,-3.976,-3.9998,-3.9433,-3.8781,-3.8454,-3.814,-3.7852,-3.7588,-3.7098,-3.6546,-3.5994,-3.532,-3.4755,-3.4459,-3.2863,-3.181,-3.2087,-3.0461,-2.9254,-2.907,-2.8032,-2.694,-2.5891,-2.5116,-2.4435,-2.3853,-2.2951,-2.235,-2.2093,-2.1188,-2.0607,-2.0358,-1.9696,-1.9479,-1.9665,-1.9609,-1.9889,-2.0471,-1.9717,-2.0314,-2.1946,-2.1382,-2.1167,-2.1144,-2.0929,-2.1103,-2.1502,-2.1502,-2.1629,-2.1893,-2.2409,-2.2593,-2.2673,-2.3167,-2.3534,-2.3695,-2.3178,-2.3557,-2.4097,-2.3592,-2.3989,-2.4814,-2.5652,-2.6526,-2.7338,-2.8314,-2.8972,-2.9498,-2.9975,-3.0333,-3.0698,-3.1359,-3.126,-3.1092,-3.1162,-3.1626,-3.2117,-3.2455,-3.3223,-3.3739,-3.3725,-3.4648,-3.4936,-3.3818,-3.4149,-3.3937,-3.2536,-3.2398,-3.2398,-3.2398,-3.2398,-3.2398,-3.2398,-3.2578,-3.2773,-3.2897,-3.3043,-3.3256,-3.3503,-3.3503,-3.3607,-3.3694,-3.3462,-3.3385,-3.3369,-3.3242,-3.3043,0.0,0.0,-3.7826,-3.8818,-3.927,-3.9446,0.0,0.0,-3.8492,0.0,-3.7362,-3.6973,-3.6973,-3.6521,-3.6019,-3.5604,-3.5303,-3.4989,-3.4575,-3.3239,-3.2472,-3.2807,-3.0905,-2.9616,-2.9472,-2.825,-2.7102,-2.6294,-2.5617,-2.5043,-2.462,-2.349,-2.2714,-2.228,-2.0973,-2.01,-1.9768,-1.9303,-1.9013,-1.8889,-1.8805,-1.8956,-1.9222,-1.8509,-1.9068,-2.0597,-2.0353,-2.0317,-2.0456,-2.0515,-2.0764,-2.1031,-2.1158,-2.1221,-2.129,-2.1743,-2.1927,-2.2019,-2.265,-2.3041,-2.319,-2.28,-2.3282,-2.3913,-2.3537,-2.4155,-2.5146,-2.5931,-2.6812,-2.7749,-2.8444,-2.9035,-2.9603,-3.0115,-3.0417,-3.0698,-3.1359,-3.1485,-3.1626,-3.2075,-3.23,-3.2565,-3.2998,-3.3625,-3.4148,-3.4257,-3.4966,-3.5072,-3.4046,-3.4056,-3.3737,-3.2521,-3.2398,-3.2398,-3.2398,-3.2398,-3.2453,-3.2523,-3.2773,-3.2951,-3.3096,-3.3309,-3.3555,-3.3813,-3.3636,-3.3636,-3.3797,-3.3322,-3.308,-3.3064,-3.2618,-3.2315,0.0,-3.5604,0.0,-3.7174,-3.8115,-3.8768,0.0,0.0,-3.7889,-3.7337,-3.6784,-3.6408,-3.6408,-3.5956,-3.5579,-3.5554,-3.4663,-3.3972,-3.3947,-3.2907,-3.2206,-3.2265,-3.1242,-3.0311,-2.9802,-2.9149,-2.8064,-2.625,-2.6251,-2.5696,-2.4177,-2.3172,-2.2557,-2.2269,-2.0677,-1.9858,-1.9827,-1.9303,-1.8847,-1.8413,-1.8456,-1.8354,-1.8265,-1.8211,-1.8294,-1.8379,-1.916,-1.9669,-1.9963,-2.0445,-2.0635,-2.07,-2.1031,-2.1221,-2.129,-2.1743,-2.1927,-2.2076,-2.2994,-2.311,-2.2708,-2.2685,-2.3041,-2.3455,-2.3447,-2.4196,-2.5217,-2.6358,-2.6905,-2.743,-2.8379,-2.8844,-2.9226,-2.9582,-3.0094,-3.0698,-3.1359,-3.1485,-3.1499,-3.1527,-3.2005,-3.2365,-3.2378,-3.3307,-3.4272,-3.4718,-3.4753,-3.4697,-3.4493,-3.3875,-3.3183,-3.2475,-3.2398,-3.2398,-3.2398,-3.2398,-3.2523,-3.2843,-3.2897,-3.3096,-3.3658,-3.3642,-3.3797,-3.405,-3.3469,-3.3453,-3.4101,-3.342,-3.308,-3.3064,-3.2336,-3.1838,0.0,0.0,0.0,-3.6458,-3.6709,-3.6872,-3.7362,-3.7295,-3.7076,-3.6792,-3.6685,-3.6433,-3.5906,-3.568,-3.5429,-3.5077,-3.4387,-3.3771,-3.342,-3.2704,-3.1964,-3.1273,-3.0586,-2.9858,-2.8962,-2.8477,-2.7898,-2.7268,-2.6929,-2.6489,-2.5791,-2.4759,-2.3904,-2.3257,-2.1745,-2.053,-1.966,-1.8989,-1.8547,-1.8371,-1.7792,-1.7646,-1.7883,-1.7298,-1.7301,-1.7765,-1.7804,-1.8219,-1.8848,-1.9566,-1.9965,-2.0272,-2.0968,-2.1221,-2.1244,-2.1376,-2.1433,-2.1537,-2.2226,-2.2352,-2.2249,-2.257,-2.3293,-2.3955,-2.4029,-2.501,-2.6151,-2.6577,-2.7188,-2.7921,-2.8457,-2.8844,-2.9259,-3.0045,-3.0684,-3.1316,-3.1949,-3.2384,-3.2665,-3.2665,-3.2848,-3.3042,-3.3398,-3.4118,-3.4802,-3.5307,-3.5672,-3.5539,-3.4614,-3.4245,-3.366,-3.2505,-3.2398,-3.2398,-3.2398,-3.2398,-3.2523,-3.2897,-3.3058,-3.3309,-3.3694,-3.3848,-3.4,-3.4101,-3.3858,-3.3647,-3.3453,-3.2271,-3.1704,-3.1688,-3.1358,-3.1165,-3.45,0.0,0.0,0.0,-3.5818,-3.578,-3.6887,-3.6893,-3.6628,-3.664,-3.6489,-3.6248,-3.5697,-3.5423,-3.5057,-3.45,-3.4073,-3.3507,-3.2965,-3.2483,-3.1858,-3.0947,-3.0405,-2.9694,-2.86,-2.8273,-2.7947,-2.7575,-2.7284,-2.7011,-2.6794,-2.5565,-2.4206,-2.2803,-2.1525,-2.0409,-1.9308,-1.8564,-1.8081,-1.7916,-1.7326,-1.7069,-1.7253,-1.6653,-1.6655,-1.7122,-1.6877,-1.734,-1.8243,-1.894,-1.9547,-2.0124,-2.0778,-2.1094,-2.1221,-2.1221,-2.1221,-2.1238,-2.1743,-2.1812,-2.1778,-2.2455,-2.3302,-2.4098,-2.447,-2.5592,-2.6726,-2.6918,-2.7403,-2.8,-2.8471,-2.9059,-2.9692,-3.0367,-3.1176,-3.1907,-3.2314,-3.289,-3.3382,-3.3507,-3.3577,-3.377,-3.4476,-3.4942,-3.535,-3.5894,-3.609,-3.583,-3.4922,-3.4398,-3.3752,-3.2829,-3.2521,-3.2453,-3.2578,-3.2578,-3.2757,-3.315,-3.3361,-3.3555,-3.3797,-3.4,-3.4101,-3.4101,-3.3874,-3.3534,-3.308,-3.196,-3.1421,-3.145,-3.0983,-3.0885,0.0,0.0,0.0,0.0,0.0,0.0,-3.6836,0.0,-3.6496,-3.6989,-3.6488,-3.5923,-3.5884,-3.5188,-3.4474,-3.401,-3.3606,-3.3208,-3.2592,-3.2281,-3.1867,-3.1278,-3.0701,-2.9907,-2.8792,-2.8677,-2.8216,-2.7126,-2.7214,-2.7201,-2.6985,-2.5479,-2.3376,-2.0803,-2.0098,-1.9443,-1.8813,-1.8118,-1.7481,-1.7046,-1.7026,-1.6798,-1.6384,-1.6384,-1.6384,-1.6384,-1.6384,-1.7078,-1.8203,-1.8701,-1.9329,-2.0063,-2.042,-2.0839,-2.1158,-2.1181,-2.1244,-2.1261,-2.1766,-2.1617,-2.1429,-2.2442,-2.3147,-2.3754,-2.4847,-2.5865,-2.685,-2.7323,-2.7523,-2.7669,-2.8392,-2.9555,-3.053,-3.0544,-3.1499,-3.2412,-3.2426,-3.2904,-3.3521,-3.4016,-3.407,-3.4476,-3.5544,-3.5688,-3.5894,-3.6429,-3.5938,-3.5507,-3.546,-3.4275,-3.3413,-3.3367,-3.2782,-3.2523,-3.2843,-3.2897,-3.3096,-3.3658,-3.3658,-3.3797,-3.405,-3.4101,-3.4101,-3.4101,-3.3453,-3.3113,-3.3113,-3.2665,-3.2471,-3.2455,-3.1358,-3.1038,-3.3834,0.0,0.0,0.0,0.0,0.0,-3.5686,0.0,-3.6032,-3.6416,-3.6469,-3.6353,-3.6171,-3.6019,-3.5673,-3.5175,-3.428,-3.3577,-3.3423,-3.2675,-3.1867,-3.1278,-3.0495,-2.9693,-2.897,-2.8659,-2.8352,0.0,-2.7624,-2.722,-2.662,-2.5243,-2.3664,-2.1913,-2.1308,-2.0582,-1.9667,-1.8904,-1.8192,-1.7653,-1.7299,-1.6857,-1.6384,-1.6384,-1.6384,-1.6384,-1.6384,-1.696,-1.7874,-1.8216,-1.8518,-1.8824,-2.0101,-2.07,-2.0809,-2.1441,-2.172,-2.1855,-2.2737,-2.294,-2.306,-2.4073,-2.4816,-2.5382,-2.6038,-2.6722,-2.7323,-2.7469,-2.7523,-2.7669,-2.8392,-2.9555,-3.0642,-3.112,-3.1836,-3.2661,-3.3468,-3.3765,-3.3948,-3.4085,-3.4409,-3.4876,-3.5544,-3.5688,-3.5894,-3.6429,-3.6322,-3.5861,-3.4876,-3.4414,-3.3798,-3.2782,-3.2505,-3.2453,-3.2523,-3.2523,-3.2703,-3.3096,-3.3096,-3.3256,-3.3503,-3.371,-3.3797,-3.3797,-3.3822,-3.3825,-3.3809,-3.2154,-3.1753,-3.2484,-3.2127,-3.2134,-3.3533,-3.348,-3.3538,-3.4183,0.0,0.0,-3.5218,-3.5166,-3.5066,0.0,-3.5745,-3.5554,-3.5697,-3.5838,-3.5734,-3.5311,-3.4973,-3.4521,-3.3959,-3.323,-3.2468,-3.1861,-3.115,-3.0459,-2.9887,-2.9164,-2.8647,-2.8399,-2.785,-2.7104,-2.6181,-2.5431,-2.415,-2.2305,-2.1634,-2.0795,-1.9666,-1.8638,-1.7999,-1.7668,-1.7367,-1.6971,-1.6439,-1.6616,-1.6588,-1.6374,-1.6404,-1.6684,-1.7202,-1.7747,-1.83,-1.8892,-1.9953,-2.0506,-2.0702,-2.1601,-2.2059,-2.2379,-2.3202,-2.3646,-2.4008,-2.4811,-2.544,-2.6019,-2.6549,-2.7053,-2.7523,-2.7523,-2.7723,-2.8119,-2.8833,-2.9941,-3.1092,-3.1724,-3.2532,-3.326,-3.3945,-3.4476,-3.4743,-3.4743,-3.5023,-3.5415,-3.5958,-3.6022,-3.6163,-3.6429,-3.6492,-3.6107,-3.5029,-3.4645,-3.4044,-3.2936,-3.2567,-3.2453,-3.2594,-3.2594,-3.2757,-3.3058,-3.3058,-3.3203,-3.345,-3.3607,-3.3745,-3.3848,-3.4,-3.4054,-3.3893,-3.2777,-3.258,-3.3143,-3.2798,-3.2904,-3.3206,-3.324,-3.3611,-3.428,-3.411,0.0,-3.4979,-3.4438,-3.4036,0.0,-3.4686,-3.436,-3.4839,-3.5167,-3.5292,-3.5107,-3.5609,-3.567,-3.4484,-3.404,-3.3587,-3.3038,-3.2424,-3.1784,-3.1143,-3.0045,-2.9091,-2.8438,-2.7798,-2.6961,-2.5876,-2.5759,-2.464,-2.2221,-2.1554,-2.0575,-1.9303,-1.8071,-1.7451,-1.7387,-1.7341,-1.6962,-1.6439,-1.6968,-1.6961,-1.6504,-1.6504,-1.6566,-1.6738,-1.7488,-1.8449,-1.9521,-1.9933,-2.0366,-2.0831,-2.1724,-2.2456,-2.3047,-2.3622,-2.4237,-2.4744,-2.519,-2.5674,-2.6174,-2.6629,-2.7121,-2.7523,-2.7523,-2.8066,-2.8709,-2.9238,-3.0425,-3.1626,-3.2241,-3.3257,-3.4138,-3.4274,-3.5023,-3.5688,-3.5752,-3.5755,-3.5867,-3.6414,-3.6368,-3.6292,-3.6368,-3.6322,-3.6014,-3.5337,-3.4737,-3.4091,-3.3367,-3.2752,-3.2523,-3.2843,-3.2843,-3.2935,-3.3187,-3.3187,-3.3346,-3.3607,-3.3658,-3.3797,-3.405,-3.4151,-3.4023,-3.3766,-3.4118,-3.4201,-3.4019,-3.3438,-3.3542,-3.3106,-3.3398,-3.3666,-3.3866,-3.4056,0.0,-3.4541,-3.4392,-3.434,0.0,-3.4868,-3.5083,-3.5187,-3.5652,-3.5953,-3.5852,-3.6031,-3.6031,-3.5722,-3.5299,-3.492,-3.4803,-3.3875,-3.2842,-3.1784,-3.0634,-2.9523,-2.8464,-2.7419,-2.6543,-2.5863,-2.538,-2.4223,-2.2111,-2.1882,-2.1158,-1.9708,-1.9019,-1.8446,-1.7954,-1.7538,-1.6968,-1.6428,-1.699,-1.7228,-1.7119,-1.706,-1.7555,-1.8373,-1.8474,-1.8642,-1.8953,-1.9801,-2.0741,-2.1745,-2.2817,-2.3478,-2.4136,-2.5548,-2.6181,-2.6342,-2.6848,-2.7087,-2.7246,-2.7284,-2.739,-2.7523,-2.7523,-2.8066,-2.8627,-2.8736,-3.0107,-3.1646,-3.2111,-3.3183,-3.4341,-3.5219,-3.5559,-3.5816,-3.6289,-3.5922,-3.5723,-3.6399,-3.5584,-3.5045,-3.5599,-3.5214,-3.4614,-3.3891,-3.369,-3.3352,-3.2659,-3.2475,-3.2453,-3.2523,-3.2523,-3.2508,-3.2563,-3.2563,-3.2742,-3.3043,-3.324,-3.3503,-3.3745,-3.43,-3.4704,-3.4868,-3.5279,-3.4865,-3.3697,-3.4404,-3.4835,-3.3391,-3.3471,-3.3725,-3.3894,-3.4147,0.0,0.0,-3.3992,-3.3992,-3.3992,-3.3992,-3.4175,-3.4737,-3.4842,-3.5129,-3.5966,-3.5874,-3.59,-3.6475,-3.6057,-3.56,-3.5325,-3.4528,-3.3535,-3.2372,-3.0973,-2.9523,-2.8059,-2.7157,-2.6425,-2.585,-2.5275,-2.406,-2.2056,-2.2005,-2.1278,-1.9811,-1.9007,-1.846,-1.813,-1.7603,-1.7034,-1.6467,-1.7329,-1.7557,-1.7307,-1.7546,-1.8103,-1.8896,-1.905,-1.9508,-2.0176,-2.0751,-2.1527,-2.2428,-2.3465,-2.4386,-2.5206,-2.6354,-2.6863,-2.7121,-2.739,-2.7523,-2.7523,-2.7523,-2.7523,-2.7523,-2.7523,-2.8066,-2.8655,-2.8953,-3.0192,-3.1518,-3.2076,-3.3325,-3.4534,-3.5063,-3.5652,-3.6163,-3.6429,-3.5953,-3.5691,-3.6368,-3.5922,-3.5476,-3.5476,-3.5476,-3.5106,-3.406,-3.4229,-3.4044,-3.2998,-3.2906,-3.2752,-3.2428,-3.2398,-3.2398,-3.2398,-3.2578,-3.2757,-3.3112,-3.3346,-3.3694,-3.4201,-3.5432,-3.605,-3.6038,-3.6478,-3.6071,-3.4957,-3.4719,-3.5042,-3.3553,-3.3556,-3.3797,-3.3992,-3.4243,-3.428,0.0,0.0,0.0,-3.3613,-3.3287,-3.3234,-3.394,0.0,0.0,-3.5247,0.0,0.0,0.0,-3.6337,0.0,-3.5495,-3.4829,-3.3953,-3.2803,-3.1176,-2.9416,-2.7641,-2.7223,-2.6722,-2.5863,-2.5275,-2.4112,-2.221,-2.2056,-2.1342,-1.9974,-1.8794,-1.8204,-1.8191,-1.7539,-1.7024,-1.6691,-1.769,-1.7944,-1.7641,-1.8178,-1.8748,-1.9291,-1.9727,-2.0594,-2.1701,-2.1968,-2.2471,-2.3183,-2.4128,-2.5184,-2.6125,-2.6646,-2.7121,-2.7523,-2.7523,-2.7523,-2.7523,-2.7523,-2.7523,-2.7523,-2.7523,-2.8066,-2.8695,-2.9302,-3.0339,-3.1421,-3.2275,-3.3499,-3.4542,-3.4802,-3.5645,-3.6307,-3.6307,-3.5953,-3.5814,-3.623,-3.6184,-3.5876,-3.5183,-3.566,-3.566,-3.4429,-3.486,-3.4799,-3.3537,-3.3398,-3.3121,-3.2459,-3.2453,-3.2523,-3.2523,-3.2827,-3.3096,-3.3361,-3.3838,-3.4426,-3.5103,-3.6584,-3.7185,-3.6916,-3.7127,-3.7008,-3.649,-3.5145,-3.5145,-3.3351,-3.3556,-3.3797,-3.3992,-3.4243,-3.4384,-3.4319,0.0,-3.4175,-3.3692,0.0,-3.3927,-3.3051,0.0,0.0,0.0,0.0,0.0,-3.4672,-3.5641,-3.6249,-3.604,-3.5051,-3.3953,-3.2803,-3.1296,-2.9563,-2.7615,-2.8103,-2.7709,-2.5876,-2.5275,-2.4281,-2.2788,-2.2262,-2.1533,-2.063,-1.8995,-1.8204,-1.8191,-1.7124,-1.6848,-1.7313,-1.7944,-1.8421,-1.8834,-1.9388,-1.994,-2.0511,-2.1001,-2.1579,-2.2234,-2.2501,-2.3303,-2.4391,-2.5356,-2.6063,-2.6687,-2.7194,-2.7456,-2.7523,-2.7523,-2.7523,-2.7523,-2.7523,-2.7523,-2.7523,-2.7523,-2.8066,-2.8729,-2.9218,-3.027,-3.1608,-3.3244,-3.3713,-3.4106,-3.5156,-3.5537,-3.5599,-3.5599,-3.6014,-3.6215,-3.5691,-3.5106,-3.446,-3.3752,-3.4245,-3.4429,-3.3629,-3.4152,-3.4275,-3.349,-3.3398,-3.3121,-3.2459,-3.2648,-3.2843,-3.2843,-3.3096,-3.3346,-3.3642,-3.4886,-3.5876,-3.6653,-3.6872,-3.6956,-3.6916,-3.6577,-3.6749,-3.7318,-3.6456,-3.6146,-3.356,-3.3725,-3.3992,-3.4243,-3.4314,-3.4397,-3.4397,-3.4397,-3.4332,-3.411,0.0,0.0,0.0,0.0,0.0,0.0,-3.3423,-3.3832,0.0,0.0,-3.5568,-3.5728,0.0,0.0,-3.2078,-3.1209,-3.0268,-2.8759,-2.836,-2.7813,-2.7001,-2.5374,-2.3969,-2.2979,-2.2287,-2.1613,-2.0825,-1.9397,-1.8518,-1.8191,-1.74,-1.7149,-1.74,-1.7953,-1.8668,-1.9522,-2.0048,-2.0797,-2.1656,-2.1865,-2.2437,-2.3364,-2.3991,-2.4494,-2.5038,-2.591,-2.6608,-2.721,-2.7445,-2.7523,-2.7523,-2.7523,-2.7523,-2.7523,-2.7523,-2.7523,-2.7523,-2.7523,-2.8235,-2.9071,-2.9247,-3.0424,-3.1679,-3.2375,-3.3089,-3.3673,-3.4155,-3.4906,-3.5476,-3.5476,-3.603,-3.6276,-3.5599,-3.5245,-3.4691,-3.3567,-3.4014,-3.4214,-3.349,-3.4029,-3.4198,-3.3475,-3.3398,-3.3121,-3.2459,-3.2718,-3.2897,-3.2897,-3.3688,-3.4422,-3.4903,-3.6286,-3.7202,-3.7565,-3.8444,-3.8559,-3.7916,-3.774,-3.7577,-3.7456,-3.6663,-3.6301,-3.3743,-3.381,-3.4076,-3.4314,-3.4397,-3.4397,-3.4397,-3.428,-3.4214,-3.4371,-3.3613,0.0,0.0,0.0,-3.2083,-3.3265,0.0,-3.3498,0.0,-3.4799,-3.506,-3.5282,-3.5335,0.0,0.0,-3.1916,-3.1488,-3.0154,-2.9287,-2.8553,-2.7865,-2.5775,-2.4189,-2.3269,-2.2631,-2.1975,-2.139,-1.9977,-1.9095,-1.8631,-1.794,-1.7689,-1.7852,-1.8392,-1.9158,-2.0075,-2.0803,-2.1568,-2.2334,-2.2648,-2.3251,-2.4067,-2.5001,-2.5461,-2.5666,-2.644,-2.7051,-2.7523,-2.7523,-2.7523,-2.7523,-2.7523,-2.7523,-2.7523,-2.7523,-2.7656,-2.7776,-2.7776,-2.8661,-2.9594,-2.9718,-3.0763,-3.1784,-3.2065,-3.268,-3.3183,-3.3367,-3.4352,-3.5214,-3.5214,-3.5907,-3.6276,-3.5599,-3.563,-3.5291,-3.3906,-3.4291,-3.4568,-3.4044,-3.426,-3.4275,-3.3752,-3.3521,-3.3121,-3.2459,-3.2718,-3.3005,-3.3203,-3.4085,-3.501,-3.5844,-3.7186,-3.792,-3.8078,-3.9228,-3.9316,-3.8284,-3.8077,-3.768,-3.7146,-3.6559,-3.6301,0.0,0.0,-3.3797,-3.4314,-3.4397,-3.4397,-3.4397,-3.3992,-3.3757,-3.4293,-3.3953,-3.3574,-3.3587,-3.3548,-3.3383,-3.3103,-3.345,0.0,0.0,-3.4768,-3.5138,-3.4966,-3.4503,-3.393,0.0,-3.3794,-3.3413,-3.1589,-3.1473,-3.0368,-2.7906,-2.663,-2.5298,-2.3936,-2.3282,-2.2801,-2.2572,-2.0907,-1.994,-1.9736,-1.8681,-1.8455,-1.8945,-1.951,-2.0075,-2.0756,-2.1782,-2.2284,-2.2397,-2.3489,-2.3966,-2.4104,-2.5159,-2.5864,-2.6282,-2.7155,-2.7443,-2.7523,-2.7523,-2.7523,-2.7523,-2.7523,-2.7523,-2.7523,-2.7523,-2.7973,-2.8481,-2.8481,-2.9345,-3.0389,-3.0807,-3.1291,-3.2004,-3.31,-3.289,-3.2613,-3.326,-3.3983,-3.4506,-3.4506,-3.5584,-3.6276,-3.5599,-3.603,-3.5999,-3.4645,-3.5014,-3.5445,-3.5414,-3.486,-3.446,-3.4445,-3.3814,-3.3121,-3.2459,-3.2718,-3.3256,-3.4,-3.4117,-3.4725,-3.6056,-3.7275,-3.7936,-3.7997,-3.8448,-3.8284,-3.7508,-3.6749,-3.6353,-3.6335,-3.6318,-3.6301,0.0,0.0,-3.381,-3.416,0.0,-3.4243,-3.4397,-3.3979,-3.3907,-3.4994,-3.4486,-3.3958,-3.4511,-3.4259,-3.3771,-3.3248,-3.3691,-3.4171,0.0,-3.4893,-3.5577,-3.5922,-3.49,-3.4045,-3.3509,0.0,-3.3897,-3.2875,-3.2469,-3.1492,-2.9811,-2.8116,-2.6576,-2.5174,-2.4117,-2.3477,-2.3323,-2.1557,-2.0345,-1.9798,-1.9083,-1.8795,-1.8995,-1.956,-2.0313,-2.1255,-2.1995,-2.2736,-2.3452,-2.3841,-2.4418,-2.5096,-2.575,-2.633,-2.6768,-2.7082,-2.7335,-2.7523,-2.7523,-2.7523,-2.7523,-2.7523,-2.7523,-2.759,-2.8039,-2.8287,-2.8597,-2.903,-2.995,-3.0793,-3.0984,-3.158,-3.2293,-3.2634,-3.2567,-3.2459,-3.269,-3.3275,-3.3767,-3.3767,-3.4522,-3.5076,-3.486,-3.5014,-3.4999,-3.4537,-3.466,-3.4814,-3.4814,-3.4198,-3.3767,-3.3767,-3.3152,-3.2644,-3.2413,-3.3011,-3.385,-3.4748,-3.5694,-3.6538,-3.7259,-3.8732,-3.916,-3.8431,-3.9032,-3.8715,-3.7491,-3.7215,-3.6818,-3.6301,-3.6301,-3.6301,-3.3398,-3.3797,0.0,-3.4454,-3.4772,0.0,-3.5264,-3.4835,-3.4819,-3.5933,-3.5159,-3.454,-3.5213,-3.4885,-3.4325,-3.3931,-3.4318,-3.4656,0.0,-3.5198,-3.5669,-3.6088,-3.5318,-3.4684,-3.4604,-3.4655,-3.4596,-3.4265,-3.3618,-3.2614,-3.1081,-2.9649,-2.8139,-2.654,-2.5453,-2.486,-2.4651,-2.303,-2.1837,-2.0985,-2.045,-2.0092,-1.9924,-2.0451,-2.1091,-2.1807,-2.2359,-2.3138,-2.4017,-2.4217,-2.4808,-2.5624,-2.6117,-2.6557,-2.7024,-2.7146,-2.7335,-2.7523,-2.7523,-2.7523,-2.7523,-2.7523,-2.7656,-2.7908,-2.8352,-2.8853,-2.9282,-2.9704,-3.0555,-3.1349,-3.1349,-3.1879,-3.2398,-3.2398,-3.2398,-3.2398,-3.2398,-3.2921,-3.3398,-3.3398,-3.3983,-3.4475,-3.4475,-3.4675,-3.4752,-3.4506,-3.426,-3.4183,-3.4445,-3.3844,-3.3398,-3.3398,-3.3013,-3.2755,-3.2711,-3.39,-3.4762,-3.5102,-3.6489,-3.7431,-3.7653,-3.8921,-3.9196,-3.8215,-3.8663,-3.8301,-3.706,-3.706,-3.6801,-3.6301,-3.6301,-3.6301]}]]